Wetterdaten: Samstag, 30.05.2020
Datum Zeit Temp. 2m Temp +5 cm Feuchte A. Luftdruck Regen Wind Richtung Richtung Sonnenschein UV Solar Taupunkt Windchill Windben
30.05.2020 00:00 7,4 C 3,3 C 78 % 1025,1 hPa 0,0 l/m 0,0 km/h (0 Bft) N 0 0 min 0,0 UV-I 0 W/m 3,8 C 7,4 C 0,0 km/h (0 Bft)
30.05.2020 00:01 7,5 C 3,3 C 78 % 1025,1 hPa 0,0 l/m 0,0 km/h (0 Bft) N 0 0 min 0,0 UV-I 0 W/m 3,9 C 7,5 C 0,0 km/h (0 Bft)
30.05.2020 00:02 7,4 C 3,3 C 78 % 1025,1 hPa 0,0 l/m 0,0 km/h (0 Bft) N 0 0 min 0,0 UV-I 0 W/m 3,8 C 7,4 C 0,0 km/h (0 Bft)
30.05.2020 00:03 7,4 C 3,3 C 78 % 1025,1 hPa 0,0 l/m 0,0 km/h (0 Bft) N 0 0 min 0,0 UV-I 0 W/m 3,8 C 7,4 C 0,0 km/h (0 Bft)
30.05.2020 00:04 7,4 C 3,3 C 78 % 1025,1 hPa 0,0 l/m 0,0 km/h (0 Bft) N 0 0 min 0,0 UV-I 0 W/m 3,8 C 7,4 C 0,0 km/h (0 Bft)
30.05.2020 00:05 7,4 C 3,3 C 78 % 1025,1 hPa 0,0 l/m 0,0 km/h (0 Bft) N 0 0 min 0,0 UV-I 0 W/m 3,8 C 7,4 C 0,0 km/h (0 Bft)
30.05.2020 00:06 7,4 C 3,3 C 78 % 1025,1 hPa 0,0 l/m 0,0 km/h (0 Bft) N 0 0 min 0,0 UV-I 0 W/m 3,8 C 7,4 C 0,0 km/h (0 Bft)
30.05.2020 00:07 7,4 C 3,3 C 78 % 1025,1 hPa 0,0 l/m 0,0 km/h (0 Bft) N 0 0 min 0,0 UV-I 0 W/m 3,8 C 7,4 C 0,0 km/h (0 Bft)
30.05.2020 00:08 7,4 C 3,3 C 78 % 1025,2 hPa 0,0 l/m 0,0 km/h (0 Bft) N 0 0 min 0,0 UV-I 0 W/m 3,8 C 7,4 C 0,0 km/h (0 Bft)
30.05.2020 00:09 7,4 C 3,3 C 78 % 1025,0 hPa 0,0 l/m 0,0 km/h (0 Bft) N 0 0 min 0,0 UV-I 0 W/m 3,8 C 7,4 C 0,0 km/h (0 Bft)
30.05.2020 00:10 7,4 C 3,3 C 78 % 1025,1 hPa 0,0 l/m 0,0 km/h (0 Bft) N 0 0 min 0,0 UV-I 0 W/m 3,8 C 7,4 C 0,0 km/h (0 Bft)
30.05.2020 00:11 7,4 C 3,3 C 78 % 1025,2 hPa 0,0 l/m 0,0 km/h (0 Bft) N 0 0 min 0,0 UV-I 0 W/m 3,8 C 7,4 C 0,0 km/h (0 Bft)
30.05.2020 00:12 7,3 C 3,3 C 78 % 1025,1 hPa 0,0 l/m 0,0 km/h (0 Bft) N 0 0 min 0,0 UV-I 0 W/m 3,7 C 7,3 C 0,0 km/h (0 Bft)
30.05.2020 00:13 7,3 C 3,3 C 78 % 1025,2 hPa 0,0 l/m 0,0 km/h (0 Bft) N 0 0 min 0,0 UV-I 0 W/m 3,7 C 7,3 C 0,0 km/h (0 Bft)
30.05.2020 00:14 7,2 C 2,8 C 78 % 1025,1 hPa 0,0 l/m 0,0 km/h (0 Bft) N 0 0 min 0,0 UV-I 0 W/m 3,6 C 7,2 C 0,0 km/h (0 Bft)
30.05.2020 00:15 7,1 C 2,8 C 78 % 1025,1 hPa 0,0 l/m 0,0 km/h (0 Bft) N 0 0 min 0,0 UV-I 0 W/m 3,5 C 7,1 C 0,0 km/h (0 Bft)
30.05.2020 00:16 7,1 C 2,8 C 79 % 1025,3 hPa 0,0 l/m 0,0 km/h (0 Bft) N 0 0 min 0,0 UV-I 0 W/m 3,7 C 7,1 C 0,0 km/h (0 Bft)
30.05.2020 00:17 7,2 C 2,8 C 79 % 1025,2 hPa 0,0 l/m 0,0 km/h (0 Bft) N 0 0 min 0,0 UV-I 0 W/m 3,8 C 7,2 C 0,0 km/h (0 Bft)
30.05.2020 00:18 7,2 C 2,8 C 79 % 1025,2 hPa 0,0 l/m 0,0 km/h (0 Bft) N 0 0 min 0,0 UV-I 0 W/m 3,8 C 7,2 C 0,0 km/h (0 Bft)
30.05.2020 00:19 7,1 C 2,8 C 78 % 1025,2 hPa 0,0 l/m 0,0 km/h (0 Bft) N 0 0 min 0,0 UV-I 0 W/m 3,5 C 7,1 C 0,0 km/h (0 Bft)
30.05.2020 00:20 7,1 C 2,8 C 79 % 1025,2 hPa 0,0 l/m 0,0 km/h (0 Bft) N 0 0 min 0,0 UV-I 0 W/m 3,7 C 7,1 C 0,0 km/h (0 Bft)
30.05.2020 00:21 6,9 C 2,8 C 79 % 1025,2 hPa 0,0 l/m 0,0 km/h (0 Bft) N 0 0 min 0,0 UV-I 0 W/m 3,5 C 6,9 C 0,0 km/h (0 Bft)
30.05.2020 00:22 6,9 C 2,8 C 79 % 1025,2 hPa 0,0 l/m 0,0 km/h (0 Bft) N 0 0 min 0,0 UV-I 0 W/m 3,5 C 6,9 C 0,0 km/h (0 Bft)
30.05.2020 00:23 6,8 C 2,8 C 79 % 1025,2 hPa 0,0 l/m 0,0 km/h (0 Bft) N 0 0 min 0,0 UV-I 0 W/m 3,4 C 6,8 C 0,0 km/h (0 Bft)
30.05.2020 00:24 6,8 C 2,8 C 80 % 1025,2 hPa 0,0 l/m 0,0 km/h (0 Bft) N 0 0 min 0,0 UV-I 0 W/m 3,6 C 6,8 C 0,0 km/h (0 Bft)
30.05.2020 00:25 6,8 C 3,3 C 80 % 1025,2 hPa 0,0 l/m 0,0 km/h (0 Bft) N 0 0 min 0,0 UV-I 0 W/m 3,6 C 6,8 C 0,0 km/h (0 Bft)
30.05.2020 00:26 6,7 C 3,3 C 80 % 1025,2 hPa 0,0 l/m 1,6 km/h (1 Bft) NO 45 0 min 0,0 UV-I 0 W/m 3,5 C 6,7 C 1,6 km/h (1 Bft)
30.05.2020 00:27 6,8 C 3,3 C 80 % 1025,2 hPa 0,0 l/m 1,6 km/h (1 Bft) NO 45 0 min 0,0 UV-I 0 W/m 3,6 C 6,8 C 3,2 km/h (1 Bft)
30.05.2020 00:28 6,8 C 3,3 C 80 % 1025,2 hPa 0,0 l/m 1,6 km/h (1 Bft) NO 45 0 min 0,0 UV-I 0 W/m 3,6 C 6,8 C 3,2 km/h (1 Bft)
30.05.2020 00:29 6,8 C 3,3 C 80 % 1025,1 hPa 0,0 l/m 1,6 km/h (1 Bft) NO 45 0 min 0,0 UV-I 0 W/m 3,6 C 6,8 C 3,2 km/h (1 Bft)
30.05.2020 00:30 6,8 C 3,3 C 80 % 1025,3 hPa 0,0 l/m 1,6 km/h (1 Bft) NO 45 0 min 0,0 UV-I 0 W/m 3,6 C 6,8 C 1,6 km/h (1 Bft)
30.05.2020 00:31 6,8 C 3,3 C 80 % 1025,2 hPa 0,0 l/m 1,6 km/h (1 Bft) NO 45 0 min 0,0 UV-I 0 W/m 3,6 C 6,8 C 3,2 km/h (1 Bft)
30.05.2020 00:32 6,8 C 2,8 C 80 % 1025,2 hPa 0,0 l/m 0,0 km/h (0 Bft) NO 45 0 min 0,0 UV-I 0 W/m 3,6 C 6,8 C 1,6 km/h (1 Bft)
30.05.2020 00:33 6,7 C 2,8 C 80 % 1025,2 hPa 0,0 l/m 0,0 km/h (0 Bft) NO 45 0 min 0,0 UV-I 0 W/m 3,5 C 6,7 C 1,6 km/h (1 Bft)
30.05.2020 00:34 6,7 C 2,8 C 80 % 1025,2 hPa 0,0 l/m 0,0 km/h (0 Bft) NO 45 0 min 0,0 UV-I 0 W/m 3,5 C 6,7 C 1,6 km/h (1 Bft)
30.05.2020 00:35 6,7 C 2,8 C 80 % 1025,2 hPa 0,0 l/m 0,0 km/h (0 Bft) NO 45 0 min 0,0 UV-I 0 W/m 3,5 C 6,7 C 1,6 km/h (1 Bft)
30.05.2020 00:36 6,7 C 2,8 C 81 % 1025,2 hPa 0,0 l/m 0,0 km/h (0 Bft) NO 45 0 min 0,0 UV-I 0 W/m 3,7 C 6,7 C 1,6 km/h (1 Bft)
30.05.2020 00:37 6,7 C 2,8 C 80 % 1025,2 hPa 0,0 l/m 0,0 km/h (0 Bft) N 0 0 min 0,0 UV-I 0 W/m 3,5 C 6,7 C 0,0 km/h (0 Bft)
30.05.2020 00:38 6,6 C 2,2 C 79 % 1025,2 hPa 0,0 l/m 0,0 km/h (0 Bft) NO 45 0 min 0,0 UV-I 0 W/m 3,2 C 6,6 C 1,6 km/h (1 Bft)
30.05.2020 00:39 6,4 C 2,2 C 80 % 1025,2 hPa 0,0 l/m 0,0 km/h (0 Bft) N 0 0 min 0,0 UV-I 0 W/m 3,2 C 6,4 C 0,0 km/h (0 Bft)
30.05.2020 00:40 6,3 C 2,2 C 80 % 1025,2 hPa 0,0 l/m 0,0 km/h (0 Bft) N 0 0 min 0,0 UV-I 0 W/m 3,1 C 6,3 C 0,0 km/h (0 Bft)
30.05.2020 00:41 6,2 C 2,2 C 80 % 1025,2 hPa 0,0 l/m 0,0 km/h (0 Bft) N 0 0 min 0,0 UV-I 0 W/m 3,0 C 6,2 C 0,0 km/h (0 Bft)
30.05.2020 00:42 6,2 C 2,2 C 81 % 1025,2 hPa 0,0 l/m 0,0 km/h (0 Bft) N 0 0 min 0,0 UV-I 0 W/m 3,2 C 6,2 C 0,0 km/h (0 Bft)
30.05.2020 00:43 6,2 C 2,2 C 82 % 1025,1 hPa 0,0 l/m 0,0 km/h (0 Bft) N 0 0 min 0,0 UV-I 0 W/m 3,4 C 6,2 C 0,0 km/h (0 Bft)
30.05.2020 00:44 6,2 C 2,2 C 81 % 1025,3 hPa 0,0 l/m 0,0 km/h (0 Bft) N 0 0 min 0,0 UV-I 0 W/m 3,2 C 6,2 C 0,0 km/h (0 Bft)
30.05.2020 00:45 6,1 C 2,2 C 81 % 1025,8 hPa 0,0 l/m 0,0 km/h (0 Bft) N 0 0 min 0,0 UV-I 0 W/m 3,1 C 6,1 C 0,0 km/h (0 Bft)
30.05.2020 00:46 6,0 C 2,2 C 81 % 1025,2 hPa 0,0 l/m 0,0 km/h (0 Bft) N 0 0 min 0,0 UV-I 0 W/m 3,0 C 6,0 C 0,0 km/h (0 Bft)
30.05.2020 00:47 5,9 C 2,2 C 82 % 1025,2 hPa 0,0 l/m 0,0 km/h (0 Bft) N 0 0 min 0,0 UV-I 0 W/m 3,1 C 5,9 C 0,0 km/h (0 Bft)
30.05.2020 00:48 6,0 C 2,2 C 82 % 1025,2 hPa 0,0 l/m 0,0 km/h (0 Bft) N 0 0 min 0,0 UV-I 0 W/m 3,2 C 6,0 C 0,0 km/h (0 Bft)
30.05.2020 00:49 6,1 C 2,2 C 82 % 1025,2 hPa 0,0 l/m 0,0 km/h (0 Bft) N 0 0 min 0,0 UV-I 0 W/m 3,3 C 6,1 C 0,0 km/h (0 Bft)
30.05.2020 00:50 6,2 C 2,8 C 82 % 1025,2 hPa 0,0 l/m 0,0 km/h (0 Bft) N 0 0 min 0,0 UV-I 0 W/m 3,4 C 6,2 C 0,0 km/h (0 Bft)
30.05.2020 00:51 6,2 C 2,2 C 82 % 1025,2 hPa 0,0 l/m 0,0 km/h (0 Bft) N 0 0 min 0,0 UV-I 0 W/m 3,4 C 6,2 C 0,0 km/h (0 Bft)
30.05.2020 00:52 6,2 C 2,8 C 82 % 1025,2 hPa 0,0 l/m 0,0 km/h (0 Bft) N 0 0 min 0,0 UV-I 0 W/m 3,4 C 6,2 C 0,0 km/h (0 Bft)
30.05.2020 00:53 6,2 C 2,2 C 81 % 1025,2 hPa 0,0 l/m 0,0 km/h (0 Bft) N 0 0 min 0,0 UV-I 0 W/m 3,2 C 6,2 C 0,0 km/h (0 Bft)
30.05.2020 00:54 6,2 C 2,2 C 81 % 1025,2 hPa 0,0 l/m 0,0 km/h (0 Bft) N 0 0 min 0,0 UV-I 0 W/m 3,2 C 6,2 C 0,0 km/h (0 Bft)
30.05.2020 00:55 6,2 C 2,2 C 81 % 1025,2 hPa 0,0 l/m 0,0 km/h (0 Bft) N 0 0 min 0,0 UV-I 0 W/m 3,2 C 6,2 C 0,0 km/h (0 Bft)
30.05.2020 00:56 6,1 C 2,2 C 81 % 1025,3 hPa 0,0 l/m 0,0 km/h (0 Bft) N 0 0 min 0,0 UV-I 0 W/m 3,1 C 6,1 C 0,0 km/h (0 Bft)
30.05.2020 00:57 6,1 C 2,2 C 81 % 1025,3 hPa 0,0 l/m 0,0 km/h (0 Bft) N 0 0 min 0,0 UV-I 0 W/m 3,1 C 6,1 C 0,0 km/h (0 Bft)
30.05.2020 00:58 6,0 C 2,2 C 81 % 1025,2 hPa 0,0 l/m 0,0 km/h (0 Bft) N 0 0 min 0,0 UV-I 0 W/m 3,0 C 6,0 C 0,0 km/h (0 Bft)
30.05.2020 00:59 5,9 C 2,2 C 82 % 1025,2 hPa 0,0 l/m 0,0 km/h (0 Bft) N 0 0 min 0,0 UV-I 0 W/m 3,1 C 5,9 C 0,0 km/h (0 Bft)
30.05.2020 01:00 5,8 C 2,2 C 82 % 1025,3 hPa 0,0 l/m 0,0 km/h (0 Bft) N 0 0 min 0,0 UV-I 0 W/m 3,0 C 5,8 C 0,0 km/h (0 Bft)
30.05.2020 01:01 5,8 C 2,2 C 82 % 1025,2 hPa 0,0 l/m 0,0 km/h (0 Bft) N 0 0 min 0,0 UV-I 0 W/m 3,0 C 5,8 C 0,0 km/h (0 Bft)
30.05.2020 01:02 5,7 C 2,2 C 82 % 1025,3 hPa 0,0 l/m 0,0 km/h (0 Bft) N 0 0 min 0,0 UV-I 0 W/m 2,9 C 5,7 C 0,0 km/h (0 Bft)
30.05.2020 01:03 5,7 C 2,2 C 82 % 1025,2 hPa 0,0 l/m 0,0 km/h (0 Bft) N 0 0 min 0,0 UV-I 0 W/m 2,9 C 5,7 C 0,0 km/h (0 Bft)
30.05.2020 01:04 5,7 C 2,2 C 82 % 1025,4 hPa 0,0 l/m 0,0 km/h (0 Bft) N 0 0 min 0,0 UV-I 0 W/m 2,9 C 5,7 C 0,0 km/h (0 Bft)
30.05.2020 01:05 5,7 C 2,2 C 83 % 1025,3 hPa 0,0 l/m 0,0 km/h (0 Bft) N 0 0 min 0,0 UV-I 0 W/m 3,0 C 5,7 C 0,0 km/h (0 Bft)
30.05.2020 01:06 5,7 C 2,2 C 83 % 1025,3 hPa 0,0 l/m 0,0 km/h (0 Bft) N 0 0 min 0,0 UV-I 0 W/m 3,0 C 5,7 C 0,0 km/h (0 Bft)
30.05.2020 01:07 5,7 C 2,2 C 83 % 1025,3 hPa 0,0 l/m 0,0 km/h (0 Bft) N 0 0 min 0,0 UV-I 0 W/m 3,0 C 5,7 C 0,0 km/h (0 Bft)
30.05.2020 01:08 5,7 C 2,2 C 83 % 1025,2 hPa 0,0 l/m 0,0 km/h (0 Bft) N 0 0 min 0,0 UV-I 0 W/m 3,0 C 5,7 C 0,0 km/h (0 Bft)
30.05.2020 01:09 5,7 C 2,2 C 82 % 1025,3 hPa 0,0 l/m 0,0 km/h (0 Bft) N 0 0 min 0,0 UV-I 0 W/m 2,9 C 5,7 C 0,0 km/h (0 Bft)
30.05.2020 01:10 5,6 C 2,2 C 83 % 1025,3 hPa 0,0 l/m 0,0 km/h (0 Bft) N 0 0 min 0,0 UV-I 0 W/m 2,9 C 5,6 C 0,0 km/h (0 Bft)
30.05.2020 01:11 5,6 C 2,2 C 83 % 1025,3 hPa 0,0 l/m 0,0 km/h (0 Bft) N 0 0 min 0,0 UV-I 0 W/m 2,9 C 5,6 C 0,0 km/h (0 Bft)
30.05.2020 01:12 5,6 C 2,2 C 83 % 1025,3 hPa 0,0 l/m 0,0 km/h (0 Bft) N 0 0 min 0,0 UV-I 0 W/m 2,9 C 5,6 C 0,0 km/h (0 Bft)
30.05.2020 01:13 5,7 C 2,2 C 83 % 1025,4 hPa 0,0 l/m 0,0 km/h (0 Bft) NO 45 0 min 0,0 UV-I 0 W/m 3,0 C 5,7 C 1,6 km/h (1 Bft)
30.05.2020 01:14 5,7 C 2,2 C 83 % 1025,3 hPa 0,0 l/m 0,0 km/h (0 Bft) NO 45 0 min 0,0 UV-I 0 W/m 3,0 C 5,7 C 1,6 km/h (1 Bft)
30.05.2020 01:15 5,6 C 2,2 C 83 % 1025,3 hPa 0,0 l/m 1,6 km/h (1 Bft) NO 45 0 min 0,0 UV-I 0 W/m 2,9 C 5,6 C 1,6 km/h (1 Bft)
30.05.2020 01:16 5,6 C 2,2 C 83 % 1025,4 hPa 0,0 l/m 1,6 km/h (1 Bft) NO 45 0 min 0,0 UV-I 0 W/m 2,9 C 5,6 C 3,2 km/h (1 Bft)
30.05.2020 01:17 5,6 C 2,2 C 83 % 1025,4 hPa 0,0 l/m 0,0 km/h (0 Bft) N 0 0 min 0,0 UV-I 0 W/m 2,9 C 5,6 C 0,0 km/h (0 Bft)
30.05.2020 01:18 5,6 C 1,7 C 83 % 1025,4 hPa 0,0 l/m 1,6 km/h (1 Bft) NO 45 0 min 0,0 UV-I 0 W/m 2,9 C 5,6 C 3,2 km/h (1 Bft)
30.05.2020 01:19 5,6 C 1,7 C 83 % 1025,3 hPa 0,0 l/m 1,6 km/h (1 Bft) NO 45 0 min 0,0 UV-I 0 W/m 2,9 C 5,6 C 1,6 km/h (1 Bft)
30.05.2020 01:20 5,6 C 1,7 C 84 % 1025,4 hPa 0,0 l/m 0,0 km/h (0 Bft) NO 45 0 min 0,0 UV-I 0 W/m 3,1 C 5,6 C 1,6 km/h (1 Bft)
30.05.2020 01:21 5,6 C 2,2 C 84 % 1025,4 hPa 0,0 l/m 1,6 km/h (1 Bft) NO 45 0 min 0,0 UV-I 0 W/m 3,1 C 5,6 C 3,2 km/h (1 Bft)
30.05.2020 01:22 5,6 C 2,2 C 84 % 1025,3 hPa 0,0 l/m 1,6 km/h (1 Bft) NO 45 0 min 0,0 UV-I 0 W/m 3,1 C 5,6 C 3,2 km/h (1 Bft)
30.05.2020 01:23 5,6 C 2,2 C 84 % 1025,3 hPa 0,0 l/m 0,0 km/h (0 Bft) NO 45 0 min 0,0 UV-I 0 W/m 3,1 C 5,6 C 1,6 km/h (1 Bft)
30.05.2020 01:24 5,6 C 2,2 C 84 % 1025,4 hPa 0,0 l/m 0,0 km/h (0 Bft) NO 45 0 min 0,0 UV-I 0 W/m 3,1 C 5,6 C 1,6 km/h (1 Bft)
30.05.2020 01:25 5,6 C 2,2 C 84 % 1025,4 hPa 0,0 l/m 0,0 km/h (0 Bft) N 0 0 min 0,0 UV-I 0 W/m 3,1 C 5,6 C 0,0 km/h (0 Bft)
30.05.2020 01:26 5,7 C 2,2 C 84 % 1025,3 hPa 0,0 l/m 0,0 km/h (0 Bft) N 0 0 min 0,0 UV-I 0 W/m 3,2 C 5,7 C 0,0 km/h (0 Bft)
30.05.2020 01:27 5,7 C 2,2 C 84 % 1025,3 hPa 0,0 l/m 0,0 km/h (0 Bft) N 0 0 min 0,0 UV-I 0 W/m 3,2 C 5,7 C 0,0 km/h (0 Bft)
30.05.2020 01:28 5,7 C 1,7 C 83 % 1025,3 hPa 0,0 l/m 0,0 km/h (0 Bft) N 0 0 min 0,0 UV-I 0 W/m 3,0 C 5,7 C 0,0 km/h (0 Bft)
30.05.2020 01:29 5,7 C 2,2 C 83 % 1025,4 hPa 0,0 l/m 0,0 km/h (0 Bft) N 0 0 min 0,0 UV-I 0 W/m 3,0 C 5,7 C 0,0 km/h (0 Bft)
30.05.2020 01:30 5,7 C 2,2 C 83 % 1025,5 hPa 0,0 l/m 0,0 km/h (0 Bft) N 0 0 min 0,0 UV-I 0 W/m 3,0 C 5,7 C 0,0 km/h (0 Bft)
30.05.2020 01:31 5,6 C 2,2 C 83 % 1025,5 hPa 0,0 l/m 0,0 km/h (0 Bft) N 0 0 min 0,0 UV-I 0 W/m 2,9 C 5,6 C 0,0 km/h (0 Bft)
30.05.2020 01:32 5,6 C 2,2 C 83 % 1025,5 hPa 0,0 l/m 0,0 km/h (0 Bft) N 0 0 min 0,0 UV-I 0 W/m 2,9 C 5,6 C 0,0 km/h (0 Bft)
30.05.2020 01:33 5,6 C 2,2 C 83 % 1025,4 hPa 0,0 l/m 0,0 km/h (0 Bft) N 0 0 min 0,0 UV-I 0 W/m 2,9 C 5,6 C 0,0 km/h (0 Bft)
30.05.2020 01:34 5,6 C 2,2 C 83 % 1025,4 hPa 0,0 l/m 0,0 km/h (0 Bft) N 0 0 min 0,0 UV-I 0 W/m 2,9 C 5,6 C 0,0 km/h (0 Bft)
30.05.2020 01:35 5,5 C 1,7 C 83 % 1025,5 hPa 0,0 l/m 0,0 km/h (0 Bft) NO 45 0 min 0,0 UV-I 0 W/m 2,8 C 5,5 C 1,6 km/h (1 Bft)
30.05.2020 01:36 5,5 C 1,7 C 83 % 1025,4 hPa 0,0 l/m 1,6 km/h (1 Bft) NO 45 0 min 0,0 UV-I 0 W/m 2,8 C 5,5 C 3,2 km/h (1 Bft)
30.05.2020 01:37 5,5 C 2,2 C 83 % 1025,4 hPa 0,0 l/m 1,6 km/h (1 Bft) NO 45 0 min 0,0 UV-I 0 W/m 2,8 C 5,5 C 1,6 km/h (1 Bft)
30.05.2020 01:38 5,5 C 2,2 C 83 % 1025,5 hPa 0,0 l/m 1,6 km/h (1 Bft) NO 45 0 min 0,0 UV-I 0 W/m 2,8 C 5,5 C 1,6 km/h (1 Bft)
30.05.2020 01:39 5,4 C 2,2 C 83 % 1025,5 hPa 0,0 l/m 0,0 km/h (0 Bft) NO 45 0 min 0,0 UV-I 0 W/m 2,7 C 5,4 C 1,6 km/h (1 Bft)
30.05.2020 01:40 5,3 C 2,2 C 84 % 1025,5 hPa 0,0 l/m 0,0 km/h (0 Bft) N 0 0 min 0,0 UV-I 0 W/m 2,8 C 5,3 C 0,0 km/h (0 Bft)
30.05.2020 01:41 5,4 C 1,7 C 84 % 1025,4 hPa 0,0 l/m 0,0 km/h (0 Bft) N 0 0 min 0,0 UV-I 0 W/m 2,9 C 5,4 C 0,0 km/h (0 Bft)
30.05.2020 01:42 5,3 C 1,7 C 84 % 1025,4 hPa 0,0 l/m 0,0 km/h (0 Bft) NO 45 0 min 0,0 UV-I 0 W/m 2,8 C 5,3 C 1,6 km/h (1 Bft)
30.05.2020 01:43 5,3 C 1,7 C 84 % 1025,4 hPa 0,0 l/m 0,0 km/h (0 Bft) N 0 0 min 0,0 UV-I 0 W/m 2,8 C 5,3 C 0,0 km/h (0 Bft)
30.05.2020 01:44 5,2 C 1,7 C 83 % 1025,4 hPa 0,0 l/m 0,0 km/h (0 Bft) N 0 0 min 0,0 UV-I 0 W/m 2,6 C 5,2 C 0,0 km/h (0 Bft)
30.05.2020 01:45 5,1 C 1,7 C 83 % 1025,4 hPa 0,0 l/m 0,0 km/h (0 Bft) N 0 0 min 0,0 UV-I 0 W/m 2,5 C 5,1 C 0,0 km/h (0 Bft)
30.05.2020 01:46 5,1 C 1,7 C 84 % 1025,4 hPa 0,0 l/m 0,0 km/h (0 Bft) N 0 0 min 0,0 UV-I 0 W/m 2,6 C 5,1 C 0,0 km/h (0 Bft)
30.05.2020 01:47 5,0 C 1,7 C 84 % 1025,4 hPa 0,0 l/m 0,0 km/h (0 Bft) N 0 0 min 0,0 UV-I 0 W/m 2,5 C 5,0 C 0,0 km/h (0 Bft)
30.05.2020 01:48 5,0 C 1,7 C 84 % 1025,3 hPa 0,0 l/m 0,0 km/h (0 Bft) NO 45 0 min 0,0 UV-I 0 W/m 2,5 C 5,0 C 1,6 km/h (1 Bft)
30.05.2020 01:49 5,0 C 2,2 C 84 % 1025,5 hPa 0,0 l/m 0,0 km/h (0 Bft) NO 45 0 min 0,0 UV-I 0 W/m 2,5 C 5,0 C 1,6 km/h (1 Bft)
30.05.2020 01:50 5,0 C 2,2 C 84 % 1025,4 hPa 0,0 l/m 1,6 km/h (1 Bft) NO 45 0 min 0,0 UV-I 0 W/m 2,5 C 5,0 C 3,2 km/h (1 Bft)
30.05.2020 01:51 5,1 C 2,2 C 84 % 1025,4 hPa 0,0 l/m 1,6 km/h (1 Bft) NO 45 0 min 0,0 UV-I 0 W/m 2,6 C 5,1 C 3,2 km/h (1 Bft)
30.05.2020 01:52 5,1 C 2,2 C 85 % 1025,4 hPa 0,0 l/m 1,6 km/h (1 Bft) NO 45 0 min 0,0 UV-I 0 W/m 2,8 C 5,1 C 3,2 km/h (1 Bft)
30.05.2020 01:53 5,2 C 2,2 C 85 % 1025,4 hPa 0,0 l/m 1,6 km/h (1 Bft) NO 45 0 min 0,0 UV-I 0 W/m 2,9 C 5,2 C 1,6 km/h (1 Bft)
30.05.2020 01:54 5,2 C 2,2 C 84 % 1025,4 hPa 0,0 l/m 0,0 km/h (0 Bft) NO 45 0 min 0,0 UV-I 0 W/m 2,7 C 5,2 C 1,6 km/h (1 Bft)
30.05.2020 01:55 5,3 C 2,2 C 84 % 1025,3 hPa 0,0 l/m 0,0 km/h (0 Bft) NO 45 0 min 0,0 UV-I 0 W/m 2,8 C 5,3 C 1,6 km/h (1 Bft)
30.05.2020 01:56 5,3 C 2,2 C 84 % 1025,4 hPa 0,0 l/m 0,0 km/h (0 Bft) N 0 0 min 0,0 UV-I 0 W/m 2,8 C 5,3 C 0,0 km/h (0 Bft)
30.05.2020 01:57 5,3 C 2,2 C 84 % 1025,4 hPa 0,0 l/m 0,0 km/h (0 Bft) N 0 0 min 0,0 UV-I 0 W/m 2,8 C 5,3 C 0,0 km/h (0 Bft)
30.05.2020 01:58 5,4 C 2,2 C 84 % 1025,3 hPa 0,0 l/m 0,0 km/h (0 Bft) N 0 0 min 0,0 UV-I 0 W/m 2,9 C 5,4 C 0,0 km/h (0 Bft)
30.05.2020 01:59 5,4 C 2,2 C 84 % 1025,4 hPa 0,0 l/m 0,0 km/h (0 Bft) N 0 0 min 0,0 UV-I 0 W/m 2,9 C 5,4 C 0,0 km/h (0 Bft)
30.05.2020 02:00 5,4 C 2,2 C 84 % 1025,5 hPa 0,0 l/m 0,0 km/h (0 Bft) NO 45 0 min 0,0 UV-I 0 W/m 2,9 C 5,4 C 1,6 km/h (1 Bft)
30.05.2020 02:01 5,3 C 2,2 C 84 % 1025,4 hPa 0,0 l/m 0,0 km/h (0 Bft) N 0 0 min 0,0 UV-I 0 W/m 2,8 C 5,3 C 0,0 km/h (0 Bft)
30.05.2020 02:02 5,3 C 1,7 C 84 % 1025,3 hPa 0,0 l/m 0,0 km/h (0 Bft) N 0 0 min 0,0 UV-I 0 W/m 2,8 C 5,3 C 0,0 km/h (0 Bft)
30.05.2020 02:03 5,3 C 1,7 C 85 % 1025,3 hPa 0,0 l/m 0,0 km/h (0 Bft) N 0 0 min 0,0 UV-I 0 W/m 3,0 C 5,3 C 0,0 km/h (0 Bft)
30.05.2020 02:04 5,2 C 1,7 C 84 % 1025,3 hPa 0,0 l/m 0,0 km/h (0 Bft) N 0 0 min 0,0 UV-I 0 W/m 2,7 C 5,2 C 0,0 km/h (0 Bft)
30.05.2020 02:05 5,1 C 1,7 C 84 % 1025,3 hPa 0,0 l/m 0,0 km/h (0 Bft) N 0 0 min 0,0 UV-I 0 W/m 2,6 C 5,1 C 0,0 km/h (0 Bft)
30.05.2020 02:06 5,0 C 1,1 C 83 % 1025,3 hPa 0,0 l/m 0,0 km/h (0 Bft) N 0 0 min 0,0 UV-I 0 W/m 2,4 C 5,0 C 0,0 km/h (0 Bft)
30.05.2020 02:07 4,9 C 1,7 C 84 % 1025,4 hPa 0,0 l/m 0,0 km/h (0 Bft) N 0 0 min 0,0 UV-I 0 W/m 2,4 C 4,9 C 0,0 km/h (0 Bft)
30.05.2020 02:08 4,8 C 1,1 C 84 % 1025,3 hPa 0,0 l/m 0,0 km/h (0 Bft) N 0 0 min 0,0 UV-I 0 W/m 2,3 C 4,8 C 0,0 km/h (0 Bft)
30.05.2020 02:09 4,7 C 1,7 C 84 % 1025,4 hPa 0,0 l/m 0,0 km/h (0 Bft) N 0 0 min 0,0 UV-I 0 W/m 2,2 C 4,7 C 0,0 km/h (0 Bft)
30.05.2020 02:10 4,7 C 1,7 C 84 % 1025,2 hPa 0,0 l/m 0,0 km/h (0 Bft) N 0 0 min 0,0 UV-I 0 W/m 2,2 C 4,7 C 0,0 km/h (0 Bft)
30.05.2020 02:11 4,7 C 1,1 C 85 % 1025,2 hPa 0,0 l/m 0,0 km/h (0 Bft) N 0 0 min 0,0 UV-I 0 W/m 2,4 C 4,7 C 0,0 km/h (0 Bft)
30.05.2020 02:12 4,7 C 1,1 C 85 % 1025,2 hPa 0,0 l/m 0,0 km/h (0 Bft) N 0 0 min 0,0 UV-I 0 W/m 2,4 C 4,7 C 0,0 km/h (0 Bft)
30.05.2020 02:13 4,7 C 1,1 C 85 % 1025,3 hPa 0,0 l/m 0,0 km/h (0 Bft) N 0 0 min 0,0 UV-I 0 W/m 2,4 C 4,7 C 0,0 km/h (0 Bft)
30.05.2020 02:14 4,7 C 1,1 C 85 % 1025,3 hPa 0,0 l/m 0,0 km/h (0 Bft) N 0 0 min 0,0 UV-I 0 W/m 2,4 C 4,7 C 0,0 km/h (0 Bft)
30.05.2020 02:15 4,8 C 1,1 C 85 % 1025,4 hPa 0,0 l/m 0,0 km/h (0 Bft) N 0 0 min 0,0 UV-I 0 W/m 2,5 C 4,8 C 0,0 km/h (0 Bft)
30.05.2020 02:16 4,7 C 1,1 C 85 % 1025,4 hPa 0,0 l/m 0,0 km/h (0 Bft) N 0 0 min 0,0 UV-I 0 W/m 2,4 C 4,7 C 0,0 km/h (0 Bft)
30.05.2020 02:17 4,7 C 1,1 C 85 % 1025,3 hPa 0,0 l/m 0,0 km/h (0 Bft) N 0 0 min 0,0 UV-I 0 W/m 2,4 C 4,7 C 0,0 km/h (0 Bft)
30.05.2020 02:18 4,8 C 1,1 C 85 % 1025,3 hPa 0,0 l/m 0,0 km/h (0 Bft) N 0 0 min 0,0 UV-I 0 W/m 2,5 C 4,8 C 0,0 km/h (0 Bft)
30.05.2020 02:19 4,7 C 1,1 C 85 % 1025,3 hPa 0,0 l/m 0,0 km/h (0 Bft) N 0 0 min 0,0 UV-I 0 W/m 2,4 C 4,7 C 0,0 km/h (0 Bft)
30.05.2020 02:20 4,7 C 1,1 C 85 % 1025,4 hPa 0,0 l/m 0,0 km/h (0 Bft) N 0 0 min 0,0 UV-I 0 W/m 2,4 C 4,7 C 0,0 km/h (0 Bft)
30.05.2020 02:21 4,7 C 1,1 C 85 % 1025,3 hPa 0,0 l/m 0,0 km/h (0 Bft) N 0 0 min 0,0 UV-I 0 W/m 2,4 C 4,7 C 0,0 km/h (0 Bft)
30.05.2020 02:22 4,8 C 1,1 C 85 % 1025,3 hPa 0,0 l/m 0,0 km/h (0 Bft) N 0 0 min 0,0 UV-I 0 W/m 2,5 C 4,8 C 0,0 km/h (0 Bft)
30.05.2020 02:23 4,8 C 1,1 C 85 % 1025,3 hPa 0,0 l/m 0,0 km/h (0 Bft) N 0 0 min 0,0 UV-I 0 W/m 2,5 C 4,8 C 0,0 km/h (0 Bft)
30.05.2020 02:24 4,8 C 1,1 C 85 % 1025,2 hPa 0,0 l/m 0,0 km/h (0 Bft) N 0 0 min 0,0 UV-I 0 W/m 2,5 C 4,8 C 0,0 km/h (0 Bft)
30.05.2020 02:25 4,9 C 1,1 C 85 % 1025,3 hPa 0,0 l/m 0,0 km/h (0 Bft) N 0 0 min 0,0 UV-I 0 W/m 2,6 C 4,9 C 0,0 km/h (0 Bft)
30.05.2020 02:26 4,9 C 1,1 C 85 % 1025,3 hPa 0,0 l/m 0,0 km/h (0 Bft) N 0 0 min 0,0 UV-I 0 W/m 2,6 C 4,9 C 0,0 km/h (0 Bft)
30.05.2020 02:27 4,9 C 1,1 C 85 % 1025,2 hPa 0,0 l/m 0,0 km/h (0 Bft) N 0 0 min 0,0 UV-I 0 W/m 2,6 C 4,9 C 0,0 km/h (0 Bft)
30.05.2020 02:28 4,9 C 1,1 C 85 % 1025,4 hPa 0,0 l/m 0,0 km/h (0 Bft) N 0 0 min 0,0 UV-I 0 W/m 2,6 C 4,9 C 0,0 km/h (0 Bft)
30.05.2020 02:29 4,9 C 1,1 C 85 % 1025,4 hPa 0,0 l/m 0,0 km/h (0 Bft) N 0 0 min 0,0 UV-I 0 W/m 2,6 C 4,9 C 0,0 km/h (0 Bft)
30.05.2020 02:30 4,9 C 1,1 C 85 % 1025,3 hPa 0,0 l/m 0,0 km/h (0 Bft) N 0 0 min 0,0 UV-I 0 W/m 2,6 C 4,9 C 0,0 km/h (0 Bft)
30.05.2020 02:31 5,0 C 1,1 C 85 % 1025,3 hPa 0,0 l/m 0,0 km/h (0 Bft) N 0 0 min 0,0 UV-I 0 W/m 2,7 C 5,0 C 0,0 km/h (0 Bft)
30.05.2020 02:32 4,9 C 1,1 C 85 % 1025,3 hPa 0,0 l/m 0,0 km/h (0 Bft) N 0 0 min 0,0 UV-I 0 W/m 2,6 C 4,9 C 0,0 km/h (0 Bft)
30.05.2020 02:33 5,0 C 1,1 C 85 % 1025,3 hPa 0,0 l/m 0,0 km/h (0 Bft) N 0 0 min 0,0 UV-I 0 W/m 2,7 C 5,0 C 0,0 km/h (0 Bft)
30.05.2020 02:34 5,0 C 1,1 C 85 % 1025,3 hPa 0,0 l/m 0,0 km/h (0 Bft) N 0 0 min 0,0 UV-I 0 W/m 2,7 C 5,0 C 0,0 km/h (0 Bft)
30.05.2020 02:35 5,1 C 1,1 C 85 % 1025,3 hPa 0,0 l/m 0,0 km/h (0 Bft) N 0 0 min 0,0 UV-I 0 W/m 2,8 C 5,1 C 0,0 km/h (0 Bft)
30.05.2020 02:36 5,1 C 1,1 C 85 % 1025,2 hPa 0,0 l/m 0,0 km/h (0 Bft) N 0 0 min 0,0 UV-I 0 W/m 2,8 C 5,1 C 0,0 km/h (0 Bft)
30.05.2020 02:37 5,1 C 1,1 C 85 % 1025,3 hPa 0,0 l/m 0,0 km/h (0 Bft) N 0 0 min 0,0 UV-I 0 W/m 2,8 C 5,1 C 0,0 km/h (0 Bft)
30.05.2020 02:38 5,1 C 1,1 C 85 % 1025,3 hPa 0,0 l/m 0,0 km/h (0 Bft) N 0 0 min 0,0 UV-I 0 W/m 2,8 C 5,1 C 0,0 km/h (0 Bft)
30.05.2020 02:39 5,0 C 1,1 C 84 % 1025,3 hPa 0,0 l/m 0,0 km/h (0 Bft) N 0 0 min 0,0 UV-I 0 W/m 2,5 C 5,0 C 0,0 km/h (0 Bft)
30.05.2020 02:40 4,9 C 1,1 C 84 % 1025,3 hPa 0,0 l/m 0,0 km/h (0 Bft) N 0 0 min 0,0 UV-I 0 W/m 2,4 C 4,9 C 0,0 km/h (0 Bft)
30.05.2020 02:41 4,8 C 1,1 C 84 % 1025,2 hPa 0,0 l/m 0,0 km/h (0 Bft) N 0 0 min 0,0 UV-I 0 W/m 2,3 C 4,8 C 0,0 km/h (0 Bft)
30.05.2020 02:42 4,7 C 1,1 C 84 % 1025,3 hPa 0,0 l/m 0,0 km/h (0 Bft) N 0 0 min 0,0 UV-I 0 W/m 2,2 C 4,7 C 0,0 km/h (0 Bft)
30.05.2020 02:43 4,6 C 1,1 C 84 % 1025,4 hPa 0,0 l/m 0,0 km/h (0 Bft) N 0 0 min 0,0 UV-I 0 W/m 2,1 C 4,6 C 0,0 km/h (0 Bft)
30.05.2020 02:44 4,6 C 1,1 C 85 % 1025,3 hPa 0,0 l/m 0,0 km/h (0 Bft) N 0 0 min 0,0 UV-I 0 W/m 2,3 C 4,6 C 0,0 km/h (0 Bft)
30.05.2020 02:45 4,5 C 1,1 C 85 % 1025,4 hPa 0,0 l/m 0,0 km/h (0 Bft) N 0 0 min 0,0 UV-I 0 W/m 2,2 C 4,5 C 0,0 km/h (0 Bft)
30.05.2020 02:46 4,5 C 1,1 C 86 % 1025,3 hPa 0,0 l/m 0,0 km/h (0 Bft) N 0 0 min 0,0 UV-I 0 W/m 2,4 C 4,5 C 0,0 km/h (0 Bft)
30.05.2020 02:47 4,5 C 1,1 C 86 % 1025,4 hPa 0,0 l/m 0,0 km/h (0 Bft) N 0 0 min 0,0 UV-I 0 W/m 2,4 C 4,5 C 0,0 km/h (0 Bft)
30.05.2020 02:48 4,5 C 1,1 C 86 % 1025,3 hPa 0,0 l/m 0,0 km/h (0 Bft) N 0 0 min 0,0 UV-I 0 W/m 2,4 C 4,5 C 0,0 km/h (0 Bft)
30.05.2020 02:49 4,6 C 1,1 C 86 % 1025,3 hPa 0,0 l/m 0,0 km/h (0 Bft) N 0 0 min 0,0 UV-I 0 W/m 2,5 C 4,6 C 0,0 km/h (0 Bft)
30.05.2020 02:50 4,6 C 1,1 C 86 % 1025,3 hPa 0,0 l/m 0,0 km/h (0 Bft) N 0 0 min 0,0 UV-I 0 W/m 2,5 C 4,6 C 0,0 km/h (0 Bft)
30.05.2020 02:51 4,6 C 1,1 C 86 % 1025,3 hPa 0,0 l/m 0,0 km/h (0 Bft) N 0 0 min 0,0 UV-I 0 W/m 2,5 C 4,6 C 0,0 km/h (0 Bft)
30.05.2020 02:52 4,7 C 1,1 C 86 % 1025,3 hPa 0,0 l/m 0,0 km/h (0 Bft) N 0 0 min 0,0 UV-I 0 W/m 2,6 C 4,7 C 0,0 km/h (0 Bft)
30.05.2020 02:53 4,7 C 0,6 C 86 % 1025,3 hPa 0,0 l/m 0,0 km/h (0 Bft) N 0 0 min 0,0 UV-I 0 W/m 2,6 C 4,7 C 0,0 km/h (0 Bft)
30.05.2020 02:54 4,7 C 0,6 C 85 % 1025,3 hPa 0,0 l/m 0,0 km/h (0 Bft) N 0 0 min 0,0 UV-I 0 W/m 2,4 C 4,7 C 0,0 km/h (0 Bft)
30.05.2020 02:55 4,7 C 1,1 C 85 % 1025,3 hPa 0,0 l/m 0,0 km/h (0 Bft) N 0 0 min 0,0 UV-I 0 W/m 2,4 C 4,7 C 0,0 km/h (0 Bft)
30.05.2020 02:56 4,7 C 1,1 C 85 % 1025,2 hPa 0,0 l/m 0,0 km/h (0 Bft) N 0 0 min 0,0 UV-I 0 W/m 2,4 C 4,7 C 0,0 km/h (0 Bft)
30.05.2020 02:57 4,8 C 1,1 C 85 % 1025,3 hPa 0,0 l/m 0,0 km/h (0 Bft) N 0 0 min 0,0 UV-I 0 W/m 2,5 C 4,8 C 0,0 km/h (0 Bft)
30.05.2020 02:58 4,8 C 0,6 C 85 % 1025,3 hPa 0,0 l/m 0,0 km/h (0 Bft) N 0 0 min 0,0 UV-I 0 W/m 2,5 C 4,8 C 0,0 km/h (0 Bft)
30.05.2020 02:59 4,7 C 0,6 C 84 % 1025,3 hPa 0,0 l/m 0,0 km/h (0 Bft) N 0 0 min 0,0 UV-I 0 W/m 2,2 C 4,7 C 0,0 km/h (0 Bft)
30.05.2020 03:00 4,4 C 0,6 C 84 % 1025,2 hPa 0,0 l/m 0,0 km/h (0 Bft) N 0 0 min 0,0 UV-I 0 W/m 1,9 C 4,4 C 0,0 km/h (0 Bft)
30.05.2020 03:01 4,3 C 0,6 C 84 % 1025,3 hPa 0,0 l/m 0,0 km/h (0 Bft) N 0 0 min 0,0 UV-I 0 W/m 1,8 C 4,3 C 0,0 km/h (0 Bft)
30.05.2020 03:02 4,3 C 0,6 C 85 % 1025,3 hPa 0,0 l/m 0,0 km/h (0 Bft) N 0 0 min 0,0 UV-I 0 W/m 2,0 C 4,3 C 0,0 km/h (0 Bft)
30.05.2020 03:03 4,3 C 0,6 C 86 % 1025,3 hPa 0,0 l/m 0,0 km/h (0 Bft) N 0 0 min 0,0 UV-I 0 W/m 2,2 C 4,3 C 0,0 km/h (0 Bft)
30.05.2020 03:04 4,3 C 0,6 C 86 % 1025,3 hPa 0,0 l/m 0,0 km/h (0 Bft) N 0 0 min 0,0 UV-I 0 W/m 2,2 C 4,3 C 0,0 km/h (0 Bft)
30.05.2020 03:05 4,3 C 0,6 C 86 % 1025,2 hPa 0,0 l/m 0,0 km/h (0 Bft) N 0 0 min 0,0 UV-I 0 W/m 2,2 C 4,3 C 0,0 km/h (0 Bft)
30.05.2020 03:06 4,3 C 0,6 C 86 % 1025,3 hPa 0,0 l/m 0,0 km/h (0 Bft) N 0 0 min 0,0 UV-I 0 W/m 2,2 C 4,3 C 0,0 km/h (0 Bft)
30.05.2020 03:07 4,3 C 0,6 C 86 % 1025,3 hPa 0,0 l/m 0,0 km/h (0 Bft) N 0 0 min 0,0 UV-I 0 W/m 2,2 C 4,3 C 0,0 km/h (0 Bft)
30.05.2020 03:08 4,3 C 0,6 C 86 % 1025,3 hPa 0,0 l/m 0,0 km/h (0 Bft) N 0 0 min 0,0 UV-I 0 W/m 2,2 C 4,3 C 0,0 km/h (0 Bft)
30.05.2020 03:09 4,3 C 0,6 C 86 % 1025,3 hPa 0,0 l/m 0,0 km/h (0 Bft) N 0 0 min 0,0 UV-I 0 W/m 2,2 C 4,3 C 0,0 km/h (0 Bft)
30.05.2020 03:10 4,4 C 0,6 C 86 % 1025,3 hPa 0,0 l/m 0,0 km/h (0 Bft) N 0 0 min 0,0 UV-I 0 W/m 2,3 C 4,4 C 0,0 km/h (0 Bft)
30.05.2020 03:11 4,4 C 0,6 C 86 % 1025,2 hPa 0,0 l/m 0,0 km/h (0 Bft) N 0 0 min 0,0 UV-I 0 W/m 2,3 C 4,4 C 0,0 km/h (0 Bft)
30.05.2020 03:12 4,4 C 1,1 C 86 % 1025,3 hPa 0,0 l/m 0,0 km/h (0 Bft) N 0 0 min 0,0 UV-I 0 W/m 2,3 C 4,4 C 0,0 km/h (0 Bft)
30.05.2020 03:13 4,4 C 0,6 C 86 % 1025,3 hPa 0,0 l/m 0,0 km/h (0 Bft) N 0 0 min 0,0 UV-I 0 W/m 2,3 C 4,4 C 0,0 km/h (0 Bft)
30.05.2020 03:14 4,4 C 1,1 C 85 % 1025,3 hPa 0,0 l/m 0,0 km/h (0 Bft) N 0 0 min 0,0 UV-I 0 W/m 2,1 C 4,4 C 0,0 km/h (0 Bft)
30.05.2020 03:15 4,4 C 1,1 C 85 % 1025,3 hPa 0,0 l/m 0,0 km/h (0 Bft) N 0 0 min 0,0 UV-I 0 W/m 2,1 C 4,4 C 0,0 km/h (0 Bft)
30.05.2020 03:16 4,4 C 1,1 C 85 % 1025,3 hPa 0,0 l/m 0,0 km/h (0 Bft) N 0 0 min 0,0 UV-I 0 W/m 2,1 C 4,4 C 0,0 km/h (0 Bft)
30.05.2020 03:17 4,4 C 1,1 C 85 % 1025,3 hPa 0,0 l/m 0,0 km/h (0 Bft) N 0 0 min 0,0 UV-I 0 W/m 2,1 C 4,4 C 0,0 km/h (0 Bft)
30.05.2020 03:18 4,4 C 0,6 C 85 % 1025,3 hPa 0,0 l/m 0,0 km/h (0 Bft) N 0 0 min 0,0 UV-I 0 W/m 2,1 C 4,4 C 0,0 km/h (0 Bft)
30.05.2020 03:19 4,3 C 1,1 C 85 % 1025,2 hPa 0,0 l/m 0,0 km/h (0 Bft) N 0 0 min 0,0 UV-I 0 W/m 2,0 C 4,3 C 0,0 km/h (0 Bft)
30.05.2020 03:20 4,3 C 1,1 C 84 % 1025,3 hPa 0,0 l/m 0,0 km/h (0 Bft) N 0 0 min 0,0 UV-I 0 W/m 1,8 C 4,3 C 0,0 km/h (0 Bft)
30.05.2020 03:21 4,1 C 1,1 C 84 % 1025,3 hPa 0,0 l/m 0,0 km/h (0 Bft) N 0 0 min 0,0 UV-I 0 W/m 1,6 C 4,1 C 0,0 km/h (0 Bft)
30.05.2020 03:22 3,9 C 1,1 C 84 % 1025,3 hPa 0,0 l/m 0,0 km/h (0 Bft) N 0 0 min 0,0 UV-I 0 W/m 1,4 C 3,9 C 0,0 km/h (0 Bft)
30.05.2020 03:23 3,8 C 1,1 C 85 % 1025,3 hPa 0,0 l/m 0,0 km/h (0 Bft) N 0 0 min 0,0 UV-I 0 W/m 1,5 C 3,8 C 0,0 km/h (0 Bft)
30.05.2020 03:24 3,8 C 1,1 C 85 % 1025,3 hPa 0,0 l/m 0,0 km/h (0 Bft) N 0 0 min 0,0 UV-I 0 W/m 1,5 C 3,8 C 0,0 km/h (0 Bft)
30.05.2020 03:25 3,8 C 1,1 C 86 % 1025,4 hPa 0,0 l/m 0,0 km/h (0 Bft) N 0 0 min 0,0 UV-I 0 W/m 1,7 C 3,8 C 0,0 km/h (0 Bft)
30.05.2020 03:26 3,8 C 1,1 C 86 % 1025,2 hPa 0,0 l/m 0,0 km/h (0 Bft) N 0 0 min 0,0 UV-I 0 W/m 1,7 C 3,8 C 0,0 km/h (0 Bft)
30.05.2020 03:27 3,9 C 1,1 C 86 % 1025,3 hPa 0,0 l/m 0,0 km/h (0 Bft) N 0 0 min 0,0 UV-I 0 W/m 1,8 C 3,9 C 0,0 km/h (0 Bft)
30.05.2020 03:28 3,9 C 1,1 C 86 % 1025,3 hPa 0,0 l/m 0,0 km/h (0 Bft) N 0 0 min 0,0 UV-I 0 W/m 1,8 C 3,9 C 0,0 km/h (0 Bft)
30.05.2020 03:29 4,1 C 1,1 C 86 % 1025,3 hPa 0,0 l/m 0,0 km/h (0 Bft) N 0 0 min 0,0 UV-I 0 W/m 2,0 C 4,1 C 0,0 km/h (0 Bft)
30.05.2020 03:30 4,1 C 0,6 C 86 % 1025,3 hPa 0,0 l/m 0,0 km/h (0 Bft) N 0 0 min 0,0 UV-I 0 W/m 2,0 C 4,1 C 0,0 km/h (0 Bft)
30.05.2020 03:31 4,2 C 0,6 C 86 % 1025,3 hPa 0,0 l/m 0,0 km/h (0 Bft) N 0 0 min 0,0 UV-I 0 W/m 2,1 C 4,2 C 0,0 km/h (0 Bft)
30.05.2020 03:32 4,2 C 0,6 C 86 % 1025,3 hPa 0,0 l/m 0,0 km/h (0 Bft) N 0 0 min 0,0 UV-I 0 W/m 2,1 C 4,2 C 0,0 km/h (0 Bft)
30.05.2020 03:33 4,2 C 0,6 C 86 % 1025,3 hPa 0,0 l/m 0,0 km/h (0 Bft) N 0 0 min 0,0 UV-I 0 W/m 2,1 C 4,2 C 0,0 km/h (0 Bft)
30.05.2020 03:34 4,2 C 0,6 C 86 % 1025,3 hPa 0,0 l/m 0,0 km/h (0 Bft) N 0 0 min 0,0 UV-I 0 W/m 2,1 C 4,2 C 0,0 km/h (0 Bft)
30.05.2020 03:35 4,2 C 0,6 C 86 % 1025,3 hPa 0,0 l/m 0,0 km/h (0 Bft) N 0 0 min 0,0 UV-I 0 W/m 2,1 C 4,2 C 0,0 km/h (0 Bft)
30.05.2020 03:36 4,2 C 0,6 C 86 % 1025,2 hPa 0,0 l/m 0,0 km/h (0 Bft) N 0 0 min 0,0 UV-I 0 W/m 2,1 C 4,2 C 0,0 km/h (0 Bft)
30.05.2020 03:37 4,1 C 0,6 C 86 % 1025,3 hPa 0,0 l/m 0,0 km/h (0 Bft) N 0 0 min 0,0 UV-I 0 W/m 2,0 C 4,1 C 0,0 km/h (0 Bft)
30.05.2020 03:38 4,1 C 0,6 C 86 % 1025,2 hPa 0,0 l/m 0,0 km/h (0 Bft) N 0 0 min 0,0 UV-I 0 W/m 2,0 C 4,1 C 0,0 km/h (0 Bft)
30.05.2020 03:39 4,1 C 0,6 C 86 % 1025,3 hPa 0,0 l/m 0,0 km/h (0 Bft) N 0 0 min 0,0 UV-I 0 W/m 2,0 C 4,1 C 0,0 km/h (0 Bft)
30.05.2020 03:40 4,1 C 0,6 C 86 % 1025,3 hPa 0,0 l/m 0,0 km/h (0 Bft) N 0 0 min 0,0 UV-I 0 W/m 2,0 C 4,1 C 0,0 km/h (0 Bft)
30.05.2020 03:41 4,1 C 0,6 C 86 % 1025,3 hPa 0,0 l/m 0,0 km/h (0 Bft) N 0 0 min 0,0 UV-I 0 W/m 2,0 C 4,1 C 0,0 km/h (0 Bft)
30.05.2020 03:42 4,1 C 0,6 C 86 % 1025,3 hPa 0,0 l/m 0,0 km/h (0 Bft) N 0 0 min 0,0 UV-I 0 W/m 2,0 C 4,1 C 0,0 km/h (0 Bft)
30.05.2020 03:43 4,1 C 0,6 C 86 % 1025,3 hPa 0,0 l/m 0,0 km/h (0 Bft) N 0 0 min 0,0 UV-I 0 W/m 2,0 C 4,1 C 0,0 km/h (0 Bft)
30.05.2020 03:44 4,1 C 0,6 C 86 % 1025,3 hPa 0,0 l/m 0,0 km/h (0 Bft) N 0 0 min 0,0 UV-I 0 W/m 2,0 C 4,1 C 0,0 km/h (0 Bft)
30.05.2020 03:45 4,1 C 0,0 C 86 % 1025,2 hPa 0,0 l/m 0,0 km/h (0 Bft) N 0 0 min 0,0 UV-I 0 W/m 2,0 C 4,1 C 0,0 km/h (0 Bft)
30.05.2020 03:46 4,1 C 0,6 C 86 % 1025,3 hPa 0,0 l/m 0,0 km/h (0 Bft) N 0 0 min 0,0 UV-I 0 W/m 2,0 C 4,1 C 0,0 km/h (0 Bft)
30.05.2020 03:47 4,1 C 0,6 C 86 % 1025,3 hPa 0,0 l/m 0,0 km/h (0 Bft) N 0 0 min 0,0 UV-I 0 W/m 2,0 C 4,1 C 0,0 km/h (0 Bft)
30.05.2020 03:48 4,1 C 0,6 C 86 % 1025,2 hPa 0,0 l/m 0,0 km/h (0 Bft) N 0 0 min 0,0 UV-I 0 W/m 2,0 C 4,1 C 0,0 km/h (0 Bft)
30.05.2020 03:49 4,1 C 0,6 C 85 % 1025,3 hPa 0,0 l/m 0,0 km/h (0 Bft) N 0 0 min 0,0 UV-I 0 W/m 1,8 C 4,1 C 0,0 km/h (0 Bft)
30.05.2020 03:50 4,0 C 0,6 C 85 % 1025,2 hPa 0,0 l/m 0,0 km/h (0 Bft) N 0 0 min 0,0 UV-I 0 W/m 1,7 C 4,0 C 0,0 km/h (0 Bft)
30.05.2020 03:51 3,9 C 0,6 C 85 % 1025,2 hPa 0,0 l/m 0,0 km/h (0 Bft) N 0 0 min 0,0 UV-I 0 W/m 1,6 C 3,9 C 0,0 km/h (0 Bft)
30.05.2020 03:52 3,8 C 0,6 C 86 % 1025,2 hPa 0,0 l/m 0,0 km/h (0 Bft) NO 45 0 min 0,0 UV-I 0 W/m 1,7 C 3,8 C 1,6 km/h (1 Bft)
30.05.2020 03:53 3,8 C 0,0 C 86 % 1025,2 hPa 0,0 l/m 0,0 km/h (0 Bft) N 0 0 min 0,0 UV-I 0 W/m 1,7 C 3,8 C 0,0 km/h (0 Bft)
30.05.2020 03:54 3,8 C 0,0 C 86 % 1025,2 hPa 0,0 l/m 0,0 km/h (0 Bft) N 0 0 min 0,0 UV-I 0 W/m 1,7 C 3,8 C 0,0 km/h (0 Bft)
30.05.2020 03:55 3,7 C 0,0 C 86 % 1025,2 hPa 0,0 l/m 0,0 km/h (0 Bft) N 0 0 min 0,0 UV-I 0 W/m 1,6 C 3,7 C 0,0 km/h (0 Bft)
30.05.2020 03:56 3,7 C 0,0 C 86 % 1025,1 hPa 0,0 l/m 0,0 km/h (0 Bft) N 0 0 min 0,0 UV-I 0 W/m 1,6 C 3,7 C 0,0 km/h (0 Bft)
30.05.2020 03:57 3,6 C 0,0 C 86 % 1025,1 hPa 0,0 l/m 0,0 km/h (0 Bft) N 0 0 min 0,0 UV-I 0 W/m 1,5 C 3,6 C 0,0 km/h (0 Bft)
30.05.2020 03:58 3,5 C 0,0 C 86 % 1025,2 hPa 0,0 l/m 0,0 km/h (0 Bft) N 0 0 min 0,0 UV-I 0 W/m 1,4 C 3,5 C 0,0 km/h (0 Bft)
30.05.2020 03:59 3,4 C 0,0 C 86 % 1025,2 hPa 0,0 l/m 0,0 km/h (0 Bft) N 0 0 min 0,0 UV-I 0 W/m 1,3 C 3,4 C 0,0 km/h (0 Bft)
30.05.2020 04:00 3,4 C 0,0 C 87 % 1025,2 hPa 0,0 l/m 0,0 km/h (0 Bft) NO 45 0 min 0,0 UV-I 0 W/m 1,4 C 3,4 C 1,6 km/h (1 Bft)
30.05.2020 04:01 3,4 C 0,0 C 87 % 1025,2 hPa 0,0 l/m 0,0 km/h (0 Bft) NO 45 0 min 0,0 UV-I 0 W/m 1,4 C 3,4 C 1,6 km/h (1 Bft)
30.05.2020 04:02 3,4 C 0,0 C 87 % 1025,2 hPa 0,0 l/m 0,0 km/h (0 Bft) N 0 0 min 0,0 UV-I 0 W/m 1,4 C 3,4 C 0,0 km/h (0 Bft)
30.05.2020 04:03 3,4 C 0,0 C 87 % 1025,2 hPa 0,0 l/m 0,0 km/h (0 Bft) N 0 0 min 0,0 UV-I 0 W/m 1,4 C 3,4 C 0,0 km/h (0 Bft)
30.05.2020 04:04 3,4 C 0,0 C 88 % 1025,2 hPa 0,0 l/m 0,0 km/h (0 Bft) N 0 0 min 0,0 UV-I 0 W/m 1,6 C 3,4 C 0,0 km/h (0 Bft)
30.05.2020 04:05 3,5 C 0,0 C 88 % 1025,2 hPa 0,0 l/m 0,0 km/h (0 Bft) N 0 0 min 0,0 UV-I 0 W/m 1,7 C 3,5 C 0,0 km/h (0 Bft)
30.05.2020 04:06 3,6 C 0,0 C 87 % 1025,1 hPa 0,0 l/m 0,0 km/h (0 Bft) N 0 0 min 0,0 UV-I 0 W/m 1,6 C 3,6 C 0,0 km/h (0 Bft)
30.05.2020 04:07 3,6 C 0,0 C 88 % 1025,1 hPa 0,0 l/m 0,0 km/h (0 Bft) NO 45 0 min 0,0 UV-I 0 W/m 1,8 C 3,6 C 1,6 km/h (1 Bft)
30.05.2020 04:08 3,4 C 0,0 C 87 % 1025,1 hPa 0,0 l/m 1,6 km/h (1 Bft) NO 45 0 min 0,0 UV-I 0 W/m 1,4 C 3,4 C 1,6 km/h (1 Bft)
30.05.2020 04:09 3,4 C 0,0 C 87 % 1025,1 hPa 0,0 l/m 1,6 km/h (1 Bft) NO 45 0 min 0,0 UV-I 0 W/m 1,4 C 3,4 C 1,6 km/h (1 Bft)
30.05.2020 04:10 3,3 C 0,0 C 87 % 1025,1 hPa 0,0 l/m 0,0 km/h (0 Bft) NO 45 0 min 0,0 UV-I 0 W/m 1,3 C 3,3 C 1,6 km/h (1 Bft)
30.05.2020 04:11 3,2 C 0,0 C 87 % 1025,2 hPa 0,0 l/m 0,0 km/h (0 Bft) N 0 0 min 0,0 UV-I 0 W/m 1,2 C 3,2 C 0,0 km/h (0 Bft)
30.05.2020 04:12 3,3 C 0,0 C 88 % 1025,1 hPa 0,0 l/m 0,0 km/h (0 Bft) NO 45 0 min 0,0 UV-I 0 W/m 1,5 C 3,3 C 1,6 km/h (1 Bft)
30.05.2020 04:13 3,3 C 0,0 C 88 % 1025,1 hPa 0,0 l/m 0,0 km/h (0 Bft) N 0 0 min 0,0 UV-I 0 W/m 1,5 C 3,3 C 0,0 km/h (0 Bft)
30.05.2020 04:14 3,3 C 0,0 C 88 % 1025,1 hPa 0,0 l/m 0,0 km/h (0 Bft) NO 45 0 min 0,0 UV-I 0 W/m 1,5 C 3,3 C 1,6 km/h (1 Bft)
30.05.2020 04:15 3,3 C 0,0 C 88 % 1025,1 hPa 0,0 l/m 1,6 km/h (1 Bft) NO 45 0 min 0,0 UV-I 0 W/m 1,5 C 3,3 C 1,6 km/h (1 Bft)
30.05.2020 04:16 3,3 C 0,0 C 87 % 1025,1 hPa 0,0 l/m 1,6 km/h (1 Bft) NO 45 0 min 0,0 UV-I 0 W/m 1,3 C 3,3 C 1,6 km/h (1 Bft)
30.05.2020 04:17 3,3 C 0,0 C 87 % 1025,1 hPa 0,0 l/m 0,0 km/h (0 Bft) NO 45 0 min 0,0 UV-I 0 W/m 1,3 C 3,3 C 1,6 km/h (1 Bft)
30.05.2020 04:18 3,3 C 0,6 C 88 % 1025,1 hPa 0,0 l/m 0,0 km/h (0 Bft) N 0 0 min 0,0 UV-I 0 W/m 1,5 C 3,3 C 0,0 km/h (0 Bft)
30.05.2020 04:19 3,3 C 0,6 C 87 % 1025,1 hPa 0,0 l/m 0,0 km/h (0 Bft) N 0 0 min 0,0 UV-I 0 W/m 1,3 C 3,3 C 0,0 km/h (0 Bft)
30.05.2020 04:20 3,3 C 0,6 C 87 % 1025,1 hPa 0,0 l/m 0,0 km/h (0 Bft) N 0 0 min 0,0 UV-I 0 W/m 1,3 C 3,3 C 0,0 km/h (0 Bft)
30.05.2020 04:21 3,3 C 0,6 C 87 % 1025,1 hPa 0,0 l/m 0,0 km/h (0 Bft) NO 45 0 min 0,0 UV-I 0 W/m 1,3 C 3,3 C 1,6 km/h (1 Bft)
30.05.2020 04:22 3,3 C 0,0 C 87 % 1025,1 hPa 0,0 l/m 0,0 km/h (0 Bft) N 0 0 min 0,0 UV-I 0 W/m 1,3 C 3,3 C 0,0 km/h (0 Bft)
30.05.2020 04:23 3,2 C 0,0 C 88 % 1025,1 hPa 0,0 l/m 0,0 km/h (0 Bft) N 0 0 min 0,0 UV-I 0 W/m 1,4 C 3,2 C 0,0 km/h (0 Bft)
30.05.2020 04:24 3,3 C 0,0 C 88 % 1025,1 hPa 0,0 l/m 0,0 km/h (0 Bft) N 0 0 min 0,0 UV-I 0 W/m 1,5 C 3,3 C 0,0 km/h (0 Bft)
30.05.2020 04:25 3,3 C 0,0 C 88 % 1025,1 hPa 0,0 l/m 0,0 km/h (0 Bft) N 0 0 min 0,0 UV-I 0 W/m 1,5 C 3,3 C 0,0 km/h (0 Bft)
30.05.2020 04:26 3,3 C 0,0 C 87 % 1025,1 hPa 0,0 l/m 0,0 km/h (0 Bft) N 0 0 min 0,0 UV-I 0 W/m 1,3 C 3,3 C 0,0 km/h (0 Bft)
30.05.2020 04:27 3,3 C 0,0 C 87 % 1025,0 hPa 0,0 l/m 0,0 km/h (0 Bft) N 0 0 min 0,0 UV-I 0 W/m 1,3 C 3,3 C 0,0 km/h (0 Bft)
30.05.2020 04:28 3,3 C 0,0 C 87 % 1025,1 hPa 0,0 l/m 0,0 km/h (0 Bft) N 0 0 min 0,0 UV-I 0 W/m 1,3 C 3,3 C 0,0 km/h (0 Bft)
30.05.2020 04:29 3,3 C 0,0 C 87 % 1025,1 hPa 0,0 l/m 0,0 km/h (0 Bft) N 0 0 min 0,0 UV-I 0 W/m 1,3 C 3,3 C 0,0 km/h (0 Bft)
30.05.2020 04:30 3,2 C 0,0 C 87 % 1025,1 hPa 0,0 l/m 0,0 km/h (0 Bft) N 0 0 min 0,0 UV-I 0 W/m 1,2 C 3,2 C 0,0 km/h (0 Bft)
30.05.2020 04:31 3,3 C 0,0 C 87 % 1025,1 hPa 0,0 l/m 0,0 km/h (0 Bft) N 0 0 min 0,0 UV-I 0 W/m 1,3 C 3,3 C 0,0 km/h (0 Bft)
30.05.2020 04:32 3,3 C 0,0 C 87 % 1025,0 hPa 0,0 l/m 0,0 km/h (0 Bft) N 0 0 min 0,0 UV-I 0 W/m 1,3 C 3,3 C 0,0 km/h (0 Bft)
30.05.2020 04:33 3,3 C 0,0 C 87 % 1025,0 hPa 0,0 l/m 0,0 km/h (0 Bft) N 0 0 min 0,0 UV-I 0 W/m 1,3 C 3,3 C 0,0 km/h (0 Bft)
30.05.2020 04:34 3,3 C 0,0 C 87 % 1025,0 hPa 0,0 l/m 0,0 km/h (0 Bft) N 0 0 min 0,0 UV-I 0 W/m 1,3 C 3,3 C 0,0 km/h (0 Bft)
30.05.2020 04:35 3,3 C 0,0 C 87 % 1025,0 hPa 0,0 l/m 0,0 km/h (0 Bft) N 0 0 min 0,0 UV-I 0 W/m 1,3 C 3,3 C 0,0 km/h (0 Bft)
30.05.2020 04:36 3,3 C 0,0 C 87 % 1025,1 hPa 0,0 l/m 0,0 km/h (0 Bft) N 0 0 min 0,0 UV-I 0 W/m 1,3 C 3,3 C 0,0 km/h (0 Bft)
30.05.2020 04:37 3,3 C 0,0 C 87 % 1025,1 hPa 0,0 l/m 0,0 km/h (0 Bft) N 0 0 min 0,0 UV-I 0 W/m 1,3 C 3,3 C 0,0 km/h (0 Bft)
30.05.2020 04:38 3,3 C 0,0 C 87 % 1025,0 hPa 0,0 l/m 0,0 km/h (0 Bft) N 0 0 min 0,0 UV-I 0 W/m 1,3 C 3,3 C 0,0 km/h (0 Bft)
30.05.2020 04:39 3,3 C 0,0 C 87 % 1025,1 hPa 0,0 l/m 0,0 km/h (0 Bft) N 0 0 min 0,0 UV-I 0 W/m 1,3 C 3,3 C 0,0 km/h (0 Bft)
30.05.2020 04:40 3,3 C 0,0 C 87 % 1025,0 hPa 0,0 l/m 0,0 km/h (0 Bft) N 0 0 min 0,0 UV-I 0 W/m 1,3 C 3,3 C 0,0 km/h (0 Bft)
30.05.2020 04:41 3,3 C 0,0 C 87 % 1025,1 hPa 0,0 l/m 0,0 km/h (0 Bft) N 0 0 min 0,0 UV-I 0 W/m 1,3 C 3,3 C 0,0 km/h (0 Bft)
30.05.2020 04:42 3,3 C 0,0 C 87 % 1025,0 hPa 0,0 l/m 0,0 km/h (0 Bft) N 0 0 min 0,0 UV-I 0 W/m 1,3 C 3,3 C 0,0 km/h (0 Bft)
30.05.2020 04:43 3,3 C 0,0 C 87 % 1025,1 hPa 0,0 l/m 0,0 km/h (0 Bft) N 0 0 min 0,0 UV-I 0 W/m 1,3 C 3,3 C 0,0 km/h (0 Bft)
30.05.2020 04:44 3,2 C 0,0 C 87 % 1025,1 hPa 0,0 l/m 0,0 km/h (0 Bft) N 0 0 min 0,0 UV-I 0 W/m 1,2 C 3,2 C 0,0 km/h (0 Bft)
30.05.2020 04:45 3,2 C 0,0 C 87 % 1025,1 hPa 0,0 l/m 0,0 km/h (0 Bft) N 0 0 min 0,0 UV-I 0 W/m 1,2 C 3,2 C 0,0 km/h (0 Bft)
30.05.2020 04:46 3,3 C 0,0 C 87 % 1025,1 hPa 0,0 l/m 0,0 km/h (0 Bft) N 0 0 min 0,0 UV-I 0 W/m 1,3 C 3,3 C 0,0 km/h (0 Bft)
30.05.2020 04:47 3,3 C 0,0 C 87 % 1025,0 hPa 0,0 l/m 0,0 km/h (0 Bft) N 0 0 min 0,0 UV-I 0 W/m 1,3 C 3,3 C 0,0 km/h (0 Bft)
30.05.2020 04:48 3,2 C 0,0 C 87 % 1025,0 hPa 0,0 l/m 0,0 km/h (0 Bft) N 0 0 min 0,0 UV-I 0 W/m 1,2 C 3,2 C 0,0 km/h (0 Bft)
30.05.2020 04:49 3,3 C 0,0 C 87 % 1025,1 hPa 0,0 l/m 0,0 km/h (0 Bft) N 0 0 min 0,0 UV-I 0 W/m 1,3 C 3,3 C 0,0 km/h (0 Bft)
30.05.2020 04:50 3,3 C 0,0 C 87 % 1025,0 hPa 0,0 l/m 0,0 km/h (0 Bft) N 0 0 min 0,0 UV-I 0 W/m 1,3 C 3,3 C 0,0 km/h (0 Bft)
30.05.2020 04:51 3,3 C 0,0 C 87 % 1025,0 hPa 0,0 l/m 0,0 km/h (0 Bft) N 0 0 min 0,0 UV-I 0 W/m 1,3 C 3,3 C 0,0 km/h (0 Bft)
30.05.2020 04:52 3,3 C 0,0 C 87 % 1025,1 hPa 0,0 l/m 0,0 km/h (0 Bft) N 0 0 min 0,0 UV-I 0 W/m 1,3 C 3,3 C 0,0 km/h (0 Bft)
30.05.2020 04:53 3,4 C 0,0 C 87 % 1025,1 hPa 0,0 l/m 0,0 km/h (0 Bft) N 0 0 min 0,0 UV-I 0 W/m 1,4 C 3,4 C 0,0 km/h (0 Bft)
30.05.2020 04:54 3,4 C 0,0 C 87 % 1025,0 hPa 0,0 l/m 0,0 km/h (0 Bft) N 0 0 min 0,0 UV-I 0 W/m 1,4 C 3,4 C 0,0 km/h (0 Bft)
30.05.2020 04:55 3,4 C 0,0 C 87 % 1025,1 hPa 0,0 l/m 0,0 km/h (0 Bft) N 0 0 min 0,0 UV-I 0 W/m 1,4 C 3,4 C 0,0 km/h (0 Bft)
30.05.2020 04:56 3,4 C 0,0 C 86 % 1025,0 hPa 0,0 l/m 0,0 km/h (0 Bft) N 0 0 min 0,0 UV-I 0 W/m 1,3 C 3,4 C 0,0 km/h (0 Bft)
30.05.2020 04:57 3,3 C 0,0 C 86 % 1025,1 hPa 0,0 l/m 0,0 km/h (0 Bft) N 0 0 min 0,0 UV-I 0 W/m 1,2 C 3,3 C 0,0 km/h (0 Bft)
30.05.2020 04:58 3,3 C 0,0 C 86 % 1025,1 hPa 0,0 l/m 0,0 km/h (0 Bft) N 0 0 min 0,0 UV-I 0 W/m 1,2 C 3,3 C 0,0 km/h (0 Bft)
30.05.2020 04:59 3,3 C 0,0 C 87 % 1025,1 hPa 0,0 l/m 0,0 km/h (0 Bft) N 0 0 min 0,0 UV-I 0 W/m 1,3 C 3,3 C 0,0 km/h (0 Bft)
30.05.2020 05:00 3,3 C 0,0 C 87 % 1025,1 hPa 0,0 l/m 0,0 km/h (0 Bft) N 0 0 min 0,0 UV-I 0 W/m 1,3 C 3,3 C 0,0 km/h (0 Bft)
30.05.2020 05:01 3,3 C 0,0 C 86 % 1025,1 hPa 0,0 l/m 0,0 km/h (0 Bft) N 0 0 min 0,0 UV-I 0 W/m 1,2 C 3,3 C 0,0 km/h (0 Bft)
30.05.2020 05:02 3,2 C 0,0 C 86 % 1025,0 hPa 0,0 l/m 0,0 km/h (0 Bft) N 0 0 min 0,0 UV-I 0 W/m 1,1 C 3,2 C 0,0 km/h (0 Bft)
30.05.2020 05:03 3,2 C 0,0 C 87 % 1025,1 hPa 0,0 l/m 0,0 km/h (0 Bft) N 0 0 min 0,0 UV-I 0 W/m 1,2 C 3,2 C 0,0 km/h (0 Bft)
30.05.2020 05:04 3,1 C 0,0 C 87 % 1025,1 hPa 0,0 l/m 0,0 km/h (0 Bft) N 0 0 min 0,0 UV-I 0 W/m 1,2 C 3,1 C 0,0 km/h (0 Bft)
30.05.2020 05:05 3,1 C 0,0 C 87 % 1025,0 hPa 0,0 l/m 0,0 km/h (0 Bft) N 0 0 min 0,0 UV-I 0 W/m 1,2 C 3,1 C 0,0 km/h (0 Bft)
30.05.2020 05:06 3,1 C 0,0 C 87 % 1025,0 hPa 0,0 l/m 0,0 km/h (0 Bft) N 0 0 min 0,0 UV-I 0 W/m 1,2 C 3,1 C 0,0 km/h (0 Bft)
30.05.2020 05:07 3,0 C -0,6 C 87 % 1025,0 hPa 0,0 l/m 0,0 km/h (0 Bft) N 0 0 min 0,0 UV-I 0 W/m 1,1 C 3,0 C 0,0 km/h (0 Bft)
30.05.2020 05:08 2,9 C 0,0 C 87 % 1025,1 hPa 0,0 l/m 0,0 km/h (0 Bft) N 0 0 min 0,0 UV-I 0 W/m 1,0 C 2,9 C 0,0 km/h (0 Bft)
30.05.2020 05:09 2,9 C 0,0 C 87 % 1025,0 hPa 0,0 l/m 0,0 km/h (0 Bft) N 0 0 min 0,0 UV-I 0 W/m 1,0 C 2,9 C 0,0 km/h (0 Bft)
30.05.2020 05:10 2,8 C 0,0 C 87 % 1025,0 hPa 0,0 l/m 0,0 km/h (0 Bft) N 0 0 min 0,0 UV-I 0 W/m 0,9 C 2,8 C 0,0 km/h (0 Bft)
30.05.2020 05:11 2,8 C -0,6 C 87 % 1025,0 hPa 0,0 l/m 0,0 km/h (0 Bft) N 0 0 min 0,0 UV-I 0 W/m 0,9 C 2,8 C 0,0 km/h (0 Bft)
30.05.2020 05:12 2,8 C -0,6 C 87 % 1025,0 hPa 0,0 l/m 0,0 km/h (0 Bft) N 0 0 min 0,0 UV-I 0 W/m 0,9 C 2,8 C 0,0 km/h (0 Bft)
30.05.2020 05:13 2,7 C -0,6 C 87 % 1025,0 hPa 0,0 l/m 0,0 km/h (0 Bft) N 0 0 min 0,0 UV-I 0 W/m 0,8 C 2,7 C 0,0 km/h (0 Bft)
30.05.2020 05:14 2,7 C -0,6 C 87 % 1025,0 hPa 0,0 l/m 0,0 km/h (0 Bft) N 0 0 min 0,0 UV-I 0 W/m 0,8 C 2,7 C 0,0 km/h (0 Bft)
30.05.2020 05:15 2,7 C -0,6 C 87 % 1025,1 hPa 0,0 l/m 0,0 km/h (0 Bft) N 0 0 min 0,0 UV-I 0 W/m 0,8 C 2,7 C 0,0 km/h (0 Bft)
30.05.2020 05:16 2,7 C -0,6 C 87 % 1025,0 hPa 0,0 l/m 0,0 km/h (0 Bft) N 0 0 min 0,0 UV-I 0 W/m 0,8 C 2,7 C 0,0 km/h (0 Bft)
30.05.2020 05:17 2,7 C -0,6 C 87 % 1025,1 hPa 0,0 l/m 0,0 km/h (0 Bft) N 0 0 min 0,0 UV-I 0 W/m 0,8 C 2,7 C 0,0 km/h (0 Bft)
30.05.2020 05:18 2,7 C -0,6 C 87 % 1025,1 hPa 0,0 l/m 0,0 km/h (0 Bft) N 0 0 min 0,0 UV-I 0 W/m 0,8 C 2,7 C 0,0 km/h (0 Bft)
30.05.2020 05:19 2,7 C -0,6 C 87 % 1025,0 hPa 0,0 l/m 0,0 km/h (0 Bft) N 0 0 min 0,0 UV-I 0 W/m 0,8 C 2,7 C 0,0 km/h (0 Bft)
30.05.2020 05:20 2,8 C -0,6 C 88 % 1025,0 hPa 0,0 l/m 0,0 km/h (0 Bft) N 0 0 min 0,0 UV-I 0 W/m 1,0 C 2,8 C 0,0 km/h (0 Bft)
30.05.2020 05:21 2,7 C -0,6 C 87 % 1025,0 hPa 0,0 l/m 0,0 km/h (0 Bft) N 0 0 min 0,0 UV-I 0 W/m 0,8 C 2,7 C 0,0 km/h (0 Bft)
30.05.2020 05:22 2,8 C -0,6 C 87 % 1025,0 hPa 0,0 l/m 0,0 km/h (0 Bft) N 0 0 min 0,0 UV-I 0 W/m 0,9 C 2,8 C 0,0 km/h (0 Bft)
30.05.2020 05:23 2,7 C -0,6 C 87 % 1025,1 hPa 0,0 l/m 0,0 km/h (0 Bft) N 0 0 min 0,0 UV-I 0 W/m 0,8 C 2,7 C 0,0 km/h (0 Bft)
30.05.2020 05:24 2,7 C -0,6 C 87 % 1025,0 hPa 0,0 l/m 0,0 km/h (0 Bft) N 0 0 min 0,0 UV-I 0 W/m 0,8 C 2,7 C 0,0 km/h (0 Bft)
30.05.2020 05:25 2,6 C -0,6 C 87 % 1025,0 hPa 0,0 l/m 0,0 km/h (0 Bft) N 0 0 min 0,0 UV-I 0 W/m 0,7 C 2,6 C 0,0 km/h (0 Bft)
30.05.2020 05:26 2,6 C -0,6 C 87 % 1025,0 hPa 0,0 l/m 0,0 km/h (0 Bft) N 0 0 min 0,0 UV-I 0 W/m 0,7 C 2,6 C 0,0 km/h (0 Bft)
30.05.2020 05:27 2,6 C -0,6 C 87 % 1025,0 hPa 0,0 l/m 0,0 km/h (0 Bft) N 0 0 min 0,0 UV-I 0 W/m 0,7 C 2,6 C 0,0 km/h (0 Bft)
30.05.2020 05:28 2,6 C -0,6 C 88 % 1025,1 hPa 0,0 l/m 0,0 km/h (0 Bft) N 0 0 min 0,0 UV-I 0 W/m 0,8 C 2,6 C 0,0 km/h (0 Bft)
30.05.2020 05:29 2,5 C -0,6 C 88 % 1025,1 hPa 0,0 l/m 0,0 km/h (0 Bft) N 0 0 min 0,0 UV-I 0 W/m 0,7 C 2,5 C 0,0 km/h (0 Bft)
30.05.2020 05:30 2,6 C -0,6 C 87 % 1025,1 hPa 0,0 l/m 0,0 km/h (0 Bft) N 0 0 min 0,0 UV-I 0 W/m 0,7 C 2,6 C 0,0 km/h (0 Bft)
30.05.2020 05:31 2,5 C -0,6 C 87 % 1025,0 hPa 0,0 l/m 0,0 km/h (0 Bft) N 0 0 min 0,0 UV-I 0 W/m 0,6 C 2,5 C 0,0 km/h (0 Bft)
30.05.2020 05:32 2,4 C -0,6 C 88 % 1025,0 hPa 0,0 l/m 0,0 km/h (0 Bft) N 0 0 min 0,0 UV-I 5 W/m 0,6 C 2,4 C 0,0 km/h (0 Bft)
30.05.2020 05:33 2,4 C -0,6 C 88 % 1025,0 hPa 0,0 l/m 0,0 km/h (0 Bft) N 0 0 min 0,0 UV-I 5 W/m 0,6 C 2,4 C 0,0 km/h (0 Bft)
30.05.2020 05:34 2,4 C -0,6 C 88 % 1025,0 hPa 0,0 l/m 0,0 km/h (0 Bft) N 0 0 min 0,0 UV-I 5 W/m 0,6 C 2,4 C 0,0 km/h (0 Bft)
30.05.2020 05:35 2,4 C -0,6 C 88 % 1025,0 hPa 0,0 l/m 0,0 km/h (0 Bft) N 0 0 min 0,0 UV-I 5 W/m 0,6 C 2,4 C 0,0 km/h (0 Bft)
30.05.2020 05:36 2,4 C -0,6 C 88 % 1025,0 hPa 0,0 l/m 0,0 km/h (0 Bft) N 0 0 min 0,0 UV-I 5 W/m 0,6 C 2,4 C 0,0 km/h (0 Bft)
30.05.2020 05:37 2,4 C -0,6 C 88 % 1025,1 hPa 0,0 l/m 0,0 km/h (0 Bft) N 0 0 min 0,0 UV-I 5 W/m 0,6 C 2,4 C 0,0 km/h (0 Bft)
30.05.2020 05:38 2,4 C -0,6 C 88 % 1025,1 hPa 0,0 l/m 0,0 km/h (0 Bft) N 0 0 min 0,0 UV-I 7 W/m 0,6 C 2,4 C 0,0 km/h (0 Bft)
30.05.2020 05:39 2,4 C -0,6 C 88 % 1025,1 hPa 0,0 l/m 0,0 km/h (0 Bft) N 0 0 min 0,0 UV-I 7 W/m 0,6 C 2,4 C 0,0 km/h (0 Bft)
30.05.2020 05:40 2,4 C -0,6 C 89 % 1025,1 hPa 0,0 l/m 0,0 km/h (0 Bft) N 0 0 min 0,0 UV-I 7 W/m 0,8 C 2,4 C 0,0 km/h (0 Bft)
30.05.2020 05:41 2,4 C -0,6 C 88 % 1025,1 hPa 0,0 l/m 0,0 km/h (0 Bft) N 0 0 min 0,0 UV-I 7 W/m 0,6 C 2,4 C 0,0 km/h (0 Bft)
30.05.2020 05:42 2,4 C -0,6 C 89 % 1025,1 hPa 0,0 l/m 0,0 km/h (0 Bft) N 0 0 min 0,0 UV-I 7 W/m 0,8 C 2,4 C 0,0 km/h (0 Bft)
30.05.2020 05:43 2,5 C -0,6 C 88 % 1025,1 hPa 0,0 l/m 0,0 km/h (0 Bft) N 0 0 min 0,0 UV-I 9 W/m 0,7 C 2,5 C 0,0 km/h (0 Bft)
30.05.2020 05:44 2,6 C -0,6 C 88 % 1025,1 hPa 0,0 l/m 0,0 km/h (0 Bft) N 0 0 min 0,0 UV-I 9 W/m 0,8 C 2,6 C 0,0 km/h (0 Bft)
30.05.2020 05:45 2,5 C -0,6 C 88 % 1025,1 hPa 0,0 l/m 0,0 km/h (0 Bft) N 0 0 min 0,0 UV-I 9 W/m 0,7 C 2,5 C 0,0 km/h (0 Bft)
30.05.2020 05:46 2,5 C -0,6 C 88 % 1025,1 hPa 0,0 l/m 0,0 km/h (0 Bft) N 0 0 min 0,0 UV-I 9 W/m 0,7 C 2,5 C 0,0 km/h (0 Bft)
30.05.2020 05:47 2,5 C -0,6 C 88 % 1025,2 hPa 0,0 l/m 0,0 km/h (0 Bft) N 0 0 min 0,0 UV-I 9 W/m 0,7 C 2,5 C 0,0 km/h (0 Bft)
30.05.2020 05:48 2,5 C -0,6 C 88 % 1025,1 hPa 0,0 l/m 0,0 km/h (0 Bft) N 0 0 min 0,0 UV-I 11 W/m 0,7 C 2,5 C 0,0 km/h (0 Bft)
30.05.2020 05:49 2,4 C -0,6 C 88 % 1025,1 hPa 0,0 l/m 0,0 km/h (0 Bft) N 0 0 min 0,0 UV-I 11 W/m 0,6 C 2,4 C 0,0 km/h (0 Bft)
30.05.2020 05:50 2,4 C -0,6 C 88 % 1025,1 hPa 0,0 l/m 0,0 km/h (0 Bft) N 0 0 min 0,0 UV-I 11 W/m 0,6 C 2,4 C 0,0 km/h (0 Bft)
30.05.2020 05:51 2,4 C -0,6 C 88 % 1025,1 hPa 0,0 l/m 0,0 km/h (0 Bft) N 0 0 min 0,0 UV-I 11 W/m 0,6 C 2,4 C 0,0 km/h (0 Bft)
30.05.2020 05:52 2,4 C -0,6 C 89 % 1025,1 hPa 0,0 l/m 0,0 km/h (0 Bft) N 0 0 min 0,0 UV-I 12 W/m 0,8 C 2,4 C 0,0 km/h (0 Bft)
30.05.2020 05:53 2,4 C -0,6 C 89 % 1025,1 hPa 0,0 l/m 0,0 km/h (0 Bft) N 0 0 min 0,0 UV-I 12 W/m 0,8 C 2,4 C 0,0 km/h (0 Bft)
30.05.2020 05:54 2,4 C -0,6 C 89 % 1025,1 hPa 0,0 l/m 0,0 km/h (0 Bft) N 0 0 min 0,0 UV-I 12 W/m 0,8 C 2,4 C 0,0 km/h (0 Bft)
30.05.2020 05:55 2,5 C -0,6 C 89 % 1025,1 hPa 0,0 l/m 0,0 km/h (0 Bft) N 0 0 min 0,0 UV-I 12 W/m 0,9 C 2,5 C 0,0 km/h (0 Bft)
30.05.2020 05:56 2,6 C -0,6 C 89 % 1025,2 hPa 0,0 l/m 0,0 km/h (0 Bft) N 0 0 min 0,0 UV-I 12 W/m 1,0 C 2,6 C 0,0 km/h (0 Bft)
30.05.2020 05:57 2,7 C 0,0 C 89 % 1025,1 hPa 0,0 l/m 0,0 km/h (0 Bft) N 0 0 min 0,0 UV-I 12 W/m 1,1 C 2,7 C 0,0 km/h (0 Bft)
30.05.2020 05:58 2,7 C 0,0 C 90 % 1025,1 hPa 0,0 l/m 0,0 km/h (0 Bft) N 0 0 min 0,0 UV-I 14 W/m 1,2 C 2,7 C 0,0 km/h (0 Bft)
30.05.2020 05:59 2,8 C -0,6 C 90 % 1025,2 hPa 0,0 l/m 0,0 km/h (0 Bft) N 0 0 min 0,0 UV-I 14 W/m 1,3 C 2,8 C 0,0 km/h (0 Bft)
30.05.2020 06:00 2,8 C -0,6 C 90 % 1025,1 hPa 0,0 l/m 0,0 km/h (0 Bft) N 0 0 min 0,0 UV-I 14 W/m 1,3 C 2,8 C 0,0 km/h (0 Bft)
30.05.2020 06:01 2,9 C 0,0 C 89 % 1025,1 hPa 0,0 l/m 0,0 km/h (0 Bft) N 0 0 min 0,0 UV-I 14 W/m 1,3 C 2,9 C 0,0 km/h (0 Bft)
30.05.2020 06:02 2,8 C 0,0 C 89 % 1025,1 hPa 0,0 l/m 0,0 km/h (0 Bft) N 0 0 min 0,0 UV-I 14 W/m 1,2 C 2,8 C 0,0 km/h (0 Bft)
30.05.2020 06:03 2,7 C 0,0 C 88 % 1025,1 hPa 0,0 l/m 0,0 km/h (0 Bft) N 0 0 min 0,0 UV-I 16 W/m 0,9 C 2,7 C 0,0 km/h (0 Bft)
30.05.2020 06:04 2,7 C 0,0 C 88 % 1025,2 hPa 0,0 l/m 0,0 km/h (0 Bft) N 0 0 min 0,0 UV-I 16 W/m 0,9 C 2,7 C 0,0 km/h (0 Bft)
30.05.2020 06:05 2,7 C 0,0 C 89 % 1025,1 hPa 0,0 l/m 0,0 km/h (0 Bft) N 0 0 min 0,0 UV-I 16 W/m 1,1 C 2,7 C 0,0 km/h (0 Bft)
30.05.2020 06:06 2,7 C 0,0 C 89 % 1025,1 hPa 0,0 l/m 0,0 km/h (0 Bft) NO 45 0 min 0,0 UV-I 16 W/m 1,1 C 2,7 C 1,6 km/h (1 Bft)
30.05.2020 06:07 2,7 C 0,0 C 89 % 1025,1 hPa 0,0 l/m 0,0 km/h (0 Bft) NO 45 0 min 0,0 UV-I 18 W/m 1,1 C 2,7 C 1,6 km/h (1 Bft)
30.05.2020 06:08 2,6 C 0,0 C 88 % 1025,1 hPa 0,0 l/m 0,0 km/h (0 Bft) NO 45 0 min 0,0 UV-I 18 W/m 0,8 C 2,6 C 1,6 km/h (1 Bft)
30.05.2020 06:09 2,6 C 0,0 C 88 % 1025,1 hPa 0,0 l/m 0,0 km/h (0 Bft) N 0 0 min 0,0 UV-I 18 W/m 0,8 C 2,6 C 0,0 km/h (0 Bft)
30.05.2020 06:10 2,7 C 0,0 C 88 % 1025,1 hPa 0,0 l/m 0,0 km/h (0 Bft) NO 45 0 min 0,0 UV-I 18 W/m 0,9 C 2,7 C 1,6 km/h (1 Bft)
30.05.2020 06:11 2,7 C 0,0 C 88 % 1025,1 hPa 0,0 l/m 0,0 km/h (0 Bft) NO 45 0 min 0,0 UV-I 19 W/m 0,9 C 2,7 C 1,6 km/h (1 Bft)
30.05.2020 06:12 2,7 C 0,0 C 88 % 1025,1 hPa 0,0 l/m 0,0 km/h (0 Bft) N 0 0 min 0,0 UV-I 19 W/m 0,9 C 2,7 C 0,0 km/h (0 Bft)
30.05.2020 06:13 2,7 C 0,0 C 88 % 1025,1 hPa 0,0 l/m 0,0 km/h (0 Bft) NO 45 0 min 0,0 UV-I 21 W/m 0,9 C 2,7 C 1,6 km/h (1 Bft)
30.05.2020 06:14 2,7 C 0,0 C 88 % 1025,1 hPa 0,0 l/m 1,6 km/h (1 Bft) NO 45 0 min 0,0 UV-I 21 W/m 0,9 C 2,7 C 1,6 km/h (1 Bft)
30.05.2020 06:15 2,8 C 0,6 C 89 % 1025,1 hPa 0,0 l/m 1,6 km/h (1 Bft) NO 45 0 min 0,0 UV-I 23 W/m 1,2 C 2,8 C 3,2 km/h (1 Bft)
30.05.2020 06:16 2,8 C 0,0 C 89 % 1025,1 hPa 0,0 l/m 1,6 km/h (1 Bft) NO 45 0 min 0,0 UV-I 23 W/m 1,2 C 2,8 C 1,6 km/h (1 Bft)
30.05.2020 06:17 3,0 C 0,6 C 89 % 1025,1 hPa 0,0 l/m 0,0 km/h (0 Bft) NO 45 0 min 0,0 UV-I 26 W/m 1,4 C 3,0 C 1,6 km/h (1 Bft)
30.05.2020 06:18 3,1 C 0,6 C 89 % 1025,1 hPa 0,0 l/m 0,0 km/h (0 Bft) N 0 0 min 0,0 UV-I 26 W/m 1,5 C 3,1 C 0,0 km/h (0 Bft)
30.05.2020 06:19 3,2 C 0,6 C 89 % 1025,1 hPa 0,0 l/m 0,0 km/h (0 Bft) N 0 0 min 0,0 UV-I 28 W/m 1,6 C 3,2 C 0,0 km/h (0 Bft)
30.05.2020 06:20 3,3 C 0,6 C 89 % 1025,1 hPa 0,0 l/m 0,0 km/h (0 Bft) NO 45 0 min 0,0 UV-I 30 W/m 1,7 C 3,3 C 1,6 km/h (1 Bft)
30.05.2020 06:21 3,3 C 0,6 C 88 % 1025,0 hPa 0,0 l/m 0,0 km/h (0 Bft) N 0 0 min 0,0 UV-I 30 W/m 1,5 C 3,3 C 0,0 km/h (0 Bft)
30.05.2020 06:22 3,3 C 0,6 C 87 % 1025,0 hPa 0,0 l/m 0,0 km/h (0 Bft) N 0 0 min 0,0 UV-I 33 W/m 1,3 C 3,3 C 0,0 km/h (0 Bft)
30.05.2020 06:23 3,3 C 0,6 C 87 % 1025,1 hPa 0,0 l/m 0,0 km/h (0 Bft) N 0 0 min 0,0 UV-I 36 W/m 1,3 C 3,3 C 0,0 km/h (0 Bft)
30.05.2020 06:24 3,2 C 0,6 C 87 % 1025,1 hPa 0,0 l/m 0,0 km/h (0 Bft) N 0 0 min 0,0 UV-I 39 W/m 1,2 C 3,2 C 0,0 km/h (0 Bft)
30.05.2020 06:25 3,2 C 0,6 C 87 % 1025,1 hPa 0,0 l/m 0,0 km/h (0 Bft) N 0 0 min 0,0 UV-I 40 W/m 1,2 C 3,2 C 0,0 km/h (0 Bft)
30.05.2020 06:26 3,1 C 0,6 C 87 % 1025,1 hPa 0,0 l/m 0,0 km/h (0 Bft) N 0 0 min 0,0 UV-I 42 W/m 1,2 C 3,1 C 0,0 km/h (0 Bft)
30.05.2020 06:27 3,1 C 0,6 C 87 % 1025,1 hPa 0,0 l/m 0,0 km/h (0 Bft) N 0 0 min 0,0 UV-I 44 W/m 1,2 C 3,1 C 0,0 km/h (0 Bft)
30.05.2020 06:28 3,1 C 1,1 C 87 % 1025,1 hPa 0,0 l/m 0,0 km/h (0 Bft) N 0 0 min 0,0 UV-I 46 W/m 1,2 C 3,1 C 0,0 km/h (0 Bft)
30.05.2020 06:29 3,2 C 1,1 C 87 % 1025,0 hPa 0,0 l/m 0,0 km/h (0 Bft) N 0 0 min 0,0 UV-I 48 W/m 1,2 C 3,2 C 0,0 km/h (0 Bft)
30.05.2020 06:30 3,2 C 1,1 C 87 % 1025,0 hPa 0,0 l/m 0,0 km/h (0 Bft) N 0 0 min 0,0 UV-I 49 W/m 1,2 C 3,2 C 0,0 km/h (0 Bft)
30.05.2020 06:31 3,3 C 1,1 C 87 % 1025,0 hPa 0,0 l/m 0,0 km/h (0 Bft) N 0 0 min 0,0 UV-I 51 W/m 1,3 C 3,3 C 0,0 km/h (0 Bft)
30.05.2020 06:32 3,3 C 1,1 C 87 % 1025,0 hPa 0,0 l/m 0,0 km/h (0 Bft) N 0 0 min 0,0 UV-I 53 W/m 1,3 C 3,3 C 0,0 km/h (0 Bft)
30.05.2020 06:33 3,2 C 1,1 C 86 % 1025,1 hPa 0,0 l/m 0,0 km/h (0 Bft) NO 45 0 min 0,0 UV-I 54 W/m 1,1 C 3,2 C 1,6 km/h (1 Bft)
30.05.2020 06:34 3,2 C 1,1 C 86 % 1025,1 hPa 0,0 l/m 0,0 km/h (0 Bft) N 0 0 min 0,0 UV-I 56 W/m 1,1 C 3,2 C 0,0 km/h (0 Bft)
30.05.2020 06:35 3,2 C 1,1 C 86 % 1025,0 hPa 0,0 l/m 0,0 km/h (0 Bft) N 0 0 min 0,0 UV-I 59 W/m 1,1 C 3,2 C 0,0 km/h (0 Bft)
30.05.2020 06:36 3,2 C 1,1 C 86 % 1025,1 hPa 0,0 l/m 0,0 km/h (0 Bft) N 0 0 min 0,0 UV-I 60 W/m 1,1 C 3,2 C 0,0 km/h (0 Bft)
30.05.2020 06:37 3,2 C 1,1 C 86 % 1025,0 hPa 0,0 l/m 0,0 km/h (0 Bft) N 0 0 min 0,0 UV-I 62 W/m 1,1 C 3,2 C 0,0 km/h (0 Bft)
30.05.2020 06:38 3,2 C 1,1 C 86 % 1025,0 hPa 0,0 l/m 0,0 km/h (0 Bft) N 0 0 min 0,0 UV-I 63 W/m 1,1 C 3,2 C 0,0 km/h (0 Bft)
30.05.2020 06:39 3,2 C 1,1 C 86 % 1025,2 hPa 0,0 l/m 0,0 km/h (0 Bft) N 0 0 min 0,0 UV-I 65 W/m 1,1 C 3,2 C 0,0 km/h (0 Bft)
30.05.2020 06:40 3,2 C 1,1 C 86 % 1025,1 hPa 0,0 l/m 0,0 km/h (0 Bft) N 0 0 min 0,0 UV-I 67 W/m 1,1 C 3,2 C 0,0 km/h (0 Bft)
30.05.2020 06:41 3,3 C 1,1 C 86 % 1025,1 hPa 0,0 l/m 0,0 km/h (0 Bft) N 0 0 min 0,0 UV-I 70 W/m 1,2 C 3,3 C 0,0 km/h (0 Bft)
30.05.2020 06:42 3,3 C 1,1 C 87 % 1025,0 hPa 0,0 l/m 0,0 km/h (0 Bft) N 0 0 min 0,0 UV-I 72 W/m 1,3 C 3,3 C 0,0 km/h (0 Bft)
30.05.2020 06:43 3,3 C 1,1 C 87 % 1025,0 hPa 0,0 l/m 0,0 km/h (0 Bft) N 0 0 min 0,0 UV-I 74 W/m 1,3 C 3,3 C 0,0 km/h (0 Bft)
30.05.2020 06:44 3,4 C 1,1 C 87 % 1025,0 hPa 0,0 l/m 0,0 km/h (0 Bft) N 0 0 min 0,0 UV-I 76 W/m 1,4 C 3,4 C 0,0 km/h (0 Bft)
30.05.2020 06:45 3,5 C 1,1 C 87 % 1025,1 hPa 0,0 l/m 0,0 km/h (0 Bft) N 0 0 min 0,0 UV-I 77 W/m 1,5 C 3,5 C 0,0 km/h (0 Bft)
30.05.2020 06:46 3,6 C 1,7 C 86 % 1025,1 hPa 0,0 l/m 0,0 km/h (0 Bft) N 0 0 min 0,0 UV-I 79 W/m 1,5 C 3,6 C 0,0 km/h (0 Bft)
30.05.2020 06:47 3,6 C 1,7 C 87 % 1025,1 hPa 0,0 l/m 0,0 km/h (0 Bft) N 0 0 min 0,0 UV-I 82 W/m 1,6 C 3,6 C 0,0 km/h (0 Bft)
30.05.2020 06:48 3,7 C 1,7 C 86 % 1025,1 hPa 0,0 l/m 0,0 km/h (0 Bft) N 0 0 min 0,0 UV-I 84 W/m 1,6 C 3,7 C 0,0 km/h (0 Bft)
30.05.2020 06:49 3,8 C 1,7 C 86 % 1025,0 hPa 0,0 l/m 0,0 km/h (0 Bft) N 0 0 min 0,0 UV-I 86 W/m 1,7 C 3,8 C 0,0 km/h (0 Bft)
30.05.2020 06:50 3,8 C 1,7 C 86 % 1025,0 hPa 0,0 l/m 0,0 km/h (0 Bft) N 0 0 min 0,0 UV-I 88 W/m 1,7 C 3,8 C 0,0 km/h (0 Bft)
30.05.2020 06:51 3,9 C 1,7 C 86 % 1025,1 hPa 0,0 l/m 0,0 km/h (0 Bft) N 0 0 min 0,0 UV-I 90 W/m 1,8 C 3,9 C 0,0 km/h (0 Bft)
30.05.2020 06:52 4,0 C 1,7 C 86 % 1025,1 hPa 0,0 l/m 0,0 km/h (0 Bft) N 0 0 min 0,0 UV-I 91 W/m 1,9 C 4,0 C 0,0 km/h (0 Bft)
30.05.2020 06:53 4,1 C 1,7 C 85 % 1025,1 hPa 0,0 l/m 0,0 km/h (0 Bft) N 0 0 min 0,0 UV-I 94 W/m 1,8 C 4,1 C 0,0 km/h (0 Bft)
30.05.2020 06:54 4,1 C 1,7 C 85 % 1025,2 hPa 0,0 l/m 0,0 km/h (0 Bft) N 0 0 min 0,0 UV-I 97 W/m 1,8 C 4,1 C 0,0 km/h (0 Bft)
30.05.2020 06:55 4,1 C 1,7 C 85 % 1025,1 hPa 0,0 l/m 0,0 km/h (0 Bft) N 0 0 min 0,0 UV-I 98 W/m 1,8 C 4,1 C 0,0 km/h (0 Bft)
30.05.2020 06:56 4,2 C 2,2 C 85 % 1025,2 hPa 0,0 l/m 0,0 km/h (0 Bft) N 0 0 min 0,0 UV-I 98 W/m 1,9 C 4,2 C 0,0 km/h (0 Bft)
30.05.2020 06:57 4,3 C 2,2 C 85 % 1025,1 hPa 0,0 l/m 0,0 km/h (0 Bft) N 0 0 min 0,0 UV-I 100 W/m 2,0 C 4,3 C 0,0 km/h (0 Bft)
30.05.2020 06:58 4,3 C 2,2 C 85 % 1025,1 hPa 0,0 l/m 0,0 km/h (0 Bft) N 0 0 min 0,0 UV-I 104 W/m 2,0 C 4,3 C 0,0 km/h (0 Bft)
30.05.2020 06:59 4,4 C 2,2 C 85 % 1025,1 hPa 0,0 l/m 0,0 km/h (0 Bft) N 0 0 min 0,5 UV-I 107 W/m 2,1 C 4,4 C 0,0 km/h (0 Bft)
30.05.2020 07:00 4,5 C 2,8 C 84 % 1025,1 hPa 0,0 l/m 0,0 km/h (0 Bft) N 0 0 min 0,5 UV-I 109 W/m 2,0 C 4,5 C 0,0 km/h (0 Bft)
30.05.2020 07:01 4,6 C 2,8 C 85 % 1025,1 hPa 0,0 l/m 0,0 km/h (0 Bft) N 0 0 min 0,5 UV-I 111 W/m 2,3 C 4,6 C 0,0 km/h (0 Bft)
30.05.2020 07:02 4,7 C 2,8 C 85 % 1025,1 hPa 0,0 l/m 0,0 km/h (0 Bft) N 0 0 min 0,5 UV-I 113 W/m 2,4 C 4,7 C 0,0 km/h (0 Bft)
30.05.2020 07:03 4,7 C 3,3 C 85 % 1025,2 hPa 0,0 l/m 0,0 km/h (0 Bft) N 0 0 min 0,5 UV-I 114 W/m 2,4 C 4,7 C 0,0 km/h (0 Bft)
30.05.2020 07:04 4,8 C 3,3 C 85 % 1025,2 hPa 0,0 l/m 0,0 km/h (0 Bft) N 0 0 min 0,5 UV-I 116 W/m 2,5 C 4,8 C 0,0 km/h (0 Bft)
30.05.2020 07:05 4,9 C 3,3 C 85 % 1025,1 hPa 0,0 l/m 0,0 km/h (0 Bft) N 0 0 min 0,5 UV-I 116 W/m 2,6 C 4,9 C 0,0 km/h (0 Bft)
30.05.2020 07:06 4,9 C 3,9 C 84 % 1025,1 hPa 0,0 l/m 0,0 km/h (0 Bft) N 0 0 min 0,5 UV-I 116 W/m 2,4 C 4,9 C 0,0 km/h (0 Bft)
30.05.2020 07:07 5,0 C 3,9 C 84 % 1025,1 hPa 0,0 l/m 0,0 km/h (0 Bft) N 0 0 min 0,5 UV-I 116 W/m 2,5 C 5,0 C 0,0 km/h (0 Bft)
30.05.2020 07:08 5,1 C 4,4 C 83 % 1025,0 hPa 0,0 l/m 0,0 km/h (0 Bft) N 0 0 min 0,5 UV-I 116 W/m 2,5 C 5,1 C 0,0 km/h (0 Bft)
30.05.2020 07:09 5,1 C 4,4 C 83 % 1025,2 hPa 0,0 l/m 0,0 km/h (0 Bft) N 0 0 min 0,6 UV-I 116 W/m 2,5 C 5,1 C 0,0 km/h (0 Bft)
30.05.2020 07:10 5,3 C 4,4 C 85 % 1025,1 hPa 0,0 l/m 0,0 km/h (0 Bft) N 0 0 min 0,6 UV-I 116 W/m 3,0 C 5,3 C 0,0 km/h (0 Bft)
30.05.2020 07:11 5,3 C 5,0 C 84 % 1025,1 hPa 0,0 l/m 0,0 km/h (0 Bft) N 0 0 min 0,6 UV-I 116 W/m 2,8 C 5,3 C 0,0 km/h (0 Bft)
30.05.2020 07:12 5,4 C 5,0 C 83 % 1025,1 hPa 0,0 l/m 0,0 km/h (0 Bft) N 0 0 min 0,6 UV-I 118 W/m 2,7 C 5,4 C 0,0 km/h (0 Bft)
30.05.2020 07:13 5,6 C 5,0 C 83 % 1025,2 hPa 0,0 l/m 0,0 km/h (0 Bft) N 0 0 min 0,6 UV-I 120 W/m 2,9 C 5,6 C 0,0 km/h (0 Bft)
30.05.2020 07:14 5,7 C 5,6 C 83 % 1025,2 hPa 0,0 l/m 0,0 km/h (0 Bft) N 0 0 min 0,6 UV-I 121 W/m 3,0 C 5,7 C 0,0 km/h (0 Bft)
30.05.2020 07:15 5,8 C 5,6 C 82 % 1025,2 hPa 0,0 l/m 0,0 km/h (0 Bft) N 0 0 min 0,6 UV-I 125 W/m 3,0 C 5,8 C 0,0 km/h (0 Bft)
30.05.2020 07:16 5,9 C 6,1 C 82 % 1025,2 hPa 0,0 l/m 0,0 km/h (0 Bft) N 0 0 min 0,6 UV-I 130 W/m 3,1 C 5,9 C 0,0 km/h (0 Bft)
30.05.2020 07:17 5,9 C 6,1 C 82 % 1025,2 hPa 0,0 l/m 0,0 km/h (0 Bft) N 0 0 min 0,6 UV-I 137 W/m 3,1 C 5,9 C 0,0 km/h (0 Bft)
30.05.2020 07:18 6,0 C 6,1 C 81 % 1025,1 hPa 0,0 l/m 0,0 km/h (0 Bft) N 0 0 min 0,7 UV-I 141 W/m 3,0 C 6,0 C 0,0 km/h (0 Bft)
30.05.2020 07:19 6,1 C 6,7 C 82 % 1025,0 hPa 0,0 l/m 0,0 km/h (0 Bft) N 0 0 min 0,7 UV-I 146 W/m 3,3 C 6,1 C 0,0 km/h (0 Bft)
30.05.2020 07:20 6,2 C 6,7 C 81 % 1025,1 hPa 0,0 l/m 0,0 km/h (0 Bft) N 0 0 min 0,7 UV-I 149 W/m 3,2 C 6,2 C 0,0 km/h (0 Bft)
30.05.2020 07:21 6,3 C 6,7 C 80 % 1025,1 hPa 0,0 l/m 0,0 km/h (0 Bft) NO 45 0 min 0,7 UV-I 155 W/m 3,1 C 6,3 C 1,6 km/h (1 Bft)
30.05.2020 07:22 6,3 C 7,2 C 80 % 1025,1 hPa 0,0 l/m 0,0 km/h (0 Bft) N 0 0 min 0,7 UV-I 164 W/m 3,1 C 6,3 C 0,0 km/h (0 Bft)
30.05.2020 07:23 6,3 C 7,2 C 81 % 1025,1 hPa 0,0 l/m 0,0 km/h (0 Bft) NO 45 0 min 0,7 UV-I 171 W/m 3,3 C 6,3 C 1,6 km/h (1 Bft)
30.05.2020 07:24 6,4 C 7,2 C 81 % 1025,1 hPa 0,0 l/m 0,0 km/h (0 Bft) N 0 0 min 0,7 UV-I 172 W/m 3,4 C 6,4 C 0,0 km/h (0 Bft)
30.05.2020 07:25 6,6 C 7,8 C 81 % 1025,1 hPa 0,0 l/m 0,0 km/h (0 Bft) N 0 0 min 0,7 UV-I 174 W/m 3,6 C 6,6 C 0,0 km/h (0 Bft)
30.05.2020 07:26 6,6 C 7,8 C 81 % 1025,0 hPa 0,0 l/m 0,0 km/h (0 Bft) NO 45 0 min 0,7 UV-I 178 W/m 3,6 C 6,6 C 1,6 km/h (1 Bft)
30.05.2020 07:27 6,8 C 7,8 C 82 % 1025,0 hPa 0,0 l/m 0,0 km/h (0 Bft) NO 45 0 min 0,8 UV-I 179 W/m 3,9 C 6,8 C 1,6 km/h (1 Bft)
30.05.2020 07:28 6,8 C 7,8 C 82 % 1025,1 hPa 0,0 l/m 0,0 km/h (0 Bft) NO 45 0 min 0,8 UV-I 183 W/m 3,9 C 6,8 C 1,6 km/h (1 Bft)
30.05.2020 07:29 6,9 C 8,3 C 82 % 1025,1 hPa 0,0 l/m 0,0 km/h (0 Bft) NO 45 0 min 0,8 UV-I 185 W/m 4,0 C 6,9 C 1,6 km/h (1 Bft)
30.05.2020 07:30 7,1 C 8,3 C 82 % 1025,0 hPa 0,0 l/m 1,6 km/h (1 Bft) NO 45 0 min 0,8 UV-I 190 W/m 4,2 C 7,1 C 3,2 km/h (1 Bft)
30.05.2020 07:31 7,1 C 8,3 C 82 % 1025,0 hPa 0,0 l/m 1,6 km/h (1 Bft) NO 45 0 min 0,8 UV-I 192 W/m 4,2 C 7,1 C 1,6 km/h (1 Bft)
30.05.2020 07:32 7,2 C 8,3 C 82 % 1025,0 hPa 0,0 l/m 1,6 km/h (1 Bft) NO 45 0 min 0,8 UV-I 193 W/m 4,3 C 7,2 C 1,6 km/h (1 Bft)
30.05.2020 07:33 7,3 C 8,3 C 82 % 1025,1 hPa 0,0 l/m 1,6 km/h (1 Bft) NO 45 0 min 0,8 UV-I 197 W/m 4,4 C 7,3 C 3,2 km/h (1 Bft)
30.05.2020 07:34 7,4 C 8,9 C 83 % 1025,0 hPa 0,0 l/m 3,2 km/h (1 Bft) NO 45 0 min 0,8 UV-I 201 W/m 4,7 C 7,4 C 4,8 km/h (1 Bft)
30.05.2020 07:35 7,7 C 8,9 C 82 % 1025,0 hPa 0,0 l/m 4,8 km/h (1 Bft) NO 45 0 min 0,9 UV-I 204 W/m 4,8 C 7,7 C 6,4 km/h (2 Bft)
30.05.2020 07:36 7,8 C 8,9 C 82 % 1025,1 hPa 0,0 l/m 4,8 km/h (1 Bft) NO 45 0 min 0,9 UV-I 207 W/m 4,9 C 7,8 C 6,4 km/h (2 Bft)
30.05.2020 07:37 8,1 C 8,9 C 82 % 1025,0 hPa 0,0 l/m 6,4 km/h (2 Bft) N-NO 22 0 min 0,9 UV-I 209 W/m 5,2 C 8,1 C 6,4 km/h (2 Bft)
30.05.2020 07:38 8,3 C 8,9 C 82 % 1025,0 hPa 0,0 l/m 6,4 km/h (2 Bft) N-NO 22 0 min 0,9 UV-I 211 W/m 5,4 C 8,3 C 8,0 km/h (2 Bft)
30.05.2020 07:39 8,6 C 9,4 C 81 % 1025,0 hPa 0,0 l/m 6,4 km/h (2 Bft) N-NO 22 0 min 0,9 UV-I 215 W/m 5,5 C 8,6 C 8,0 km/h (2 Bft)
30.05.2020 07:40 8,8 C 9,4 C 80 % 1025,1 hPa 0,0 l/m 4,8 km/h (1 Bft) N-NO 22 0 min 0,9 UV-I 218 W/m 5,5 C 8,8 C 6,4 km/h (2 Bft)
30.05.2020 07:41 9,1 C 9,4 C 80 % 1025,0 hPa 0,0 l/m 6,4 km/h (2 Bft) NO 45 0 min 0,9 UV-I 221 W/m 5,8 C 9,1 C 9,7 km/h (2 Bft)
30.05.2020 07:42 9,3 C 10,0 C 80 % 1025,1 hPa 0,0 l/m 4,8 km/h (1 Bft) NO 45 0 min 1,0 UV-I 223 W/m 6,0 C 9,3 C 9,7 km/h (2 Bft)
30.05.2020 07:43 9,5 C 10,0 C 77 % 1025,0 hPa 0,0 l/m 6,4 km/h (2 Bft) NO 45 0 min 1,0 UV-I 227 W/m 5,7 C 9,5 C 6,4 km/h (2 Bft)
30.05.2020 07:44 9,7 C 10,6 C 77 % 1025,0 hPa 0,0 l/m 6,4 km/h (2 Bft) NO 45 0 min 1,0 UV-I 229 W/m 5,9 C 9,7 C 9,7 km/h (2 Bft)
30.05.2020 07:45 9,8 C 10,6 C 75 % 1025,1 hPa 0,0 l/m 6,4 km/h (2 Bft) O-NO 67 0 min 1,0 UV-I 232 W/m 5,6 C 9,8 C 9,7 km/h (2 Bft)
30.05.2020 07:46 9,9 C 10,6 C 75 % 1025,0 hPa 0,0 l/m 6,4 km/h (2 Bft) O-NO 67 0 min 1,0 UV-I 236 W/m 5,7 C 9,9 C 8,0 km/h (2 Bft)
30.05.2020 07:47 10,0 C 11,1 C 73 % 1025,1 hPa 0,0 l/m 6,4 km/h (2 Bft) NO 45 0 min 1,0 UV-I 236 W/m 5,4 C 10,0 C 8,0 km/h (2 Bft)
30.05.2020 07:48 10,1 C 11,1 C 73 % 1025,1 hPa 0,0 l/m 6,4 km/h (2 Bft) NO 45 0 min 1,0 UV-I 241 W/m 5,5 C 10,1 C 8,0 km/h (2 Bft)
30.05.2020 07:49 10,2 C 11,1 C 72 % 1025,1 hPa 0,0 l/m 6,4 km/h (2 Bft) NO 45 0 min 1,0 UV-I 243 W/m 5,4 C 10,2 C 9,7 km/h (2 Bft)
30.05.2020 07:50 10,3 C 11,1 C 70 % 1025,0 hPa 0,0 l/m 8,0 km/h (2 Bft) NO 45 0 min 1,1 UV-I 246 W/m 5,1 C 9,2 C 9,7 km/h (2 Bft)
30.05.2020 07:51 10,4 C 11,7 C 70 % 1025,1 hPa 0,0 l/m 6,4 km/h (2 Bft) NO 45 0 min 1,1 UV-I 249 W/m 5,2 C 10,4 C 9,7 km/h (2 Bft)
30.05.2020 07:52 10,4 C 11,7 C 69 % 1025,1 hPa 0,0 l/m 6,4 km/h (2 Bft) NO 45 0 min 1,1 UV-I 253 W/m 5,0 C 10,4 C 12,9 km/h (3 Bft)
30.05.2020 07:53 10,6 C 11,7 C 69 % 1025,1 hPa 0,0 l/m 6,4 km/h (2 Bft) NO 45 0 min 1,1 UV-I 257 W/m 5,2 C 10,6 C 8,0 km/h (2 Bft)
30.05.2020 07:54 10,7 C 11,7 C 68 % 1025,0 hPa 0,0 l/m 6,4 km/h (2 Bft) NO 45 0 min 1,1 UV-I 258 W/m 5,0 C 10,7 C 12,9 km/h (3 Bft)
30.05.2020 07:55 10,8 C 11,7 C 67 % 1025,1 hPa 0,0 l/m 8,0 km/h (2 Bft) NO 45 0 min 1,1 UV-I 262 W/m 4,9 C 9,7 C 9,7 km/h (2 Bft)
30.05.2020 07:56 10,9 C 11,7 C 68 % 1025,1 hPa 0,0 l/m 6,4 km/h (2 Bft) NO 45 0 min 1,1 UV-I 264 W/m 5,2 C 10,9 C 9,7 km/h (2 Bft)
30.05.2020 07:57 11,0 C 12,2 C 66 % 1025,1 hPa 0,0 l/m 6,4 km/h (2 Bft) NO 45 0 min 1,2 UV-I 269 W/m 4,9 C 11,0 C 8,0 km/h (2 Bft)
30.05.2020 07:58 11,1 C 12,2 C 66 % 1025,1 hPa 0,0 l/m 8,0 km/h (2 Bft) NO 45 0 min 1,2 UV-I 272 W/m 5,0 C 10,0 C 11,3 km/h (2 Bft)
30.05.2020 07:59 11,2 C 12,2 C 66 % 1025,1 hPa 0,0 l/m 6,4 km/h (2 Bft) O-NO 67 0 min 1,2 UV-I 276 W/m 5,1 C 11,2 C 9,7 km/h (2 Bft)
30.05.2020 08:00 11,3 C 12,2 C 66 % 1025,0 hPa 0,0 l/m 6,4 km/h (2 Bft) NO 45 0 min 1,2 UV-I 279 W/m 5,2 C 11,3 C 9,7 km/h (2 Bft)
30.05.2020 08:01 11,3 C 12,8 C 66 % 1025,1 hPa 0,0 l/m 4,8 km/h (1 Bft) NO 45 0 min 1,2 UV-I 281 W/m 5,2 C 11,3 C 8,0 km/h (2 Bft)
30.05.2020 08:02 11,4 C 12,8 C 65 % 1025,1 hPa 0,0 l/m 6,4 km/h (2 Bft) O-NO 67 0 min 1,2 UV-I 285 W/m 5,1 C 11,4 C 9,7 km/h (2 Bft)
30.05.2020 08:03 11,5 C 12,8 C 65 % 1025,1 hPa 0,0 l/m 8,0 km/h (2 Bft) O-NO 67 0 min 1,2 UV-I 289 W/m 5,2 C 10,4 C 12,9 km/h (3 Bft)
30.05.2020 08:04 11,6 C 12,8 C 64 % 1025,1 hPa 0,0 l/m 8,0 km/h (2 Bft) NO 45 0 min 1,3 UV-I 294 W/m 5,0 C 10,5 C 11,3 km/h (2 Bft)
30.05.2020 08:05 11,6 C 12,8 C 63 % 1025,1 hPa 0,0 l/m 6,4 km/h (2 Bft) O-NO 67 0 min 1,3 UV-I 294 W/m 4,8 C 11,6 C 9,7 km/h (2 Bft)
30.05.2020 08:06 11,7 C 12,8 C 63 % 1025,2 hPa 0,0 l/m 8,0 km/h (2 Bft) NO 45 0 min 1,3 UV-I 297 W/m 4,9 C 10,6 C 9,7 km/h (2 Bft)
30.05.2020 08:07 11,7 C 12,8 C 63 % 1025,2 hPa 0,0 l/m 9,7 km/h (2 Bft) NO 45 0 min 1,3 UV-I 301 W/m 4,9 C 9,6 C 11,3 km/h (2 Bft)
30.05.2020 08:08 11,8 C 13,3 C 65 % 1025,2 hPa 0,0 l/m 8,0 km/h (2 Bft) NO 45 0 min 1,3 UV-I 302 W/m 5,4 C 10,7 C 11,3 km/h (2 Bft)
30.05.2020 08:09 11,9 C 13,3 C 64 % 1025,1 hPa 0,0 l/m 8,0 km/h (2 Bft) NO 45 0 min 1,3 UV-I 305 W/m 5,3 C 10,8 C 12,9 km/h (3 Bft)
30.05.2020 08:10 12,1 C 13,3 C 63 % 1025,1 hPa 0,0 l/m 11,3 km/h (2 Bft) NO 45 0 min 1,3 UV-I 309 W/m 5,3 C 9,3 C 14,5 km/h (3 Bft)
30.05.2020 08:11 12,1 C 13,3 C 62 % 1025,1 hPa 0,0 l/m 9,7 km/h (2 Bft) NO 45 0 min 1,4 UV-I 311 W/m 5,0 C 10,1 C 14,5 km/h (3 Bft)
30.05.2020 08:12 12,1 C 13,3 C 62 % 1025,1 hPa 0,0 l/m 9,7 km/h (2 Bft) NO 45 0 min 1,4 UV-I 313 W/m 5,0 C 10,1 C 12,9 km/h (3 Bft)
30.05.2020 08:13 12,1 C 13,3 C 62 % 1025,2 hPa 0,0 l/m 11,3 km/h (2 Bft) NO 45 0 min 1,4 UV-I 316 W/m 5,0 C 9,3 C 14,5 km/h (3 Bft)
30.05.2020 08:14 12,2 C 13,3 C 62 % 1025,1 hPa 0,0 l/m 11,3 km/h (2 Bft) NO 45 0 min 1,4 UV-I 318 W/m 5,1 C 9,4 C 16,1 km/h (3 Bft)
30.05.2020 08:15 12,2 C 13,3 C 61 % 1025,2 hPa 0,0 l/m 11,3 km/h (2 Bft) NO 45 0 min 1,4 UV-I 323 W/m 4,9 C 9,4 C 16,1 km/h (3 Bft)
30.05.2020 08:16 12,2 C 13,3 C 61 % 1025,1 hPa 0,0 l/m 8,0 km/h (2 Bft) NO 45 0 min 1,4 UV-I 325 W/m 4,9 C 11,2 C 9,7 km/h (2 Bft)
30.05.2020 08:17 12,2 C 13,3 C 62 % 1025,2 hPa 0,0 l/m 9,7 km/h (2 Bft) NO 45 0 min 1,5 UV-I 327 W/m 5,1 C 10,2 C 14,5 km/h (3 Bft)
30.05.2020 08:18 12,3 C 13,9 C 62 % 1025,1 hPa 0,0 l/m 9,7 km/h (2 Bft) NO 45 0 min 1,5 UV-I 330 W/m 5,2 C 10,3 C 14,5 km/h (3 Bft)
30.05.2020 08:19 12,3 C 13,9 C 61 % 1025,1 hPa 0,0 l/m 9,7 km/h (2 Bft) O-NO 67 0 min 1,5 UV-I 332 W/m 5,0 C 10,3 C 14,5 km/h (3 Bft)
30.05.2020 08:20 12,3 C 13,9 C 61 % 1025,2 hPa 0,0 l/m 8,0 km/h (2 Bft) NO 45 0 min 1,5 UV-I 335 W/m 5,0 C 11,3 C 14,5 km/h (3 Bft)
30.05.2020 08:21 12,3 C 13,9 C 60 % 1025,2 hPa 0,0 l/m 8,0 km/h (2 Bft) NO 45 0 min 1,5 UV-I 339 W/m 4,8 C 11,3 C 11,3 km/h (2 Bft)
30.05.2020 08:22 12,4 C 13,9 C 61 % 1025,2 hPa 0,0 l/m 8,0 km/h (2 Bft) NO 45 0 min 1,5 UV-I 341 W/m 5,1 C 11,4 C 12,9 km/h (3 Bft)
30.05.2020 08:23 12,4 C 13,9 C 62 % 1025,1 hPa 0,0 l/m 11,3 km/h (2 Bft) NO 45 0 min 1,5 UV-I 341 W/m 5,3 C 9,6 C 16,1 km/h (3 Bft)
30.05.2020 08:24 12,5 C 13,9 C 61 % 1025,2 hPa 0,0 l/m 11,3 km/h (2 Bft) NO 45 0 min 1,6 UV-I 346 W/m 5,2 C 9,7 C 16,1 km/h (3 Bft)
30.05.2020 08:25 12,6 C 13,9 C 60 % 1025,2 hPa 0,0 l/m 11,3 km/h (2 Bft) NO 45 0 min 1,6 UV-I 348 W/m 5,0 C 9,8 C 16,1 km/h (3 Bft)
30.05.2020 08:26 12,6 C 13,9 C 61 % 1025,3 hPa 0,0 l/m 12,9 km/h (3 Bft) NO 45 0 min 1,6 UV-I 352 W/m 5,3 C 9,1 C 16,1 km/h (3 Bft)
30.05.2020 08:27 12,7 C 13,9 C 61 % 1025,3 hPa 0,0 l/m 12,9 km/h (3 Bft) NO 45 0 min 1,6 UV-I 355 W/m 5,4 C 9,2 C 19,3 km/h (3 Bft)
30.05.2020 08:28 12,7 C 13,9 C 60 % 1025,2 hPa 0,0 l/m 14,5 km/h (3 Bft) NO 45 0 min 1,6 UV-I 357 W/m 5,1 C 8,6 C 17,7 km/h (3 Bft)
30.05.2020 08:29 12,7 C 13,9 C 60 % 1025,2 hPa 0,0 l/m 12,9 km/h (3 Bft) NO 45 0 min 1,6 UV-I 359 W/m 5,1 C 9,2 C 19,3 km/h (3 Bft)
30.05.2020 08:30 12,8 C 13,9 C 60 % 1025,3 hPa 0,0 l/m 12,9 km/h (3 Bft) NO 45 0 min 1,7 UV-I 362 W/m 5,2 C 9,4 C 19,3 km/h (3 Bft)
30.05.2020 08:31 12,8 C 13,9 C 60 % 1025,2 hPa 0,0 l/m 16,1 km/h (3 Bft) NO 45 0 min 1,7 UV-I 364 W/m 5,2 C 8,1 C 19,3 km/h (3 Bft)
30.05.2020 08:32 12,8 C 13,9 C 59 % 1025,2 hPa 0,0 l/m 14,5 km/h (3 Bft) NO 45 0 min 1,7 UV-I 367 W/m 5,0 C 8,7 C 19,3 km/h (3 Bft)
30.05.2020 08:33 12,8 C 13,9 C 59 % 1025,2 hPa 0,0 l/m 12,9 km/h (3 Bft) NO 45 0 min 1,7 UV-I 371 W/m 5,0 C 9,4 C 16,1 km/h (3 Bft)
30.05.2020 08:34 12,9 C 13,9 C 60 % 1025,2 hPa 0,0 l/m 12,9 km/h (3 Bft) O-NO 67 0 min 1,7 UV-I 373 W/m 5,3 C 9,5 C 17,7 km/h (3 Bft)
30.05.2020 08:35 12,9 C 13,9 C 60 % 1025,3 hPa 0,0 l/m 17,7 km/h (3 Bft) N-NO 22 0 min 1,7 UV-I 374 W/m 5,3 C 7,7 C 22,5 km/h (4 Bft)
30.05.2020 08:38 13,0 C 13,9 C 60 % 1025,3 hPa 0,0 l/m 14,9 km/h (3 Bft) NO 34 0 min 1,8 UV-I 381 W/m 5,4 C 8,8 C 17,7 km/h (3 Bft)
30.05.2020 08:40 13,1 C 13,9 C 59 % 1025,3 hPa 0,0 l/m 15,4 km/h (3 Bft) NO 38 0 min 1,8 UV-I 387 W/m 5,3 C 8,7 C 20,9 km/h (4 Bft)
30.05.2020 08:42 13,1 C 13,9 C 59 % 1025,3 hPa 0,0 l/m 9,0 km/h (2 Bft) NO 41 0 min 1,8 UV-I 392 W/m 5,3 C 11,5 C 16,1 km/h (3 Bft)
30.05.2020 08:44 13,3 C 14,4 C 60 % 1025,3 hPa 0,0 l/m 9,4 km/h (2 Bft) N-NO 32 0 min 1,9 UV-I 396 W/m 5,7 C 11,5 C 14,5 km/h (3 Bft)
30.05.2020 08:46 13,4 C 14,4 C 59 % 1025,2 hPa 0,0 l/m 13,5 km/h (3 Bft) N-NO 32 0 min 1,9 UV-I 402 W/m 5,6 C 9,8 C 22,5 km/h (4 Bft)
30.05.2020 08:48 13,6 C 15,0 C 59 % 1025,2 hPa 0,0 l/m 10,4 km/h (2 Bft) NO 36 0 min 2,0 UV-I 406 W/m 5,7 C 11,4 C 19,3 km/h (3 Bft)
30.05.2020 08:50 13,8 C 15,0 C 61 % 1025,1 hPa 0,0 l/m 9,5 km/h (2 Bft) NO 49 0 min 2,0 UV-I 412 W/m 6,4 C 12,0 C 16,1 km/h (3 Bft)
30.05.2020 08:52 13,9 C 15,6 C 57 % 1025,2 hPa 0,0 l/m 14,4 km/h (3 Bft) NO 34 0 min 2,0 UV-I 417 W/m 5,5 C 10,1 C 19,3 km/h (3 Bft)
30.05.2020 08:54 14,1 C 15,6 C 58 % 1025,1 hPa 0,0 l/m 10,8 km/h (2 Bft) NO 40 0 min 2,1 UV-I 423 W/m 6,0 C 11,8 C 17,7 km/h (3 Bft)
30.05.2020 08:56 14,3 C 16,1 C 56 % 1025,0 hPa 0,0 l/m 13,0 km/h (3 Bft) NO 45 0 min 2,1 UV-I 429 W/m 5,6 C 11,1 C 17,7 km/h (3 Bft)
30.05.2020 08:58 14,2 C 15,6 C 55 % 1025,1 hPa 0,0 l/m 12,5 km/h (3 Bft) O-NO 69 0 min 2,2 UV-I 435 W/m 5,3 C 11,1 C 19,3 km/h (3 Bft)
30.05.2020 09:00 14,2 C 15,6 C 56 % 1025,0 hPa 0,0 l/m 10,2 km/h (2 Bft) NO 56 0 min 2,2 UV-I 439 W/m 5,6 C 12,1 C 16,1 km/h (3 Bft)
30.05.2020 09:02 14,3 C 15,6 C 55 % 1025,0 hPa 0,0 l/m 10,9 km/h (2 Bft) N-NO 32 0 min 2,2 UV-I 445 W/m 5,4 C 11,9 C 16,1 km/h (3 Bft)
30.05.2020 09:04 14,4 C 16,1 C 55 % 1025,0 hPa 0,0 l/m 13,9 km/h (3 Bft) O 96 0 min 2,3 UV-I 450 W/m 5,5 C 10,9 C 17,7 km/h (3 Bft)
30.05.2020 09:06 14,6 C 16,1 C 56 % 1024,9 hPa 0,0 l/m 8,0 km/h (2 Bft) O-SO 119 0 min 2,3 UV-I 455 W/m 5,9 C 13,7 C 16,1 km/h (3 Bft)
30.05.2020 09:08 14,6 C 16,1 C 54 % 1025,0 hPa 0,0 l/m 9,1 km/h (2 Bft) O 92 0 min 2,3 UV-I 460 W/m 5,4 C 13,1 C 14,5 km/h (3 Bft)
30.05.2020 09:10 14,6 C 16,1 C 52 % 1025,0 hPa 0,0 l/m 11,5 km/h (2 Bft) O-SO 105 0 min 2,4 UV-I 466 W/m 4,9 C 12,0 C 19,3 km/h (3 Bft)
30.05.2020 09:12 14,6 C 16,1 C 52 % 1025,0 hPa 0,0 l/m 16,4 km/h (3 Bft) O 79 0 min 2,4 UV-I 472 W/m 4,9 C 10,3 C 24,1 km/h (4 Bft)
30.05.2020 09:14 14,5 C 16,1 C 51 % 1025,0 hPa 0,0 l/m 16,2 km/h (3 Bft) SO 128 0 min 2,4 UV-I 477 W/m 4,5 C 10,2 C 24,1 km/h (4 Bft)
30.05.2020 09:16 14,6 C 16,1 C 51 % 1025,0 hPa 0,0 l/m 12,3 km/h (3 Bft) O-SO 107 0 min 2,5 UV-I 482 W/m 4,6 C 11,7 C 22,5 km/h (4 Bft)
30.05.2020 09:18 14,7 C 16,1 C 52 % 1025,1 hPa 0,0 l/m 12,6 km/h (3 Bft) SO 124 0 min 2,5 UV-I 486 W/m 5,0 C 11,7 C 24,1 km/h (4 Bft)
30.05.2020 09:20 14,7 C 16,1 C 51 % 1024,9 hPa 0,0 l/m 9,7 km/h (2 Bft) O-SO 118 0 min 2,6 UV-I 492 W/m 4,7 C 12,9 C 17,7 km/h (3 Bft)
30.05.2020 09:22 14,8 C 16,1 C 53 % 1025,0 hPa 0,0 l/m 4,7 km/h (1 Bft) NO 55 0 min 2,6 UV-I 497 W/m 5,3 C 14,8 C 12,9 km/h (3 Bft)
30.05.2020 09:24 15,2 C 17,2 C 53 % 1025,0 hPa 0,0 l/m 11,0 km/h (2 Bft) O-NO 58 0 min 2,7 UV-I 502 W/m 5,7 C 12,9 C 17,7 km/h (3 Bft)
30.05.2020 09:26 15,4 C 17,2 C 51 % 1024,9 hPa 0,0 l/m 15,6 km/h (3 Bft) NO 34 0 min 2,7 UV-I 508 W/m 5,3 C 11,5 C 24,1 km/h (4 Bft)
30.05.2020 09:28 15,4 C 16,7 C 48 % 1024,9 hPa 0,0 l/m 20,1 km/h (4 Bft) N 5 0 min 2,8 UV-I 513 W/m 4,4 C 10,2 C 30,6 km/h (5 Bft)
30.05.2020 09:30 15,3 C 16,7 C 49 % 1024,9 hPa 0,0 l/m 12,8 km/h (3 Bft) O 81 0 min 2,8 UV-I 517 W/m 4,7 C 12,3 C 20,9 km/h (4 Bft)
30.05.2020 09:32 15,3 C 17,2 C 49 % 1024,9 hPa 0,0 l/m 11,3 km/h (2 Bft) O-NO 65 0 min 2,8 UV-I 519 W/m 4,7 C 12,9 C 19,3 km/h (3 Bft)
30.05.2020 09:34 15,4 C 17,8 C 50 % 1024,8 hPa 0,0 l/m 14,8 km/h (3 Bft) O 85 0 min 2,9 UV-I 521 W/m 5,0 C 11,7 C 25,7 km/h (4 Bft)
30.05.2020 09:36 15,6 C 17,8 C 50 % 1024,9 hPa 0,0 l/m 12,0 km/h (2 Bft) O 92 0 min 2,9 UV-I 520 W/m 5,2 C 13,0 C 22,5 km/h (4 Bft)
30.05.2020 09:38 15,8 C 17,8 C 51 % 1025,0 hPa 0,0 l/m 14,7 km/h (3 Bft) O-SO 117 0 min 3,0 UV-I 520 W/m 5,7 C 12,3 C 20,9 km/h (4 Bft)
30.05.2020 09:40 15,7 C 17,8 C 49 % 1025,0 hPa 0,0 l/m 12,4 km/h (3 Bft) O-NO 76 0 min 3,0 UV-I 518 W/m 5,0 C 12,9 C 20,9 km/h (4 Bft)
30.05.2020 09:42 15,8 C 17,8 C 50 % 1024,9 hPa 0,0 l/m 10,4 km/h (2 Bft) NO 44 0 min 3,1 UV-I 516 W/m 5,4 C 13,8 C 17,7 km/h (3 Bft)
30.05.2020 09:44 15,9 C 17,2 C 49 % 1024,9 hPa 0,0 l/m 16,1 km/h (3 Bft) NO 43 0 min 3,1 UV-I 512 W/m 5,2 C 11,9 C 22,5 km/h (4 Bft)
30.05.2020 09:46 15,9 C 17,8 C 50 % 1024,9 hPa 0,0 l/m 16,0 km/h (3 Bft) NO 51 0 min 3,1 UV-I 508 W/m 5,5 C 12,0 C 27,4 km/h (4 Bft)
30.05.2020 09:48 15,8 C 17,8 C 48 % 1024,9 hPa 0,0 l/m 17,5 km/h (3 Bft) O 94 0 min 3,2 UV-I 503 W/m 4,8 C 11,4 C 25,7 km/h (4 Bft)
30.05.2020 09:50 15,7 C 17,8 C 49 % 1025,0 hPa 0,0 l/m 12,4 km/h (3 Bft) O-NO 64 0 min 3,2 UV-I 499 W/m 5,0 C 12,9 C 20,9 km/h (4 Bft)
30.05.2020 09:52 15,8 C 17,8 C 49 % 1024,9 hPa 0,0 l/m 19,3 km/h (3 Bft) O-NO 59 0 min 3,2 UV-I 493 W/m 5,1 C 11,0 C 27,4 km/h (4 Bft)
30.05.2020 09:54 15,9 C 17,8 C 49 % 1024,9 hPa 0,0 l/m 19,4 km/h (3 Bft) N-NO 24 0 min 3,3 UV-I 489 W/m 5,2 C 11,1 C 27,4 km/h (4 Bft)
30.05.2020 09:56 16,0 C 17,8 C 48 % 1024,9 hPa 0,0 l/m 23,8 km/h (4 Bft) NO 50 0 min 3,3 UV-I 482 W/m 5,0 C 10,2 C 30,6 km/h (5 Bft)
30.05.2020 09:58 15,9 C 17,8 C 48 % 1024,9 hPa 0,0 l/m 18,6 km/h (3 Bft) NO 44 0 min 3,4 UV-I 481 W/m 4,9 C 11,3 C 30,6 km/h (5 Bft)
30.05.2020 10:00 15,9 C 17,8 C 47 % 1024,9 hPa 0,0 l/m 23,9 km/h (4 Bft) NO 49 0 min 3,4 UV-I 479 W/m 4,6 C 10,0 C 33,8 km/h (5 Bft)
30.05.2020 10:02 15,9 C 17,8 C 47 % 1024,9 hPa 0,0 l/m 24,0 km/h (4 Bft) N-NO 33 0 min 3,5 UV-I 478 W/m 4,6 C 10,0 C 32,2 km/h (5 Bft)
30.05.2020 10:04 15,8 C 17,8 C 47 % 1024,9 hPa 0,0 l/m 25,3 km/h (4 Bft) NO 40 0 min 3,5 UV-I 476 W/m 4,5 C 9,6 C 38,6 km/h (5 Bft)
30.05.2020 10:06 15,8 C 17,8 C 46 % 1024,9 hPa 0,0 l/m 19,3 km/h (3 Bft) O 80 0 min 3,5 UV-I 477 W/m 4,2 C 11,0 C 25,7 km/h (4 Bft)
30.05.2020 10:08 16,0 C 17,8 C 48 % 1024,9 hPa 0,0 l/m 16,5 km/h (3 Bft) O-NO 60 0 min 3,6 UV-I 481 W/m 5,0 C 12,0 C 27,4 km/h (4 Bft)
30.05.2020 10:10 16,1 C 17,8 C 47 % 1024,9 hPa 0,0 l/m 14,6 km/h (3 Bft) O 88 0 min 3,6 UV-I 482 W/m 4,8 C 12,6 C 24,1 km/h (4 Bft)
30.05.2020 10:12 16,2 C 18,3 C 46 % 1024,9 hPa 0,0 l/m 21,5 km/h (4 Bft) NO 53 0 min 3,7 UV-I 489 W/m 4,6 C 11,0 C 29,0 km/h (5 Bft)
30.05.2020 10:14 16,3 C 18,3 C 45 % 1024,9 hPa 0,0 l/m 21,4 km/h (4 Bft) O-NO 62 0 min 3,7 UV-I 496 W/m 4,3 C 11,1 C 33,8 km/h (5 Bft)
30.05.2020 10:16 16,3 C 18,3 C 46 % 1024,9 hPa 0,0 l/m 19,3 km/h (3 Bft) NO 53 0 min 3,8 UV-I 506 W/m 4,7 C 11,6 C 29,0 km/h (5 Bft)
30.05.2020 10:18 16,4 C 18,3 C 45 % 1024,9 hPa 0,0 l/m 14,7 km/h (3 Bft) NO 50 0 min 3,8 UV-I 515 W/m 4,4 C 13,0 C 22,5 km/h (4 Bft)
30.05.2020 10:20 16,3 C 17,8 C 45 % 1024,8 hPa 0,0 l/m 14,4 km/h (3 Bft) O-SO 109 0 min 3,9 UV-I 530 W/m 4,3 C 13,0 C 22,5 km/h (4 Bft)
30.05.2020 10:22 16,1 C 18,3 C 44 % 1025,0 hPa 0,0 l/m 14,9 km/h (3 Bft) O 92 0 min 3,9 UV-I 543 W/m 3,8 C 12,6 C 29,0 km/h (5 Bft)
30.05.2020 10:24 16,0 C 17,8 C 45 % 1025,0 hPa 0,0 l/m 20,1 km/h (4 Bft) O 79 0 min 3,9 UV-I 558 W/m 4,1 C 11,0 C 27,4 km/h (4 Bft)
30.05.2020 10:26 16,1 C 18,3 C 46 % 1025,0 hPa 0,0 l/m 15,3 km/h (3 Bft) O-SO 120 0 min 4,0 UV-I 574 W/m 4,5 C 12,4 C 25,7 km/h (4 Bft)
30.05.2020 10:28 16,3 C 18,3 C 45 % 1024,9 hPa 0,0 l/m 16,6 km/h (3 Bft) O-NO 71 2 min 4,0 UV-I 591 W/m 4,3 C 12,3 C 27,4 km/h (4 Bft)
30.05.2020 10:30 16,4 C 18,9 C 45 % 1025,0 hPa 0,0 l/m 18,1 km/h (3 Bft) O-NO 65 2 min 4,0 UV-I 608 W/m 4,4 C 12,0 C 32,2 km/h (5 Bft)
30.05.2020 10:32 16,4 C 18,9 C 45 % 1024,9 hPa 0,0 l/m 18,9 km/h (3 Bft) O 81 2 min 4,1 UV-I 622 W/m 4,4 C 11,8 C 30,6 km/h (5 Bft)
30.05.2020 10:34 16,3 C 18,9 C 44 % 1024,9 hPa 0,0 l/m 22,6 km/h (4 Bft) NO 42 2 min 4,2 UV-I 637 W/m 4,0 C 10,8 C 35,4 km/h (5 Bft)
30.05.2020 10:36 16,3 C 18,9 C 44 % 1025,0 hPa 0,0 l/m 21,2 km/h (4 Bft) NO 55 2 min 4,2 UV-I 654 W/m 4,0 C 11,2 C 32,2 km/h (5 Bft)
30.05.2020 10:38 16,6 C 19,4 C 45 % 1024,9 hPa 0,0 l/m 19,7 km/h (3 Bft) NO 38 2 min 4,2 UV-I 666 W/m 4,6 C 11,9 C 29,0 km/h (5 Bft)
30.05.2020 10:40 16,7 C 19,4 C 44 % 1024,9 hPa 0,0 l/m 24,2 km/h (4 Bft) NO 55 2 min 4,3 UV-I 676 W/m 4,4 C 11,1 C 32,2 km/h (5 Bft)
30.05.2020 10:42 16,5 C 19,4 C 43 % 1024,8 hPa 0,0 l/m 24,9 km/h (4 Bft) O-NO 63 2 min 4,3 UV-I 685 W/m 3,9 C 10,7 C 40,2 km/h (6 Bft)
30.05.2020 10:44 16,6 C 18,9 C 45 % 1025,0 hPa 0,0 l/m 15,5 km/h (3 Bft) O 98 2 min 4,4 UV-I 695 W/m 4,6 C 13,0 C 22,5 km/h (4 Bft)
30.05.2020 10:46 16,4 C 18,9 C 42 % 1025,1 hPa 0,0 l/m 21,5 km/h (4 Bft) O-SO 103 2 min 4,4 UV-I 698 W/m 3,5 C 11,2 C 30,6 km/h (5 Bft)
30.05.2020 10:48 16,3 C 18,9 C 43 % 1025,0 hPa 0,0 l/m 16,1 km/h (3 Bft) O-NO 57 2 min 4,5 UV-I 703 W/m 3,7 C 12,4 C 25,7 km/h (4 Bft)
30.05.2020 10:50 16,4 C 18,9 C 44 % 1024,9 hPa 0,0 l/m 14,1 km/h (3 Bft) O 80 2 min 4,5 UV-I 708 W/m 4,1 C 13,2 C 22,5 km/h (4 Bft)
30.05.2020 10:52 16,7 C 20,0 C 43 % 1024,8 hPa 0,0 l/m 15,5 km/h (3 Bft) O-NO 69 2 min 4,6 UV-I 713 W/m 4,1 C 13,1 C 30,6 km/h (5 Bft)
30.05.2020 10:54 16,7 C 19,4 C 42 % 1024,9 hPa 0,0 l/m 16,9 km/h (3 Bft) O 91 2 min 4,6 UV-I 714 W/m 3,7 C 12,7 C 27,4 km/h (4 Bft)
30.05.2020 10:56 16,7 C 20,0 C 42 % 1025,0 hPa 0,0 l/m 20,0 km/h (4 Bft) O 95 2 min 4,7 UV-I 717 W/m 3,7 C 11,9 C 32,2 km/h (5 Bft)
30.05.2020 10:58 16,7 C 20,0 C 43 % 1024,9 hPa 0,0 l/m 16,2 km/h (3 Bft) O-NO 60 2 min 4,7 UV-I 720 W/m 4,1 C 12,9 C 20,9 km/h (4 Bft)
30.05.2020 11:00 16,7 C 20,0 C 44 % 1024,8 hPa 0,0 l/m 11,4 km/h (2 Bft) O-SO 111 2 min 4,8 UV-I 727 W/m 4,4 C 14,4 C 20,9 km/h (4 Bft)
30.05.2020 11:02 16,8 C 20,0 C 42 % 1024,8 hPa 0,0 l/m 18,5 km/h (3 Bft) NO 38 2 min 4,8 UV-I 733 W/m 3,8 C 12,4 C 27,4 km/h (4 Bft)
30.05.2020 11:04 16,9 C 20,0 C 42 % 1024,9 hPa 0,0 l/m 25,8 km/h (4 Bft) O 84 2 min 4,9 UV-I 737 W/m 3,9 C 11,0 C 33,8 km/h (5 Bft)
30.05.2020 11:06 16,8 C 20,0 C 43 % 1024,8 hPa 0,0 l/m 17,3 km/h (3 Bft) N-NO 21 2 min 4,9 UV-I 743 W/m 4,2 C 12,7 C 24,1 km/h (4 Bft)
30.05.2020 11:08 16,8 C 20,0 C 45 % 1024,9 hPa 0,0 l/m 12,3 km/h (3 Bft) O-NO 62 2 min 4,9 UV-I 745 W/m 4,8 C 14,2 C 24,1 km/h (4 Bft)
30.05.2020 11:10 16,9 C 20,6 C 44 % 1024,8 hPa 0,0 l/m 15,2 km/h (3 Bft) O-SO 120 2 min 5,0 UV-I 746 W/m 4,6 C 13,4 C 24,1 km/h (4 Bft)
30.05.2020 11:12 17,2 C 21,1 C 43 % 1024,9 hPa 0,0 l/m 16,8 km/h (3 Bft) O-NO 67 2 min 5,0 UV-I 747 W/m 4,5 C 13,4 C 30,6 km/h (5 Bft)
30.05.2020 11:14 16,9 C 20,0 C 42 % 1024,9 hPa 0,0 l/m 22,5 km/h (4 Bft) O 101 2 min 5,1 UV-I 754 W/m 3,9 C 11,7 C 29,0 km/h (5 Bft)
30.05.2020 11:16 16,8 C 20,0 C 42 % 1024,9 hPa 0,0 l/m 19,9 km/h (4 Bft) O-NO 78 2 min 5,1 UV-I 753 W/m 3,8 C 12,1 C 27,4 km/h (4 Bft)
30.05.2020 11:18 16,8 C 20,6 C 44 % 1024,9 hPa 0,0 l/m 18,6 km/h (3 Bft) SO 139 2 min 5,1 UV-I 755 W/m 4,5 C 12,4 C 29,0 km/h (5 Bft)
30.05.2020 11:20 17,1 C 20,6 C 42 % 1024,9 hPa 0,0 l/m 15,1 km/h (3 Bft) O-SO 123 2 min 5,2 UV-I 759 W/m 4,1 C 13,7 C 25,7 km/h (4 Bft)
30.05.2020 11:22 17,1 C 21,1 C 43 % 1024,8 hPa 0,0 l/m 20,4 km/h (4 Bft) NO 39 2 min 5,2 UV-I 764 W/m 4,4 C 12,4 C 29,0 km/h (5 Bft)
30.05.2020 11:24 17,2 C 21,7 C 44 % 1024,7 hPa 0,0 l/m 14,6 km/h (3 Bft) O 91 2 min 5,3 UV-I 776 W/m 4,8 C 14,0 C 30,6 km/h (5 Bft)
30.05.2020 11:26 17,4 C 22,2 C 43 % 1024,7 hPa 0,0 l/m 14,8 km/h (3 Bft) SO 142 2 min 5,4 UV-I 794 W/m 4,7 C 14,2 C 27,4 km/h (4 Bft)
30.05.2020 11:28 17,2 C 21,7 C 42 % 1024,7 hPa 0,0 l/m 16,3 km/h (3 Bft) O-SO 117 2 min 5,5 UV-I 819 W/m 4,2 C 13,5 C 25,7 km/h (4 Bft)
30.05.2020 11:30 17,1 C 21,7 C 43 % 1024,7 hPa 0,0 l/m 13,7 km/h (3 Bft) N-NO 24 2 min 5,6 UV-I 832 W/m 4,4 C 14,1 C 20,9 km/h (4 Bft)
30.05.2020 11:32 17,2 C 22,2 C 44 % 1024,6 hPa 0,0 l/m 9,0 km/h (2 Bft) SO 131 2 min 5,5 UV-I 799 W/m 4,8 C 16,0 C 19,3 km/h (3 Bft)
30.05.2020 11:34 17,2 C 22,2 C 43 % 1024,6 hPa 0,0 l/m 13,9 km/h (3 Bft) O-NO 69 2 min 5,5 UV-I 799 W/m 4,5 C 14,2 C 24,1 km/h (4 Bft)
30.05.2020 11:36 17,4 C 22,8 C 41 % 1024,4 hPa 0,0 l/m 17,3 km/h (3 Bft) O 84 2 min 5,1 UV-I 799 W/m 4,0 C 13,5 C 25,7 km/h (4 Bft)
30.05.2020 11:38 17,5 C 22,8 C 45 % 1024,6 hPa 0,0 l/m 17,2 km/h (3 Bft) NO 45 2 min 5,7 UV-I 820 W/m 5,4 C 13,6 C 25,7 km/h (4 Bft)
30.05.2020 11:40 17,6 C 22,2 C 42 % 1024,6 hPa 0,0 l/m 19,0 km/h (3 Bft) O-NO 73 2 min 5,7 UV-I 806 W/m 4,5 C 13,3 C 25,7 km/h (4 Bft)
30.05.2020 11:42 17,4 C 21,1 C 43 % 1024,6 hPa 0,0 l/m 18,7 km/h (3 Bft) NO 38 2 min 3,8 UV-I 696 W/m 4,7 C 13,1 C 29,0 km/h (5 Bft)
30.05.2020 11:44 17,2 C 19,4 C 41 % 1024,6 hPa 0,0 l/m 16,0 km/h (3 Bft) NO 39 0 min 3,9 UV-I 496 W/m 3,8 C 13,6 C 22,5 km/h (4 Bft)
30.05.2020 11:46 16,9 C 20,0 C 43 % 1024,4 hPa 0,0 l/m 16,0 km/h (3 Bft) NO 44 0 min 5,3 UV-I 248 W/m 4,2 C 13,2 C 19,3 km/h (3 Bft)
30.05.2020 11:48 17,4 C 21,7 C 45 % 1024,3 hPa 0,0 l/m 18,5 km/h (3 Bft) N-NO 30 2 min 5,8 UV-I 815 W/m 5,3 C 13,2 C 30,6 km/h (5 Bft)
30.05.2020 11:50 17,8 C 22,8 C 43 % 1024,4 hPa 0,0 l/m 21,4 km/h (4 Bft) O-NO 64 2 min 5,8 UV-I 815 W/m 5,1 C 13,1 C 30,6 km/h (5 Bft)
30.05.2020 11:52 17,8 C 22,2 C 42 % 1024,6 hPa 0,0 l/m 15,5 km/h (3 Bft) O 98 2 min 5,8 UV-I 814 W/m 4,7 C 14,4 C 25,7 km/h (4 Bft)
30.05.2020 11:54 17,7 C 22,8 C 42 % 1024,5 hPa 0,0 l/m 11,4 km/h (2 Bft) O-NO 69 2 min 5,9 UV-I 816 W/m 4,6 C 15,6 C 20,9 km/h (4 Bft)
30.05.2020 11:56 17,9 C 23,9 C 42 % 1024,4 hPa 0,0 l/m 11,4 km/h (2 Bft) N-NO 32 2 min 5,9 UV-I 819 W/m 4,8 C 15,8 C 16,1 km/h (3 Bft)
30.05.2020 11:58 18,1 C 23,9 C 41 % 1024,5 hPa 0,0 l/m 17,0 km/h (3 Bft) NO 46 2 min 5,9 UV-I 818 W/m 4,6 C 14,4 C 24,1 km/h (4 Bft)
30.05.2020 12:00 18,2 C 23,9 C 41 % 1024,4 hPa 0,0 l/m 17,8 km/h (3 Bft) O-SO 107 2 min 6,0 UV-I 824 W/m 4,7 C 14,4 C 24,1 km/h (4 Bft)
30.05.2020 12:02 18,4 C 23,9 C 43 % 1024,4 hPa 0,0 l/m 19,8 km/h (3 Bft) NO 36 2 min 6,1 UV-I 827 W/m 5,6 C 14,2 C 30,6 km/h (5 Bft)
30.05.2020 12:04 18,4 C 23,3 C 39 % 1024,4 hPa 0,0 l/m 19,9 km/h (4 Bft) NO 45 2 min 6,1 UV-I 830 W/m 4,2 C 14,2 C 27,4 km/h (4 Bft)
30.05.2020 12:06 18,3 C 23,3 C 40 % 1024,3 hPa 0,0 l/m 15,0 km/h (3 Bft) NO 55 2 min 6,1 UV-I 824 W/m 4,5 C 15,2 C 27,4 km/h (4 Bft)
30.05.2020 12:08 18,1 C 23,3 C 40 % 1024,3 hPa 0,0 l/m 22,2 km/h (4 Bft) O-NO 59 2 min 6,1 UV-I 826 W/m 4,3 C 13,3 C 32,2 km/h (5 Bft)
30.05.2020 12:10 17,9 C 22,8 C 42 % 1024,3 hPa 0,0 l/m 23,3 km/h (4 Bft) O-NO 63 2 min 6,1 UV-I 833 W/m 4,8 C 12,8 C 33,8 km/h (5 Bft)
30.05.2020 12:12 17,9 C 22,2 C 41 % 1024,4 hPa 0,0 l/m 22,4 km/h (4 Bft) NO 47 2 min 6,2 UV-I 837 W/m 4,5 C 13,0 C 32,2 km/h (5 Bft)
30.05.2020 12:14 17,8 C 22,8 C 41 % 1024,4 hPa 0,0 l/m 19,2 km/h (3 Bft) O-NO 62 2 min 6,2 UV-I 838 W/m 4,4 C 13,5 C 27,4 km/h (4 Bft)
30.05.2020 12:16 17,9 C 22,8 C 41 % 1024,3 hPa 0,0 l/m 18,5 km/h (3 Bft) O-NO 78 2 min 6,3 UV-I 845 W/m 4,5 C 13,8 C 27,4 km/h (4 Bft)
30.05.2020 12:18 17,9 C 22,8 C 40 % 1024,4 hPa 0,0 l/m 24,5 km/h (4 Bft) O-NO 59 2 min 6,4 UV-I 851 W/m 4,1 C 12,6 C 30,6 km/h (5 Bft)
30.05.2020 12:20 17,7 C 23,3 C 39 % 1024,3 hPa 0,0 l/m 14,8 km/h (3 Bft) O 80 2 min 6,3 UV-I 849 W/m 3,6 C 14,5 C 24,1 km/h (4 Bft)
30.05.2020 12:22 17,8 C 24,4 C 41 % 1024,4 hPa 0,0 l/m 11,7 km/h (2 Bft) NO 53 2 min 6,4 UV-I 848 W/m 4,4 C 15,6 C 22,5 km/h (4 Bft)
30.05.2020 12:24 17,9 C 23,3 C 43 % 1024,4 hPa 0,0 l/m 19,2 km/h (3 Bft) NO 51 2 min 6,4 UV-I 848 W/m 5,1 C 13,7 C 29,0 km/h (5 Bft)
30.05.2020 12:26 18,1 C 23,3 C 41 % 1024,3 hPa 0,0 l/m 20,4 km/h (4 Bft) N-NO 17 2 min 6,4 UV-I 852 W/m 4,6 C 13,7 C 30,6 km/h (5 Bft)
30.05.2020 12:28 18,3 C 23,9 C 42 % 1024,4 hPa 0,0 l/m 13,2 km/h (3 Bft) N-NO 28 2 min 6,4 UV-I 854 W/m 5,2 C 15,7 C 20,9 km/h (4 Bft)
30.05.2020 12:30 18,3 C 24,4 C 41 % 1024,3 hPa 0,0 l/m 13,3 km/h (3 Bft) NO 42 2 min 6,5 UV-I 858 W/m 4,8 C 15,7 C 19,3 km/h (3 Bft)
30.05.2020 12:32 18,4 C 23,9 C 43 % 1024,3 hPa 0,0 l/m 11,1 km/h (2 Bft) N-NO 19 2 min 6,5 UV-I 859 W/m 5,6 C 16,5 C 24,1 km/h (4 Bft)
30.05.2020 12:34 18,7 C 23,9 C 40 % 1024,3 hPa 0,0 l/m 20,8 km/h (4 Bft) NO 40 2 min 6,5 UV-I 861 W/m 4,8 C 14,4 C 32,2 km/h (5 Bft)
30.05.2020 12:36 18,4 C 23,9 C 40 % 1024,2 hPa 0,0 l/m 18,9 km/h (3 Bft) O-NO 63 2 min 6,5 UV-I 863 W/m 4,6 C 14,4 C 27,4 km/h (4 Bft)
30.05.2020 12:38 18,3 C 23,3 C 41 % 1024,2 hPa 0,0 l/m 20,8 km/h (4 Bft) NO 50 2 min 6,5 UV-I 861 W/m 4,8 C 13,8 C 27,4 km/h (4 Bft)
30.05.2020 12:40 18,3 C 23,3 C 41 % 1024,2 hPa 0,0 l/m 19,4 km/h (3 Bft) N-NO 33 2 min 6,7 UV-I 900 W/m 4,8 C 14,1 C 24,1 km/h (4 Bft)
30.05.2020 12:42 18,1 C 23,3 C 42 % 1024,2 hPa 0,0 l/m 7,8 km/h (2 Bft) NO 51 2 min 5,4 UV-I 911 W/m 5,0 C 17,4 C 14,5 km/h (3 Bft)
30.05.2020 12:44 18,3 C 24,4 C 42 % 1024,1 hPa 0,0 l/m 11,5 km/h (2 Bft) O-NO 60 2 min 6,7 UV-I 894 W/m 5,2 C 16,2 C 19,3 km/h (3 Bft)
30.05.2020 12:46 18,3 C 25,0 C 40 % 1024,0 hPa 0,0 l/m 14,7 km/h (3 Bft) N-NO 27 2 min 6,7 UV-I 884 W/m 4,5 C 15,3 C 22,5 km/h (4 Bft)
30.05.2020 12:48 18,7 C 25,6 C 41 % 1024,0 hPa 0,0 l/m 21,7 km/h (4 Bft) NO 43 2 min 6,7 UV-I 885 W/m 5,2 C 14,2 C 33,8 km/h (5 Bft)
30.05.2020 12:50 18,7 C 25,6 C 41 % 1024,0 hPa 0,0 l/m 14,5 km/h (3 Bft) O-NO 57 2 min 6,7 UV-I 888 W/m 5,2 C 15,8 C 25,7 km/h (4 Bft)
30.05.2020 12:52 18,7 C 25,0 C 41 % 1024,1 hPa 0,0 l/m 18,8 km/h (3 Bft) NO 55 2 min 6,8 UV-I 891 W/m 5,2 C 14,8 C 29,0 km/h (5 Bft)
30.05.2020 12:54 18,7 C 24,4 C 40 % 1024,1 hPa 0,0 l/m 17,1 km/h (3 Bft) NO 51 2 min 6,0 UV-I 913 W/m 4,8 C 15,2 C 24,1 km/h (4 Bft)
30.05.2020 12:56 18,3 C 24,4 C 40 % 1024,1 hPa 0,0 l/m 16,4 km/h (3 Bft) N-NO 17 2 min 6,6 UV-I 912 W/m 4,5 C 14,8 C 24,1 km/h (4 Bft)
30.05.2020 12:58 18,2 C 24,4 C 41 % 1024,1 hPa 0,0 l/m 11,4 km/h (2 Bft) NO 42 2 min 6,8 UV-I 898 W/m 4,7 C 16,2 C 16,1 km/h (3 Bft)
30.05.2020 13:00 18,3 C 24,4 C 43 % 1024,0 hPa 0,0 l/m 13,6 km/h (3 Bft) O-NO 65 2 min 6,8 UV-I 893 W/m 5,5 C 15,6 C 22,5 km/h (4 Bft)
30.05.2020 13:02 18,5 C 25,0 C 42 % 1024,0 hPa 0,0 l/m 16,9 km/h (3 Bft) O-NO 68 2 min 6,8 UV-I 897 W/m 5,3 C 15,0 C 22,5 km/h (4 Bft)
30.05.2020 13:04 18,3 C 25,0 C 41 % 1024,0 hPa 0,0 l/m 16,5 km/h (3 Bft) NO 46 2 min 6,9 UV-I 902 W/m 4,8 C 14,8 C 22,5 km/h (4 Bft)
30.05.2020 13:06 18,4 C 24,4 C 41 % 1023,9 hPa 0,0 l/m 17,7 km/h (3 Bft) O-NO 69 2 min 6,9 UV-I 896 W/m 4,9 C 14,6 C 27,4 km/h (4 Bft)
30.05.2020 13:08 18,4 C 23,9 C 41 % 1023,9 hPa 0,0 l/m 22,2 km/h (4 Bft) O-NO 74 2 min 6,9 UV-I 904 W/m 4,9 C 13,7 C 35,4 km/h (5 Bft)
30.05.2020 13:10 18,4 C 24,4 C 41 % 1023,9 hPa 0,0 l/m 15,8 km/h (3 Bft) N-NO 21 2 min 6,9 UV-I 904 W/m 4,9 C 15,1 C 20,9 km/h (4 Bft)
30.05.2020 13:12 18,8 C 25,0 C 41 % 1023,9 hPa 0,0 l/m 15,3 km/h (3 Bft) O-NO 75 2 min 6,9 UV-I 911 W/m 5,3 C 15,7 C 22,5 km/h (4 Bft)
30.05.2020 13:14 19,0 C 25,6 C 42 % 1024,0 hPa 0,0 l/m 17,1 km/h (3 Bft) NO 55 2 min 6,9 UV-I 920 W/m 5,8 C 15,5 C 24,1 km/h (4 Bft)
30.05.2020 13:16 18,8 C 25,0 C 40 % 1024,0 hPa 0,0 l/m 16,1 km/h (3 Bft) NO 43 2 min 7,0 UV-I 930 W/m 4,9 C 15,5 C 25,7 km/h (4 Bft)
30.05.2020 13:18 18,8 C 25,6 C 41 % 1023,8 hPa 0,0 l/m 22,0 km/h (4 Bft) O-NO 70 2 min 7,0 UV-I 930 W/m 5,3 C 14,3 C 33,8 km/h (5 Bft)
30.05.2020 13:20 18,7 C 25,0 C 42 % 1023,8 hPa 0,0 l/m 13,6 km/h (3 Bft) O 80 2 min 7,0 UV-I 927 W/m 5,5 C 16,1 C 22,5 km/h (4 Bft)
30.05.2020 13:22 18,8 C 25,6 C 41 % 1023,9 hPa 0,0 l/m 16,2 km/h (3 Bft) N-NO 33 2 min 7,1 UV-I 932 W/m 5,3 C 15,5 C 24,1 km/h (4 Bft)
30.05.2020 13:24 18,7 C 25,6 C 40 % 1023,9 hPa 0,0 l/m 15,9 km/h (3 Bft) O 100 2 min 7,1 UV-I 936 W/m 4,8 C 15,4 C 20,9 km/h (4 Bft)
30.05.2020 13:26 18,6 C 26,7 C 41 % 1023,9 hPa 0,0 l/m 12,1 km/h (2 Bft) N-NO 19 2 min 7,0 UV-I 944 W/m 5,1 C 16,4 C 17,7 km/h (3 Bft)
30.05.2020 13:28 18,9 C 26,7 C 43 % 1023,8 hPa 0,0 l/m 12,6 km/h (3 Bft) N-NO 28 2 min 7,1 UV-I 958 W/m 6,0 C 16,6 C 17,7 km/h (3 Bft)
30.05.2020 13:30 19,4 C 27,2 C 43 % 1023,8 hPa 0,0 l/m 13,2 km/h (3 Bft) N-NO 24 2 min 6,6 UV-I 992 W/m 6,5 C 17,0 C 20,9 km/h (4 Bft)
30.05.2020 13:32 19,3 C 26,7 C 44 % 1023,9 hPa 0,0 l/m 16,3 km/h (3 Bft) N-NO 24 2 min 5,8 UV-I 1012 W/m 6,7 C 16,1 C 19,3 km/h (3 Bft)
30.05.2020 13:34 19,6 C 27,2 C 44 % 1023,8 hPa 0,0 l/m 15,5 km/h (3 Bft) N-NO 24 2 min 7,4 UV-I 991 W/m 7,0 C 16,6 C 20,9 km/h (4 Bft)
30.05.2020 13:36 19,7 C 27,8 C 41 % 1023,9 hPa 0,0 l/m 17,9 km/h (3 Bft) N-NO 25 2 min 7,3 UV-I 978 W/m 6,1 C 16,2 C 27,4 km/h (4 Bft)
30.05.2020 13:38 19,9 C 28,9 C 43 % 1023,8 hPa 0,0 l/m 17,6 km/h (3 Bft) NO 46 2 min 7,4 UV-I 998 W/m 6,9 C 16,5 C 30,6 km/h (5 Bft)
30.05.2020 13:40 19,7 C 27,8 C 41 % 1023,8 hPa 0,0 l/m 18,6 km/h (3 Bft) O-NO 61 2 min 7,5 UV-I 1027 W/m 6,1 C 16,1 C 25,7 km/h (4 Bft)
30.05.2020 13:42 19,7 C 27,2 C 42 % 1023,8 hPa 0,0 l/m 16,7 km/h (3 Bft) O 94 2 min 7,5 UV-I 1056 W/m 6,4 C 16,5 C 24,1 km/h (4 Bft)
30.05.2020 13:44 19,7 C 27,2 C 40 % 1023,8 hPa 0,0 l/m 14,7 km/h (3 Bft) O-NO 68 2 min 7,1 UV-I 1099 W/m 5,7 C 17,0 C 22,5 km/h (4 Bft)
30.05.2020 13:46 19,4 C 26,1 C 42 % 1023,7 hPa 0,0 l/m 17,8 km/h (3 Bft) N-NO 32 2 min 5,0 UV-I 1099 W/m 6,2 C 15,9 C 20,9 km/h (4 Bft)
30.05.2020 13:48 19,2 C 25,0 C 41 % 1023,7 hPa 0,0 l/m 13,0 km/h (3 Bft) NO 39 2 min 4,2 UV-I 725 W/m 5,6 C 16,8 C 19,3 km/h (3 Bft)
30.05.2020 13:50 18,7 C 23,3 C 41 % 1023,8 hPa 0,0 l/m 16,2 km/h (3 Bft) N 5 0 min 3,2 UV-I 262 W/m 5,2 C 15,4 C 22,5 km/h (4 Bft)
30.05.2020 13:52 18,4 C 22,8 C 43 % 1023,8 hPa 0,0 l/m 16,0 km/h (3 Bft) N-NO 32 0 min 3,2 UV-I 258 W/m 5,6 C 15,1 C 22,5 km/h (4 Bft)
30.05.2020 13:54 18,3 C 22,2 C 45 % 1023,9 hPa 0,0 l/m 22,1 km/h (4 Bft) N-NO 17 0 min 4,8 UV-I 295 W/m 6,2 C 13,6 C 29,0 km/h (5 Bft)
30.05.2020 13:56 18,7 C 25,0 C 43 % 1023,8 hPa 0,0 l/m 17,8 km/h (3 Bft) N-NO 26 2 min 7,4 UV-I 808 W/m 5,9 C 15,0 C 25,7 km/h (4 Bft)
30.05.2020 13:58 18,9 C 25,6 C 41 % 1023,8 hPa 0,0 l/m 12,0 km/h (2 Bft) NO 49 2 min 5,0 UV-I 1120 W/m 5,4 C 16,8 C 19,3 km/h (3 Bft)
30.05.2020 14:00 18,5 C 23,9 C 41 % 1023,7 hPa 0,0 l/m 12,3 km/h (3 Bft) O-NO 77 0 min 3,5 UV-I 349 W/m 5,0 C 16,2 C 19,3 km/h (3 Bft)
30.05.2020 14:02 18,3 C 22,8 C 41 % 1023,8 hPa 0,0 l/m 14,5 km/h (3 Bft) N-NO 26 0 min 4,0 UV-I 283 W/m 4,8 C 15,3 C 19,3 km/h (3 Bft)
30.05.2020 14:04 18,7 C 25,0 C 43 % 1023,8 hPa 0,0 l/m 13,6 km/h (3 Bft) O-NO 59 2 min 6,4 UV-I 931 W/m 5,9 C 16,1 C 20,9 km/h (4 Bft)
30.05.2020 14:06 18,7 C 23,3 C 42 % 1023,7 hPa 0,0 l/m 16,2 km/h (3 Bft) N-NO 16 2 min 3,6 UV-I 668 W/m 5,5 C 15,4 C 22,5 km/h (4 Bft)
30.05.2020 14:08 18,3 C 22,2 C 41 % 1023,8 hPa 0,0 l/m 12,8 km/h (3 Bft) N-NO 26 0 min 3,4 UV-I 228 W/m 4,8 C 15,8 C 22,5 km/h (4 Bft)
30.05.2020 14:10 17,9 C 23,3 C 44 % 1023,6 hPa 0,0 l/m 11,9 km/h (2 Bft) NO 52 0 min 5,5 UV-I 220 W/m 5,5 C 15,6 C 20,9 km/h (4 Bft)
30.05.2020 14:12 18,3 C 25,6 C 44 % 1023,6 hPa 0,0 l/m 11,3 km/h (2 Bft) O 88 2 min 6,9 UV-I 651 W/m 5,8 C 16,3 C 19,3 km/h (3 Bft)
30.05.2020 14:14 18,6 C 26,1 C 43 % 1023,5 hPa 0,0 l/m 19,4 km/h (3 Bft) O-NO 67 2 min 6,0 UV-I 1078 W/m 5,8 C 14,5 C 29,0 km/h (5 Bft)
30.05.2020 14:16 18,2 C 23,9 C 42 % 1023,5 hPa 0,0 l/m 21,8 km/h (4 Bft) O-NO 60 2 min 4,2 UV-I 1078 W/m 5,1 C 13,5 C 27,4 km/h (4 Bft)
30.05.2020 14:18 18,1 C 23,9 C 43 % 1023,6 hPa 0,0 l/m 16,6 km/h (3 Bft) NO 49 0 min 5,7 UV-I 429 W/m 5,3 C 14,5 C 22,5 km/h (4 Bft)
30.05.2020 14:20 18,4 C 25,6 C 42 % 1023,5 hPa 0,0 l/m 17,1 km/h (3 Bft) NO 52 2 min 7,1 UV-I 1009 W/m 5,3 C 14,8 C 30,6 km/h (5 Bft)
30.05.2020 14:22 18,6 C 26,1 C 42 % 1023,5 hPa 0,0 l/m 17,2 km/h (3 Bft) NO 53 2 min 6,9 UV-I 985 W/m 5,4 C 15,0 C 25,7 km/h (4 Bft)
30.05.2020 14:24 18,8 C 26,7 C 43 % 1023,5 hPa 0,0 l/m 17,3 km/h (3 Bft) N 10 2 min 7,0 UV-I 967 W/m 6,0 C 15,2 C 25,7 km/h (4 Bft)
30.05.2020 14:26 19,2 C 27,2 C 42 % 1023,5 hPa 0,0 l/m 16,8 km/h (3 Bft) O-NO 74 2 min 7,0 UV-I 965 W/m 6,0 C 15,8 C 22,5 km/h (4 Bft)
30.05.2020 14:28 19,3 C 27,8 C 41 % 1023,4 hPa 0,0 l/m 18,9 km/h (3 Bft) NO 53 2 min 6,9 UV-I 969 W/m 5,7 C 15,5 C 27,4 km/h (4 Bft)
30.05.2020 14:30 19,4 C 28,3 C 42 % 1023,4 hPa 0,0 l/m 14,4 km/h (3 Bft) O-NO 58 2 min 6,9 UV-I 970 W/m 6,2 C 16,7 C 22,5 km/h (4 Bft)
30.05.2020 14:32 19,6 C 28,9 C 41 % 1023,4 hPa 0,0 l/m 16,1 km/h (3 Bft) NO 40 2 min 7,0 UV-I 997 W/m 6,0 C 16,5 C 24,1 km/h (4 Bft)
30.05.2020 14:34 19,5 C 28,3 C 40 % 1023,3 hPa 0,0 l/m 18,6 km/h (3 Bft) O-NO 57 2 min 7,1 UV-I 1043 W/m 5,5 C 15,8 C 25,7 km/h (4 Bft)
30.05.2020 14:36 19,7 C 28,9 C 42 % 1023,4 hPa 0,0 l/m 11,6 km/h (2 Bft) NO 48 2 min 7,3 UV-I 1097 W/m 6,4 C 17,8 C 20,9 km/h (4 Bft)
30.05.2020 14:38 19,7 C 29,4 C 40 % 1023,3 hPa 0,0 l/m 15,5 km/h (3 Bft) O-NO 78 2 min 7,1 UV-I 1118 W/m 5,7 C 16,8 C 30,6 km/h (5 Bft)
30.05.2020 14:40 19,6 C 27,8 C 40 % 1023,4 hPa 0,0 l/m 16,2 km/h (3 Bft) O 83 2 min 7,1 UV-I 1087 W/m 5,6 C 16,5 C 22,5 km/h (4 Bft)
30.05.2020 14:42 19,4 C 27,8 C 39 % 1023,4 hPa 0,0 l/m 17,6 km/h (3 Bft) O-NO 62 2 min 6,9 UV-I 1056 W/m 5,1 C 15,9 C 24,1 km/h (4 Bft)
30.05.2020 14:44 19,2 C 26,1 C 43 % 1023,4 hPa 0,0 l/m 14,9 km/h (3 Bft) O-NO 72 2 min 5,9 UV-I 891 W/m 6,3 C 16,3 C 22,5 km/h (4 Bft)
30.05.2020 14:46 19,3 C 27,8 C 40 % 1023,4 hPa 0,0 l/m 13,7 km/h (3 Bft) O-NO 69 2 min 7,0 UV-I 980 W/m 5,4 C 16,7 C 25,7 km/h (4 Bft)
30.05.2020 14:48 19,4 C 27,8 C 39 % 1023,2 hPa 0,0 l/m 17,0 km/h (3 Bft) NO 49 2 min 6,9 UV-I 1001 W/m 5,1 C 16,1 C 22,5 km/h (4 Bft)
30.05.2020 14:50 19,6 C 28,3 C 40 % 1023,4 hPa 0,0 l/m 19,0 km/h (3 Bft) NO 55 2 min 6,9 UV-I 999 W/m 5,6 C 15,9 C 24,1 km/h (4 Bft)
30.05.2020 14:52 19,7 C 28,9 C 39 % 1023,3 hPa 0,0 l/m 17,7 km/h (3 Bft) NO 42 2 min 6,7 UV-I 990 W/m 5,4 C 16,3 C 25,7 km/h (4 Bft)
30.05.2020 14:54 19,7 C 27,8 C 39 % 1023,3 hPa 0,0 l/m 19,8 km/h (3 Bft) O-NO 73 2 min 6,8 UV-I 991 W/m 5,4 C 15,9 C 29,0 km/h (5 Bft)
30.05.2020 14:56 19,6 C 27,2 C 39 % 1023,3 hPa 0,0 l/m 23,5 km/h (4 Bft) NO 55 2 min 6,8 UV-I 989 W/m 5,3 C 15,1 C 32,2 km/h (5 Bft)
30.05.2020 14:58 19,4 C 27,2 C 40 % 1023,4 hPa 0,0 l/m 19,0 km/h (3 Bft) NO 38 2 min 6,8 UV-I 1004 W/m 5,5 C 15,6 C 29,0 km/h (5 Bft)
30.05.2020 15:00 19,2 C 28,3 C 38 % 1023,3 hPa 0,0 l/m 17,0 km/h (3 Bft) O-NO 69 2 min 6,7 UV-I 1006 W/m 4,5 C 15,8 C 29,0 km/h (5 Bft)
30.05.2020 15:02 19,3 C 27,2 C 42 % 1023,3 hPa 0,0 l/m 6,6 km/h (2 Bft) O 89 2 min 5,4 UV-I 1004 W/m 6,1 C 19,2 C 16,1 km/h (3 Bft)
30.05.2020 15:04 19,6 C 27,2 C 41 % 1023,3 hPa 0,0 l/m 14,4 km/h (3 Bft) NO 48 2 min 6,6 UV-I 962 W/m 6,0 C 16,9 C 20,9 km/h (4 Bft)
30.05.2020 15:06 19,9 C 28,9 C 42 % 1023,2 hPa 0,0 l/m 11,9 km/h (2 Bft) O-NO 58 2 min 6,6 UV-I 961 W/m 6,6 C 17,9 C 24,1 km/h (4 Bft)
30.05.2020 15:08 20,0 C 28,3 C 39 % 1023,3 hPa 0,0 l/m 14,3 km/h (3 Bft) NO 51 2 min 6,7 UV-I 974 W/m 5,6 C 17,4 C 25,7 km/h (4 Bft)
30.05.2020 15:10 20,2 C 29,4 C 40 % 1023,2 hPa 0,0 l/m 15,8 km/h (3 Bft) NO 44 2 min 6,7 UV-I 1000 W/m 6,2 C 17,3 C 27,4 km/h (4 Bft)
30.05.2020 15:12 19,9 C 28,9 C 38 % 1023,0 hPa 0,0 l/m 8,4 km/h (2 Bft) O-SO 105 2 min 5,0 UV-I 880 W/m 5,2 C 19,1 C 14,5 km/h (3 Bft)
30.05.2020 15:14 19,7 C 27,2 C 41 % 1023,1 hPa 0,0 l/m 11,8 km/h (2 Bft) O 90 0 min 6,4 UV-I 353 W/m 6,1 C 17,7 C 24,1 km/h (4 Bft)
30.05.2020 15:16 19,8 C 27,2 C 41 % 1023,1 hPa 0,0 l/m 18,6 km/h (3 Bft) NO 36 2 min 5,7 UV-I 1002 W/m 6,2 C 16,2 C 25,7 km/h (4 Bft)
30.05.2020 15:18 19,6 C 26,1 C 39 % 1023,1 hPa 0,0 l/m 20,0 km/h (4 Bft) N-NO 28 2 min 5,5 UV-I 1065 W/m 5,3 C 15,7 C 25,7 km/h (4 Bft)
30.05.2020 15:20 19,7 C 26,7 C 40 % 1023,3 hPa 0,0 l/m 18,2 km/h (3 Bft) N-NO 19 2 min 6,4 UV-I 1009 W/m 5,7 C 16,2 C 27,4 km/h (4 Bft)
30.05.2020 15:22 19,7 C 26,7 C 38 % 1023,2 hPa 0,0 l/m 14,3 km/h (3 Bft) N-NO 27 2 min 4,8 UV-I 1005 W/m 5,0 C 17,1 C 24,1 km/h (4 Bft)
30.05.2020 15:24 19,5 C 25,6 C 40 % 1023,2 hPa 0,0 l/m 14,8 km/h (3 Bft) N-NO 31 2 min 5,1 UV-I 1003 W/m 5,5 C 16,7 C 20,9 km/h (4 Bft)
30.05.2020 15:26 19,6 C 26,1 C 39 % 1023,2 hPa 0,0 l/m 14,0 km/h (3 Bft) NO 50 2 min 4,4 UV-I 738 W/m 5,3 C 17,0 C 22,5 km/h (4 Bft)
30.05.2020 15:28 19,3 C 25,0 C 42 % 1023,1 hPa 0,0 l/m 14,6 km/h (3 Bft) NO 42 0 min 5,1 UV-I 288 W/m 6,1 C 16,5 C 20,9 km/h (4 Bft)
30.05.2020 15:30 19,7 C 27,2 C 40 % 1023,1 hPa 0,0 l/m 17,1 km/h (3 Bft) O-NO 63 2 min 6,1 UV-I 894 W/m 5,7 C 16,4 C 25,7 km/h (4 Bft)
30.05.2020 15:32 19,6 C 27,2 C 39 % 1023,1 hPa 0,0 l/m 17,4 km/h (3 Bft) O-NO 65 2 min 5,9 UV-I 868 W/m 5,3 C 16,2 C 22,5 km/h (4 Bft)
30.05.2020 15:34 19,4 C 26,1 C 38 % 1023,1 hPa 0,0 l/m 18,3 km/h (3 Bft) NO 39 2 min 5,9 UV-I 869 W/m 4,7 C 15,8 C 27,4 km/h (4 Bft)
30.05.2020 15:36 19,4 C 27,2 C 39 % 1023,0 hPa 0,0 l/m 17,5 km/h (3 Bft) O-NO 64 2 min 5,9 UV-I 877 W/m 5,1 C 15,9 C 29,0 km/h (5 Bft)
30.05.2020 15:38 19,5 C 26,7 C 40 % 1023,0 hPa 0,0 l/m 18,8 km/h (3 Bft) O-NO 71 2 min 5,9 UV-I 892 W/m 5,5 C 15,8 C 25,7 km/h (4 Bft)
30.05.2020 15:40 19,6 C 27,2 C 40 % 1023,0 hPa 0,0 l/m 14,6 km/h (3 Bft) NO 50 2 min 5,9 UV-I 899 W/m 5,6 C 16,9 C 22,5 km/h (4 Bft)
30.05.2020 15:42 19,5 C 28,3 C 39 % 1022,9 hPa 0,0 l/m 9,3 km/h (2 Bft) NO 44 2 min 5,9 UV-I 912 W/m 5,2 C 18,3 C 20,9 km/h (4 Bft)
30.05.2020 15:44 20,0 C 28,9 C 39 % 1023,0 hPa 0,0 l/m 17,1 km/h (3 Bft) N 9 2 min 6,0 UV-I 931 W/m 5,6 C 16,8 C 25,7 km/h (4 Bft)
30.05.2020 15:46 20,4 C 29,4 C 40 % 1023,0 hPa 0,0 l/m 20,6 km/h (4 Bft) NO 44 2 min 6,0 UV-I 949 W/m 6,3 C 16,6 C 27,4 km/h (4 Bft)
30.05.2020 15:48 20,3 C 29,4 C 39 % 1022,8 hPa 0,0 l/m 23,1 km/h (4 Bft) NO 35 2 min 5,8 UV-I 904 W/m 5,9 C 16,1 C 30,6 km/h (5 Bft)
30.05.2020 15:50 20,2 C 28,9 C 39 % 1022,9 hPa 0,0 l/m 21,5 km/h (4 Bft) NO 44 2 min 5,5 UV-I 846 W/m 5,8 C 16,2 C 29,0 km/h (5 Bft)
30.05.2020 15:52 20,2 C 29,4 C 39 % 1022,9 hPa 0,0 l/m 15,9 km/h (3 Bft) N-NO 26 2 min 5,5 UV-I 830 W/m 5,8 C 17,3 C 22,5 km/h (4 Bft)
30.05.2020 15:54 20,2 C 28,9 C 38 % 1022,9 hPa 0,0 l/m 14,4 km/h (3 Bft) O-NO 62 2 min 5,4 UV-I 814 W/m 5,4 C 17,6 C 20,9 km/h (4 Bft)
30.05.2020 15:56 20,1 C 29,4 C 41 % 1022,8 hPa 0,0 l/m 9,5 km/h (2 Bft) NO 35 2 min 5,4 UV-I 807 W/m 6,4 C 18,9 C 19,3 km/h (3 Bft)
30.05.2020 15:58 20,4 C 29,4 C 41 % 1022,8 hPa 0,0 l/m 16,8 km/h (3 Bft) NO 38 2 min 5,4 UV-I 799 W/m 6,7 C 17,3 C 27,4 km/h (4 Bft)
30.05.2020 16:00 20,1 C 28,3 C 37 % 1022,8 hPa 0,0 l/m 16,4 km/h (3 Bft) O 96 2 min 5,4 UV-I 803 W/m 5,0 C 17,1 C 25,7 km/h (4 Bft)
30.05.2020 16:02 19,6 C 27,2 C 38 % 1022,7 hPa 0,0 l/m 10,7 km/h (2 Bft) O 79 2 min 4,9 UV-I 812 W/m 4,9 C 18,0 C 16,1 km/h (3 Bft)
30.05.2020 16:04 19,3 C 27,2 C 39 % 1022,7 hPa 0,0 l/m 7,4 km/h (2 Bft) O-NO 57 2 min 5,0 UV-I 802 W/m 5,0 C 18,9 C 14,5 km/h (3 Bft)
30.05.2020 16:06 19,3 C 27,2 C 39 % 1022,6 hPa 0,0 l/m 11,4 km/h (2 Bft) O-NO 63 2 min 5,1 UV-I 797 W/m 5,0 C 17,4 C 17,7 km/h (3 Bft)
30.05.2020 16:08 19,6 C 27,2 C 39 % 1022,5 hPa 0,0 l/m 11,9 km/h (2 Bft) O-NO 61 2 min 5,4 UV-I 850 W/m 5,3 C 17,6 C 20,9 km/h (4 Bft)
30.05.2020 16:10 19,9 C 27,2 C 38 % 1022,6 hPa 0,0 l/m 21,9 km/h (4 Bft) NO 38 2 min 5,4 UV-I 894 W/m 5,2 C 15,7 C 32,2 km/h (5 Bft)
30.05.2020 16:12 19,8 C 25,0 C 37 % 1022,6 hPa 0,0 l/m 23,6 km/h (4 Bft) N-NO 30 2 min 3,3 UV-I 695 W/m 4,7 C 15,3 C 33,8 km/h (5 Bft)
30.05.2020 16:14 19,3 C 22,8 C 38 % 1022,6 hPa 0,0 l/m 20,5 km/h (4 Bft) N-NO 28 0 min 2,7 UV-I 213 W/m 4,6 C 15,2 C 25,7 km/h (4 Bft)
30.05.2020 16:16 19,1 C 22,8 C 38 % 1022,6 hPa 0,0 l/m 18,4 km/h (3 Bft) NO 34 0 min 3,8 UV-I 308 W/m 4,4 C 15,4 C 24,1 km/h (4 Bft)
30.05.2020 16:18 19,4 C 19,4 C 40 % 1022,6 hPa 0,0 l/m 15,6 km/h (3 Bft) NO 38 2 min 5,0 UV-I 841 W/m 5,5 C 16,4 C 24,1 km/h (4 Bft)
30.05.2020 16:20 19,7 C 19,4 C 39 % 1022,6 hPa 0,0 l/m 14,5 km/h (3 Bft) NO 44 2 min 3,6 UV-I 837 W/m 5,4 C 17,0 C 19,3 km/h (3 Bft)
30.05.2020 16:22 19,7 C 20,6 C 38 % 1022,5 hPa 0,0 l/m 15,4 km/h (3 Bft) O-NO 61 2 min 4,8 UV-I 818 W/m 5,0 C 16,8 C 20,9 km/h (4 Bft)
30.05.2020 16:24 19,6 C 23,3 C 38 % 1022,5 hPa 0,0 l/m 11,7 km/h (2 Bft) NO 38 2 min 4,8 UV-I 803 W/m 4,9 C 17,7 C 17,7 km/h (3 Bft)
30.05.2020 16:26 20,1 C 25,6 C 41 % 1022,6 hPa 0,0 l/m 16,0 km/h (3 Bft) NO 54 2 min 4,8 UV-I 827 W/m 6,4 C 17,1 C 20,9 km/h (4 Bft)
30.05.2020 16:28 19,9 C 23,9 C 38 % 1022,4 hPa 0,0 l/m 16,6 km/h (3 Bft) NO 38 0 min 2,7 UV-I 462 W/m 5,2 C 16,8 C 24,1 km/h (4 Bft)
30.05.2020 16:30 19,6 C 22,2 C 37 % 1022,5 hPa 0,0 l/m 19,7 km/h (3 Bft) N-NO 20 0 min 2,7 UV-I 209 W/m 4,5 C 15,7 C 27,4 km/h (4 Bft)
30.05.2020 16:32 19,1 C 20,6 C 38 % 1022,6 hPa 0,0 l/m 17,4 km/h (3 Bft) NO 40 0 min 2,4 UV-I 183 W/m 4,4 C 15,6 C 22,5 km/h (4 Bft)
30.05.2020 16:34 18,7 C 21,1 C 39 % 1022,5 hPa 0,0 l/m 15,4 km/h (3 Bft) NO 46 0 min 3,6 UV-I 268 W/m 4,5 C 15,6 C 24,1 km/h (4 Bft)
30.05.2020 16:36 19,2 C 23,3 C 41 % 1022,4 hPa 0,0 l/m 11,7 km/h (2 Bft) N-NO 30 2 min 4,8 UV-I 822 W/m 5,6 C 17,2 C 17,7 km/h (3 Bft)
30.05.2020 16:38 19,8 C 27,2 C 40 % 1022,5 hPa 0,0 l/m 13,6 km/h (3 Bft) O-NO 69 2 min 4,8 UV-I 854 W/m 5,8 C 17,4 C 17,7 km/h (3 Bft)
30.05.2020 16:40 20,1 C 27,2 C 40 % 1022,5 hPa 0,0 l/m 12,8 km/h (3 Bft) N-NO 16 2 min 4,3 UV-I 877 W/m 6,1 C 17,9 C 20,9 km/h (4 Bft)
30.05.2020 16:42 20,0 C 26,1 C 38 % 1022,5 hPa 0,0 l/m 18,7 km/h (3 Bft) NO 40 2 min 3,3 UV-I 877 W/m 5,2 C 16,5 C 30,6 km/h (5 Bft)
30.05.2020 16:44 19,5 C 23,9 C 38 % 1022,5 hPa 0,0 l/m 17,8 km/h (3 Bft) O-NO 67 0 min 2,2 UV-I 539 W/m 4,8 C 16,0 C 24,1 km/h (4 Bft)
30.05.2020 16:46 19,0 C 21,7 C 40 % 1022,5 hPa 0,0 l/m 9,8 km/h (2 Bft) N 5 0 min 2,2 UV-I 174 W/m 5,1 C 17,6 C 19,3 km/h (3 Bft)
30.05.2020 16:48 18,7 C 21,1 C 41 % 1022,5 hPa 0,0 l/m 12,5 km/h (3 Bft) N-NO 30 0 min 2,3 UV-I 202 W/m 5,2 C 16,4 C 20,9 km/h (4 Bft)
30.05.2020 16:50 18,7 C 22,8 C 41 % 1022,5 hPa 0,0 l/m 13,0 km/h (3 Bft) N-NW 338 0 min 3,9 UV-I 257 W/m 5,2 C 16,2 C 22,5 km/h (4 Bft)
30.05.2020 16:52 19,1 C 25,0 C 40 % 1022,2 hPa 0,0 l/m 23,5 km/h (4 Bft) NO 49 2 min 4,3 UV-I 778 W/m 5,2 C 14,4 C 35,4 km/h (5 Bft)
30.05.2020 16:54 19,6 C 25,0 C 40 % 1022,5 hPa 0,0 l/m 17,6 km/h (3 Bft) O-NO 69 2 min 4,0 UV-I 719 W/m 5,6 C 16,2 C 25,7 km/h (4 Bft)
30.05.2020 16:56 19,7 C 25,0 C 39 % 1022,4 hPa 0,0 l/m 20,5 km/h (4 Bft) NO 47 0 min 3,6 UV-I 393 W/m 5,4 C 15,7 C 27,4 km/h (4 Bft)
30.05.2020 16:58 19,8 C 26,1 C 38 % 1022,4 hPa 0,0 l/m 19,3 km/h (3 Bft) NO 56 2 min 4,2 UV-I 664 W/m 5,1 C 16,1 C 29,0 km/h (5 Bft)
30.05.2020 17:00 19,8 C 26,1 C 37 % 1022,5 hPa 0,0 l/m 19,1 km/h (3 Bft) O-NO 76 2 min 3,6 UV-I 821 W/m 4,7 C 16,1 C 25,7 km/h (4 Bft)
30.05.2020 17:02 19,6 C 25,0 C 39 % 1022,4 hPa 0,0 l/m 12,0 km/h (2 Bft) O 79 0 min 3,3 UV-I 341 W/m 5,3 C 17,6 C 20,9 km/h (4 Bft)
30.05.2020 17:04 19,3 C 23,9 C 39 % 1022,4 hPa 0,0 l/m 9,3 km/h (2 Bft) NO 55 0 min 2,7 UV-I 276 W/m 5,0 C 18,1 C 14,5 km/h (3 Bft)
30.05.2020 17:06 19,7 C 25,6 C 40 % 1022,4 hPa 0,0 l/m 8,8 km/h (2 Bft) O-NO 57 2 min 4,1 UV-I 710 W/m 5,7 C 18,7 C 22,5 km/h (4 Bft)
30.05.2020 17:08 20,0 C 27,2 C 39 % 1022,3 hPa 0,0 l/m 17,5 km/h (3 Bft) O-NO 71 2 min 4,0 UV-I 841 W/m 5,6 C 16,7 C 25,7 km/h (4 Bft)
30.05.2020 17:10 19,8 C 26,7 C 38 % 1022,3 hPa 0,0 l/m 15,7 km/h (3 Bft) N-NO 32 2 min 3,4 UV-I 800 W/m 5,1 C 16,8 C 25,7 km/h (4 Bft)
30.05.2020 17:12 19,8 C 26,7 C 38 % 1022,4 hPa 0,0 l/m 13,3 km/h (3 Bft) O-NO 67 2 min 3,4 UV-I 777 W/m 5,1 C 17,4 C 22,5 km/h (4 Bft)
30.05.2020 17:14 19,7 C 23,9 C 37 % 1022,5 hPa 0,0 l/m 18,4 km/h (3 Bft) NO 44 0 min 2,0 UV-I 456 W/m 4,6 C 16,1 C 25,7 km/h (4 Bft)
30.05.2020 17:16 19,1 C 21,7 C 39 % 1022,5 hPa 0,0 l/m 15,2 km/h (3 Bft) NO 46 0 min 1,7 UV-I 149 W/m 4,8 C 16,1 C 24,1 km/h (4 Bft)
30.05.2020 17:18 18,7 C 20,6 C 38 % 1022,4 hPa 0,0 l/m 15,4 km/h (3 Bft) NO 40 0 min 1,8 UV-I 171 W/m 4,1 C 15,6 C 25,7 km/h (4 Bft)
30.05.2020 17:20 18,4 C 20,6 C 39 % 1022,4 hPa 0,0 l/m 16,9 km/h (3 Bft) NO 55 0 min 2,2 UV-I 246 W/m 4,2 C 14,8 C 25,7 km/h (4 Bft)
30.05.2020 17:22 18,6 C 20,6 C 40 % 1022,4 hPa 0,0 l/m 12,5 km/h (3 Bft) N 360 0 min 2,5 UV-I 298 W/m 4,7 C 16,3 C 16,1 km/h (3 Bft)
30.05.2020 17:24 19,0 C 24,4 C 39 % 1022,4 hPa 0,0 l/m 7,3 km/h (2 Bft) NO 53 2 min 3,1 UV-I 727 W/m 4,7 C 18,6 C 16,1 km/h (3 Bft)
30.05.2020 17:26 19,1 C 23,9 C 40 % 1022,4 hPa 0,0 l/m 10,2 km/h (2 Bft) O-NO 64 0 min 1,9 UV-I 505 W/m 5,2 C 17,6 C 14,5 km/h (3 Bft)
30.05.2020 17:28 19,2 C 24,4 C 40 % 1022,3 hPa 0,0 l/m 11,8 km/h (2 Bft) NO 56 0 min 2,9 UV-I 388 W/m 5,3 C 17,2 C 27,4 km/h (4 Bft)
30.05.2020 17:30 19,3 C 23,9 C 39 % 1022,4 hPa 0,0 l/m 13,4 km/h (3 Bft) O-NO 67 0 min 1,9 UV-I 494 W/m 5,0 C 16,8 C 20,9 km/h (4 Bft)
30.05.2020 17:32 19,0 C 21,7 C 38 % 1022,4 hPa 0,0 l/m 21,8 km/h (4 Bft) NO 34 0 min 1,5 UV-I 192 W/m 4,4 C 14,6 C 32,2 km/h (5 Bft)
30.05.2020 17:34 18,6 C 20,6 C 40 % 1022,4 hPa 0,0 l/m 17,8 km/h (3 Bft) NO 44 0 min 1,6 UV-I 171 W/m 4,7 C 14,9 C 24,1 km/h (4 Bft)
30.05.2020 17:36 18,4 C 19,4 C 39 % 1022,4 hPa 0,0 l/m 18,3 km/h (3 Bft) N-NO 22 0 min 1,6 UV-I 160 W/m 4,2 C 14,5 C 24,1 km/h (4 Bft)
30.05.2020 17:38 18,3 C 19,4 C 40 % 1022,4 hPa 0,0 l/m 15,9 km/h (3 Bft) NO 36 0 min 1,9 UV-I 176 W/m 4,5 C 15,0 C 22,5 km/h (4 Bft)
30.05.2020 17:40 18,2 C 19,4 C 40 % 1022,4 hPa 0,0 l/m 13,0 km/h (3 Bft) O-NO 60 0 min 1,8 UV-I 198 W/m 4,4 C 15,6 C 19,3 km/h (3 Bft)
30.05.2020 17:42 18,2 C 20,0 C 40 % 1022,4 hPa 0,0 l/m 11,6 km/h (2 Bft) O-NO 68 0 min 2,0 UV-I 237 W/m 4,4 C 16,1 C 17,7 km/h (3 Bft)
30.05.2020 17:44 18,4 C 20,6 C 41 % 1022,4 hPa 0,0 l/m 9,4 km/h (2 Bft) N-NO 29 0 min 2,1 UV-I 288 W/m 4,9 C 17,1 C 17,7 km/h (3 Bft)
30.05.2020 17:46 18,8 C 23,3 C 42 % 1022,3 hPa 0,0 l/m 10,2 km/h (2 Bft) N-NO 19 2 min 2,8 UV-I 614 W/m 5,6 C 17,2 C 17,7 km/h (3 Bft)
30.05.2020 17:48 18,9 C 23,9 C 39 % 1022,2 hPa 0,0 l/m 13,2 km/h (3 Bft) N-NO 32 0 min 2,4 UV-I 429 W/m 4,6 C 16,4 C 20,9 km/h (4 Bft)
30.05.2020 17:50 19,3 C 25,6 C 41 % 1022,2 hPa 0,0 l/m 16,9 km/h (3 Bft) N-NO 15 2 min 2,9 UV-I 619 W/m 5,7 C 15,9 C 24,1 km/h (4 Bft)
30.05.2020 17:52 19,8 C 27,2 C 38 % 1022,2 hPa 0,0 l/m 17,5 km/h (3 Bft) N 9 2 min 2,7 UV-I 733 W/m 5,1 C 16,4 C 22,5 km/h (4 Bft)
30.05.2020 17:54 19,8 C 26,1 C 39 % 1022,2 hPa 0,0 l/m 16,4 km/h (3 Bft) NO 35 2 min 2,0 UV-I 661 W/m 5,4 C 16,7 C 24,1 km/h (4 Bft)
30.05.2020 17:56 19,6 C 23,9 C 39 % 1022,2 hPa 0,0 l/m 20,0 km/h (4 Bft) N-NO 30 0 min 1,5 UV-I 562 W/m 5,3 C 15,7 C 25,7 km/h (4 Bft)
30.05.2020 17:58 19,1 C 21,7 C 38 % 1022,2 hPa 0,0 l/m 23,8 km/h (4 Bft) NO 54 0 min 1,3 UV-I 187 W/m 4,4 C 14,4 C 29,0 km/h (5 Bft)
30.05.2020 18:00 18,7 C 20,6 C 39 % 1022,2 hPa 0,0 l/m 21,4 km/h (4 Bft) NO 34 0 min 1,3 UV-I 177 W/m 4,5 C 14,3 C 27,4 km/h (4 Bft)
30.05.2020 18:02 18,4 C 19,4 C 39 % 1022,3 hPa 0,0 l/m 18,2 km/h (3 Bft) NO 50 0 min 1,4 UV-I 184 W/m 4,2 C 14,5 C 24,1 km/h (4 Bft)
30.05.2020 18:04 18,3 C 19,4 C 40 % 1022,3 hPa 0,0 l/m 16,3 km/h (3 Bft) N-NO 33 0 min 1,4 UV-I 192 W/m 4,5 C 14,9 C 24,1 km/h (4 Bft)
30.05.2020 18:06 18,2 C 19,4 C 39 % 1022,3 hPa 0,0 l/m 17,8 km/h (3 Bft) N-NO 24 0 min 1,4 UV-I 179 W/m 4,0 C 14,4 C 22,5 km/h (4 Bft)
30.05.2020 18:08 18,1 C 18,9 C 40 % 1022,3 hPa 0,0 l/m 14,4 km/h (3 Bft) NO 34 0 min 1,3 UV-I 158 W/m 4,3 C 15,1 C 19,3 km/h (3 Bft)
30.05.2020 18:10 18,1 C 18,9 C 43 % 1022,2 hPa 0,0 l/m 10,4 km/h (2 Bft) O-NO 59 0 min 1,3 UV-I 146 W/m 5,3 C 16,4 C 16,1 km/h (3 Bft)
30.05.2020 18:12 17,9 C 18,9 C 42 % 1022,2 hPa 0,0 l/m 8,3 km/h (2 Bft) N-NO 15 0 min 1,3 UV-I 140 W/m 4,8 C 17,0 C 12,9 km/h (3 Bft)
30.05.2020 18:14 17,8 C 19,4 C 43 % 1022,2 hPa 0,0 l/m 10,9 km/h (2 Bft) N 5 0 min 1,3 UV-I 166 W/m 5,1 C 15,9 C 19,3 km/h (3 Bft)
30.05.2020 18:16 17,8 C 19,4 C 42 % 1022,2 hPa 0,0 l/m 13,2 km/h (3 Bft) N-NO 27 0 min 1,4 UV-I 210 W/m 4,7 C 15,1 C 20,9 km/h (4 Bft)
30.05.2020 18:18 17,9 C 19,4 C 42 % 1022,2 hPa 0,0 l/m 8,4 km/h (2 Bft) N-NO 26 0 min 1,3 UV-I 218 W/m 4,8 C 17,0 C 12,9 km/h (3 Bft)
30.05.2020 18:20 18,1 C 20,0 C 42 % 1022,2 hPa 0,0 l/m 6,5 km/h (2 Bft) NO 49 0 min 1,1 UV-I 277 W/m 5,0 C 18,1 C 9,7 km/h (2 Bft)
30.05.2020 18:22 18,2 C 19,4 C 41 % 1022,1 hPa 0,0 l/m 8,2 km/h (2 Bft) N-NO 25 0 min 0,8 UV-I 183 W/m 4,7 C 17,4 C 12,9 km/h (3 Bft)
30.05.2020 18:24 18,2 C 19,4 C 42 % 1022,1 hPa 0,0 l/m 6,5 km/h (2 Bft) O-NO 61 0 min 0,7 UV-I 131 W/m 5,1 C 18,2 C 14,5 km/h (3 Bft)
30.05.2020 18:26 18,1 C 19,4 C 40 % 1022,1 hPa 0,0 l/m 8,2 km/h (2 Bft) N-NW 346 0 min 0,6 UV-I 119 W/m 4,3 C 17,3 C 16,1 km/h (3 Bft)
30.05.2020 18:28 18,1 C 18,9 C 42 % 1022,2 hPa 0,0 l/m 8,2 km/h (2 Bft) N 355 0 min 0,6 UV-I 110 W/m 5,0 C 17,3 C 14,5 km/h (3 Bft)
30.05.2020 18:30 18,0 C 18,9 C 42 % 1022,1 hPa 0,0 l/m 12,3 km/h (3 Bft) N-NO 15 0 min 0,6 UV-I 105 W/m 4,9 C 15,6 C 22,5 km/h (4 Bft)
30.05.2020 18:32 17,9 C 18,9 C 42 % 1022,1 hPa 0,0 l/m 13,7 km/h (3 Bft) N-NO 30 0 min 0,6 UV-I 109 W/m 4,8 C 15,1 C 20,9 km/h (4 Bft)
30.05.2020 18:34 17,9 C 18,3 C 41 % 1022,1 hPa 0,0 l/m 14,9 km/h (3 Bft) N-NO 30 0 min 0,7 UV-I 117 W/m 4,5 C 14,7 C 20,9 km/h (4 Bft)
30.05.2020 18:36 17,9 C 18,3 C 40 % 1022,1 hPa 0,0 l/m 13,4 km/h (3 Bft) O 86 0 min 0,7 UV-I 125 W/m 4,1 C 15,2 C 20,9 km/h (4 Bft)
30.05.2020 18:38 17,9 C 18,3 C 40 % 1022,0 hPa 0,0 l/m 12,0 km/h (2 Bft) N-NO 29 0 min 0,8 UV-I 132 W/m 4,1 C 15,6 C 19,3 km/h (3 Bft)
30.05.2020 18:40 17,9 C 18,3 C 41 % 1021,9 hPa 0,0 l/m 15,4 km/h (3 Bft) NO 34 0 min 0,8 UV-I 136 W/m 4,5 C 14,6 C 20,9 km/h (4 Bft)
30.05.2020 18:42 17,9 C 18,3 C 41 % 1022,0 hPa 0,0 l/m 12,2 km/h (2 Bft) N-NO 30 0 min 0,8 UV-I 140 W/m 4,5 C 15,5 C 22,5 km/h (4 Bft)
30.05.2020 18:44 17,9 C 18,3 C 40 % 1021,9 hPa 0,0 l/m 15,3 km/h (3 Bft) NO 42 0 min 0,8 UV-I 142 W/m 4,1 C 14,6 C 22,5 km/h (4 Bft)
30.05.2020 18:46 17,9 C 18,3 C 40 % 1022,0 hPa 0,0 l/m 15,2 km/h (3 Bft) NO 39 0 min 0,8 UV-I 143 W/m 4,1 C 14,7 C 19,3 km/h (3 Bft)
30.05.2020 18:48 17,9 C 18,3 C 40 % 1022,0 hPa 0,0 l/m 10,5 km/h (2 Bft) NO 38 0 min 0,9 UV-I 150 W/m 4,1 C 16,1 C 16,1 km/h (3 Bft)
30.05.2020 18:50 17,9 C 18,9 C 40 % 1022,0 hPa 0,0 l/m 11,3 km/h (2 Bft) O-NO 58 0 min 0,9 UV-I 166 W/m 4,1 C 15,8 C 17,7 km/h (3 Bft)
30.05.2020 18:52 18,0 C 18,9 C 40 % 1022,0 hPa 0,0 l/m 10,2 km/h (2 Bft) O-NO 57 0 min 0,9 UV-I 185 W/m 4,2 C 16,4 C 14,5 km/h (3 Bft)
30.05.2020 18:54 18,0 C 18,9 C 39 % 1021,9 hPa 0,0 l/m 11,3 km/h (2 Bft) N-NO 28 0 min 0,9 UV-I 161 W/m 3,8 C 16,0 C 17,7 km/h (3 Bft)
30.05.2020 18:56 18,0 C 18,9 C 40 % 1022,0 hPa 0,0 l/m 10,3 km/h (2 Bft) O 80 0 min 0,8 UV-I 153 W/m 4,2 C 16,3 C 16,1 km/h (3 Bft)
30.05.2020 18:58 17,9 C 18,9 C 41 % 1021,9 hPa 0,0 l/m 8,6 km/h (2 Bft) NO 51 0 min 0,8 UV-I 146 W/m 4,5 C 16,9 C 12,9 km/h (3 Bft)
30.05.2020 19:00 18,0 C 18,3 C 40 % 1021,9 hPa 0,0 l/m 11,1 km/h (2 Bft) NO 40 0 min 0,7 UV-I 133 W/m 4,2 C 16,0 C 14,5 km/h (3 Bft)
30.05.2020 19:02 18,0 C 18,3 C 41 % 1021,9 hPa 0,0 l/m 15,2 km/h (3 Bft) N-NO 30 0 min 0,6 UV-I 124 W/m 4,6 C 14,8 C 29,0 km/h (5 Bft)
30.05.2020 19:04 17,9 C 18,3 C 41 % 1021,9 hPa 0,0 l/m 20,0 km/h (4 Bft) NO 49 0 min 0,6 UV-I 118 W/m 4,5 C 13,5 C 24,1 km/h (4 Bft)
30.05.2020 19:06 17,9 C 18,3 C 41 % 1021,9 hPa 0,0 l/m 18,3 km/h (3 Bft) NO 38 0 min 0,7 UV-I 118 W/m 4,5 C 13,9 C 25,7 km/h (4 Bft)
30.05.2020 19:08 17,8 C 18,3 C 40 % 1021,9 hPa 0,0 l/m 14,5 km/h (3 Bft) NO 43 0 min 0,7 UV-I 120 W/m 4,0 C 14,7 C 20,9 km/h (4 Bft)
30.05.2020 19:10 17,8 C 18,3 C 41 % 1022,0 hPa 0,0 l/m 13,9 km/h (3 Bft) NO 44 0 min 0,7 UV-I 120 W/m 4,4 C 14,9 C 20,9 km/h (4 Bft)
30.05.2020 19:12 17,8 C 18,3 C 41 % 1022,0 hPa 0,0 l/m 16,6 km/h (3 Bft) NO 54 0 min 0,7 UV-I 118 W/m 4,4 C 14,2 C 20,9 km/h (4 Bft)
30.05.2020 19:14 17,8 C 17,8 C 42 % 1022,0 hPa 0,0 l/m 17,7 km/h (3 Bft) NO 49 0 min 0,7 UV-I 114 W/m 4,7 C 13,9 C 25,7 km/h (4 Bft)
30.05.2020 19:16 17,6 C 17,8 C 43 % 1022,0 hPa 0,0 l/m 15,2 km/h (3 Bft) N-NO 29 0 min 0,7 UV-I 110 W/m 4,9 C 14,3 C 20,9 km/h (4 Bft)
30.05.2020 19:18 17,6 C 17,8 C 43 % 1022,0 hPa 0,0 l/m 14,4 km/h (3 Bft) O-NO 65 0 min 0,7 UV-I 107 W/m 4,9 C 14,5 C 22,5 km/h (4 Bft)
30.05.2020 19:20 17,4 C 17,8 C 44 % 1022,0 hPa 0,0 l/m 7,0 km/h (2 Bft) O 82 0 min 0,7 UV-I 109 W/m 5,0 C 17,1 C 12,9 km/h (3 Bft)
30.05.2020 19:22 17,4 C 17,8 C 44 % 1021,9 hPa 0,0 l/m 8,5 km/h (2 Bft) O-NO 78 0 min 0,7 UV-I 116 W/m 5,0 C 16,4 C 14,5 km/h (3 Bft)
30.05.2020 19:24 17,4 C 17,8 C 43 % 1022,0 hPa 0,0 l/m 12,8 km/h (3 Bft) NO 42 0 min 0,7 UV-I 116 W/m 4,7 C 14,8 C 17,7 km/h (3 Bft)
30.05.2020 19:26 17,3 C 17,8 C 44 % 1021,9 hPa 0,0 l/m 9,3 km/h (2 Bft) O-NO 59 0 min 0,7 UV-I 101 W/m 4,9 C 15,9 C 14,5 km/h (3 Bft)
30.05.2020 19:28 17,3 C 17,2 C 43 % 1021,9 hPa 0,0 l/m 11,0 km/h (2 Bft) NO 47 0 min 0,6 UV-I 84 W/m 4,6 C 15,3 C 19,3 km/h (3 Bft)
30.05.2020 19:30 17,2 C 17,2 C 44 % 1021,9 hPa 0,0 l/m 10,6 km/h (2 Bft) NO 53 0 min 0,6 UV-I 76 W/m 4,8 C 15,3 C 14,5 km/h (3 Bft)
30.05.2020 19:32 17,2 C 17,2 C 44 % 1022,0 hPa 0,0 l/m 10,1 km/h (2 Bft) O-NO 70 0 min 0,6 UV-I 71 W/m 4,8 C 15,5 C 16,1 km/h (3 Bft)
30.05.2020 19:34 17,1 C 16,7 C 44 % 1021,9 hPa 0,0 l/m 9,3 km/h (2 Bft) O-NO 69 0 min 0,6 UV-I 64 W/m 4,8 C 15,7 C 14,5 km/h (3 Bft)
30.05.2020 19:36 17,0 C 16,7 C 44 % 1021,9 hPa 0,0 l/m 10,4 km/h (2 Bft) O 80 0 min 0,6 UV-I 60 W/m 4,7 C 15,2 C 14,5 km/h (3 Bft)
30.05.2020 19:38 17,0 C 16,7 C 45 % 1022,0 hPa 0,0 l/m 9,6 km/h (2 Bft) O-NO 65 0 min 0,6 UV-I 84 W/m 5,0 C 15,5 C 14,5 km/h (3 Bft)
30.05.2020 19:40 16,9 C 16,7 C 45 % 1021,9 hPa 0,0 l/m 9,2 km/h (2 Bft) O-NO 78 0 min 0,6 UV-I 67 W/m 4,9 C 15,6 C 14,5 km/h (3 Bft)
30.05.2020 19:42 16,9 C 16,7 C 45 % 1022,0 hPa 0,0 l/m 9,0 km/h (2 Bft) O-NO 66 0 min 0,6 UV-I 68 W/m 4,9 C 15,6 C 12,9 km/h (3 Bft)
30.05.2020 19:44 16,9 C 18,3 C 45 % 1021,9 hPa 0,0 l/m 7,3 km/h (2 Bft) O-NO 68 0 min 0,7 UV-I 211 W/m 4,9 C 16,4 C 12,9 km/h (3 Bft)
30.05.2020 19:46 17,0 C 20,0 C 46 % 1021,9 hPa 0,0 l/m 5,1 km/h (1 Bft) O-NO 58 0 min 0,7 UV-I 228 W/m 5,3 C 17,0 C 8,0 km/h (2 Bft)
30.05.2020 19:48 17,1 C 20,6 C 45 % 1021,9 hPa 0,0 l/m 6,6 km/h (2 Bft) NO 53 0 min 0,7 UV-I 220 W/m 5,1 C 17,0 C 9,7 km/h (2 Bft)
30.05.2020 19:50 17,2 C 20,6 C 45 % 1022,0 hPa 0,0 l/m 8,7 km/h (2 Bft) O-NO 57 0 min 0,7 UV-I 214 W/m 5,2 C 16,1 C 12,9 km/h (3 Bft)
30.05.2020 19:52 17,2 C 20,6 C 45 % 1021,9 hPa 0,0 l/m 8,8 km/h (2 Bft) NO 35 0 min 0,6 UV-I 152 W/m 5,2 C 16,0 C 14,5 km/h (3 Bft)
30.05.2020 19:54 17,2 C 20,0 C 45 % 1022,0 hPa 0,0 l/m 11,1 km/h (2 Bft) N-NO 32 0 min 0,6 UV-I 207 W/m 5,2 C 15,1 C 19,3 km/h (3 Bft)
30.05.2020 19:56 17,2 C 19,4 C 45 % 1022,0 hPa 0,0 l/m 14,4 km/h (3 Bft) NO 34 0 min 0,6 UV-I 183 W/m 5,2 C 14,0 C 20,9 km/h (4 Bft)
30.05.2020 19:58 17,2 C 18,9 C 45 % 1021,9 hPa 0,0 l/m 12,1 km/h (2 Bft) O-NO 57 0 min 0,5 UV-I 106 W/m 5,2 C 14,8 C 20,9 km/h (4 Bft)
30.05.2020 20:00 17,1 C 17,8 C 45 % 1022,0 hPa 0,0 l/m 15,9 km/h (3 Bft) O-NO 71 0 min 0,0 UV-I 68 W/m 5,1 C 13,5 C 25,7 km/h (4 Bft)
30.05.2020 20:02 17,1 C 16,7 C 45 % 1022,1 hPa 0,0 l/m 16,5 km/h (3 Bft) O-NO 60 0 min 0,0 UV-I 65 W/m 5,1 C 13,3 C 24,1 km/h (4 Bft)
30.05.2020 20:04 16,9 C 16,7 C 44 % 1021,9 hPa 0,0 l/m 19,3 km/h (3 Bft) O 87 0 min 0,0 UV-I 60 W/m 4,6 C 12,4 C 27,4 km/h (4 Bft)
30.05.2020 20:06 16,8 C 16,1 C 44 % 1022,0 hPa 0,0 l/m 13,2 km/h (3 Bft) NO 48 0 min 0,0 UV-I 54 W/m 4,5 C 13,9 C 20,9 km/h (4 Bft)
30.05.2020 20:08 16,8 C 16,1 C 45 % 1022,1 hPa 0,0 l/m 15,7 km/h (3 Bft) O-NO 61 0 min 0,0 UV-I 50 W/m 4,8 C 13,2 C 24,1 km/h (4 Bft)
30.05.2020 20:10 16,6 C 16,1 C 45 % 1022,0 hPa 0,0 l/m 12,7 km/h (3 Bft) O-NO 58 0 min 0,0 UV-I 45 W/m 4,6 C 13,9 C 20,9 km/h (4 Bft)
30.05.2020 20:12 16,6 C 16,1 C 45 % 1022,0 hPa 0,0 l/m 15,8 km/h (3 Bft) NO 40 0 min 0,0 UV-I 46 W/m 4,6 C 12,9 C 25,7 km/h (4 Bft)
30.05.2020 20:14 16,5 C 15,6 C 45 % 1021,9 hPa 0,0 l/m 15,4 km/h (3 Bft) O-NO 71 0 min 0,0 UV-I 47 W/m 4,5 C 12,9 C 20,9 km/h (4 Bft)
30.05.2020 20:16 16,4 C 15,6 C 45 % 1021,9 hPa 0,0 l/m 17,1 km/h (3 Bft) O-NO 65 0 min 0,0 UV-I 47 W/m 4,4 C 12,3 C 24,1 km/h (4 Bft)
30.05.2020 20:18 16,4 C 15,6 C 45 % 1022,1 hPa 0,0 l/m 14,4 km/h (3 Bft) O-NO 59 0 min 0,0 UV-I 48 W/m 4,4 C 13,1 C 19,3 km/h (3 Bft)
30.05.2020 20:20 16,4 C 15,6 C 45 % 1022,0 hPa 0,0 l/m 12,8 km/h (3 Bft) O-NO 77 0 min 0,0 UV-I 47 W/m 4,4 C 13,6 C 19,3 km/h (3 Bft)
30.05.2020 20:22 16,3 C 15,6 C 45 % 1022,0 hPa 0,0 l/m 11,1 km/h (2 Bft) O-NO 68 0 min 0,0 UV-I 47 W/m 4,3 C 14,1 C 19,3 km/h (3 Bft)
30.05.2020 20:24 16,3 C 15,6 C 46 % 1022,0 hPa 0,0 l/m 9,5 km/h (2 Bft) NO 53 0 min 0,0 UV-I 46 W/m 4,7 C 14,8 C 14,5 km/h (3 Bft)
30.05.2020 20:26 16,2 C 15,0 C 46 % 1022,0 hPa 0,0 l/m 8,4 km/h (2 Bft) O-NO 65 0 min 0,0 UV-I 41 W/m 4,6 C 15,2 C 16,1 km/h (3 Bft)
30.05.2020 20:28 16,1 C 15,0 C 46 % 1021,9 hPa 0,0 l/m 8,5 km/h (2 Bft) O 95 0 min 0,0 UV-I 40 W/m 4,5 C 15,0 C 14,5 km/h (3 Bft)
30.05.2020 20:30 16,1 C 15,0 C 47 % 1022,0 hPa 0,0 l/m 6,5 km/h (2 Bft) NO 41 0 min 0,0 UV-I 43 W/m 4,8 C 16,1 C 14,5 km/h (3 Bft)
30.05.2020 20:32 16,0 C 15,0 C 47 % 1022,0 hPa 0,0 l/m 8,5 km/h (2 Bft) O-NO 67 0 min 0,0 UV-I 46 W/m 4,7 C 14,9 C 14,5 km/h (3 Bft)
30.05.2020 20:34 15,9 C 15,0 C 47 % 1022,0 hPa 0,0 l/m 7,0 km/h (2 Bft) NO 55 0 min 0,0 UV-I 47 W/m 4,6 C 15,6 C 12,9 km/h (3 Bft)
30.05.2020 20:36 15,9 C 15,0 C 47 % 1022,0 hPa 0,0 l/m 9,8 km/h (2 Bft) O-NO 73 0 min 0,0 UV-I 50 W/m 4,6 C 14,2 C 16,1 km/h (3 Bft)
30.05.2020 20:38 15,9 C 15,0 C 48 % 1022,0 hPa 0,0 l/m 6,1 km/h (2 Bft) NO 36 0 min 0,0 UV-I 50 W/m 4,9 C 15,9 C 11,3 km/h (2 Bft)
30.05.2020 20:40 15,9 C 15,0 C 48 % 1021,9 hPa 0,0 l/m 5,5 km/h (1 Bft) NO 50 0 min 0,0 UV-I 45 W/m 4,9 C 15,9 C 8,0 km/h (2 Bft)
30.05.2020 20:42 15,8 C 15,0 C 48 % 1021,9 hPa 0,0 l/m 5,6 km/h (1 Bft) NO 54 0 min 0,0 UV-I 40 W/m 4,8 C 15,8 C 8,0 km/h (2 Bft)
30.05.2020 20:44 15,8 C 15,0 C 49 % 1021,9 hPa 0,0 l/m 4,6 km/h (1 Bft) O-NO 57 0 min 0,0 UV-I 39 W/m 5,1 C 15,8 C 8,0 km/h (2 Bft)
30.05.2020 20:46 15,7 C 14,4 C 49 % 1021,9 hPa 0,0 l/m 4,3 km/h (1 Bft) NO 56 0 min 0,0 UV-I 35 W/m 5,0 C 15,7 C 6,4 km/h (2 Bft)
30.05.2020 20:48 15,6 C 14,4 C 50 % 1021,9 hPa 0,0 l/m 4,9 km/h (1 Bft) NO 55 0 min 0,0 UV-I 30 W/m 5,2 C 15,6 C 6,4 km/h (2 Bft)
30.05.2020 20:50 15,4 C 13,9 C 51 % 1022,0 hPa 0,0 l/m 3,9 km/h (1 Bft) NO 55 0 min 0,0 UV-I 26 W/m 5,3 C 15,4 C 6,4 km/h (2 Bft)
30.05.2020 20:52 15,2 C 13,3 C 51 % 1021,9 hPa 0,0 l/m 2,8 km/h (1 Bft) NO 55 0 min 0,0 UV-I 24 W/m 5,1 C 15,2 C 4,8 km/h (1 Bft)
30.05.2020 20:54 14,9 C 12,8 C 52 % 1022,0 hPa 0,0 l/m 2,7 km/h (1 Bft) NO 55 0 min 0,0 UV-I 21 W/m 5,1 C 14,9 C 4,8 km/h (1 Bft)
30.05.2020 20:56 14,8 C 12,2 C 52 % 1021,9 hPa 0,0 l/m 2,5 km/h (1 Bft) NO 55 0 min 0,0 UV-I 20 W/m 5,0 C 14,8 C 4,8 km/h (1 Bft)
30.05.2020 20:58 14,7 C 12,2 C 52 % 1022,0 hPa 0,0 l/m 2,2 km/h (1 Bft) NO 55 0 min 0,0 UV-I 19 W/m 5,0 C 14,7 C 3,2 km/h (1 Bft)
30.05.2020 21:00 14,5 C 11,7 C 53 % 1022,0 hPa 0,0 l/m 4,2 km/h (1 Bft) NO 42 0 min 0,0 UV-I 18 W/m 5,0 C 14,5 C 6,4 km/h (2 Bft)
30.05.2020 21:02 14,4 C 11,7 C 53 % 1021,9 hPa 0,0 l/m 5,0 km/h (1 Bft) NO 37 0 min 0,0 UV-I 18 W/m 4,9 C 14,4 C 6,4 km/h (2 Bft)
30.05.2020 21:04 14,3 C 11,1 C 53 % 1021,9 hPa 0,0 l/m 4,6 km/h (1 Bft) NO 37 0 min 0,0 UV-I 16 W/m 4,9 C 14,3 C 6,4 km/h (2 Bft)
30.05.2020 21:06 14,3 C 11,1 C 53 % 1021,9 hPa 0,0 l/m 4,7 km/h (1 Bft) NO 37 0 min 0,0 UV-I 16 W/m 4,9 C 14,3 C 6,4 km/h (2 Bft)
30.05.2020 21:08 14,2 C 11,1 C 53 % 1022,1 hPa 0,0 l/m 3,9 km/h (1 Bft) NO 42 0 min 0,0 UV-I 16 W/m 4,8 C 14,2 C 6,4 km/h (2 Bft)
30.05.2020 21:10 14,1 C 11,1 C 53 % 1022,0 hPa 0,0 l/m 3,8 km/h (1 Bft) NO 42 0 min 0,0 UV-I 16 W/m 4,7 C 14,1 C 4,8 km/h (1 Bft)
30.05.2020 21:12 14,1 C 10,6 C 54 % 1022,1 hPa 0,0 l/m 2,6 km/h (1 Bft) NO 42 0 min 0,0 UV-I 14 W/m 4,9 C 14,1 C 4,8 km/h (1 Bft)
30.05.2020 21:14 13,9 C 10,6 C 55 % 1022,1 hPa 0,0 l/m 3,9 km/h (1 Bft) NO 42 0 min 0,0 UV-I 13 W/m 5,0 C 13,9 C 6,4 km/h (2 Bft)
30.05.2020 21:16 13,9 C 10,6 C 55 % 1022,1 hPa 0,0 l/m 5,5 km/h (1 Bft) N-NO 29 0 min 0,0 UV-I 12 W/m 5,0 C 13,9 C 9,7 km/h (2 Bft)
30.05.2020 21:18 13,9 C 10,6 C 55 % 1022,2 hPa 0,0 l/m 5,8 km/h (2 Bft) N-NO 30 0 min 0,0 UV-I 11 W/m 5,0 C 13,9 C 8,0 km/h (2 Bft)
30.05.2020 21:20 14,0 C 11,1 C 55 % 1022,1 hPa 0,0 l/m 6,6 km/h (2 Bft) O-NO 63 0 min 0,0 UV-I 11 W/m 5,1 C 13,9 C 12,9 km/h (3 Bft)
30.05.2020 21:22 14,1 C 11,7 C 55 % 1022,3 hPa 0,0 l/m 5,6 km/h (1 Bft) O-NO 63 0 min 0,0 UV-I 9 W/m 5,2 C 14,1 C 8,0 km/h (2 Bft)
30.05.2020 21:24 14,2 C 12,2 C 54 % 1022,3 hPa 0,0 l/m 8,2 km/h (2 Bft) NO 53 0 min 0,0 UV-I 7 W/m 5,0 C 13,2 C 16,1 km/h (3 Bft)
30.05.2020 21:26 14,3 C 12,8 C 53 % 1022,3 hPa 0,0 l/m 7,8 km/h (2 Bft) NO 54 0 min 0,0 UV-I 7 W/m 4,9 C 13,5 C 14,5 km/h (3 Bft)
30.05.2020 21:28 14,4 C 12,8 C 53 % 1022,3 hPa 0,0 l/m 5,6 km/h (1 Bft) O-NO 69 0 min 0,0 UV-I 6 W/m 4,9 C 14,4 C 8,0 km/h (2 Bft)
30.05.2020 21:30 14,4 C 12,8 C 53 % 1022,3 hPa 0,0 l/m 6,4 km/h (2 Bft) NO 52 0 min 0,0 UV-I 5 W/m 4,9 C 14,4 C 8,0 km/h (2 Bft)
30.05.2020 21:32 14,4 C 12,8 C 53 % 1022,4 hPa 0,0 l/m 8,6 km/h (2 Bft) NO 53 0 min 0,0 UV-I 4 W/m 4,9 C 13,1 C 12,9 km/h (3 Bft)
30.05.2020 21:34 14,5 C 12,8 C 53 % 1022,3 hPa 0,0 l/m 4,3 km/h (1 Bft) O-NO 59 0 min 0,0 UV-I 0 W/m 5,0 C 14,5 C 6,4 km/h (2 Bft)
30.05.2020 21:36 14,4 C 12,8 C 52 % 1022,3 hPa 0,0 l/m 7,5 km/h (2 Bft) O-NO 69 0 min 0,0 UV-I 0 W/m 4,7 C 13,8 C 14,5 km/h (3 Bft)
30.05.2020 21:38 14,6 C 12,8 C 51 % 1022,3 hPa 0,0 l/m 6,3 km/h (2 Bft) O-NO 67 0 min 0,0 UV-I 0 W/m 4,6 C 14,6 C 9,7 km/h (2 Bft)
30.05.2020 21:40 14,6 C 12,8 C 53 % 1022,4 hPa 0,0 l/m 5,8 km/h (2 Bft) O-NO 71 0 min 0,0 UV-I 0 W/m 5,1 C 14,6 C 11,3 km/h (2 Bft)
30.05.2020 21:42 14,5 C 12,8 C 52 % 1022,4 hPa 0,0 l/m 7,2 km/h (2 Bft) O-NO 61 0 min 0,0 UV-I 0 W/m 4,8 C 14,0 C 14,5 km/h (3 Bft)
30.05.2020 21:44 14,4 C 12,8 C 53 % 1022,4 hPa 0,0 l/m 5,0 km/h (1 Bft) O-NO 57 0 min 0,0 UV-I 0 W/m 4,9 C 14,4 C 8,0 km/h (2 Bft)
30.05.2020 21:46 14,3 C 12,8 C 52 % 1022,4 hPa 0,0 l/m 6,3 km/h (2 Bft) NO 49 0 min 0,0 UV-I 0 W/m 4,6 C 14,3 C 12,9 km/h (3 Bft)
30.05.2020 21:48 14,3 C 12,2 C 53 % 1022,6 hPa 0,0 l/m 6,2 km/h (2 Bft) O-NO 69 0 min 0,0 UV-I 0 W/m 4,9 C 14,3 C 9,7 km/h (2 Bft)
30.05.2020 21:50 14,3 C 12,2 C 53 % 1022,6 hPa 0,0 l/m 4,9 km/h (1 Bft) NO 56 0 min 0,0 UV-I 0 W/m 4,9 C 14,3 C 6,4 km/h (2 Bft)
30.05.2020 21:52 14,2 C 12,2 C 52 % 1022,4 hPa 0,0 l/m 6,6 km/h (2 Bft) O-NO 63 0 min 0,0 UV-I 0 W/m 4,5 C 14,1 C 11,3 km/h (2 Bft)
30.05.2020 21:54 14,2 C 12,2 C 53 % 1022,5 hPa 0,0 l/m 5,7 km/h (1 Bft) O-NO 68 0 min 0,0 UV-I 0 W/m 4,8 C 14,2 C 8,0 km/h (2 Bft)
30.05.2020 21:56 14,2 C 11,7 C 53 % 1022,5 hPa 0,0 l/m 6,2 km/h (2 Bft) O-NO 64 0 min 0,0 UV-I 0 W/m 4,8 C 14,2 C 9,7 km/h (2 Bft)
30.05.2020 21:58 14,0 C 11,7 C 53 % 1022,7 hPa 0,0 l/m 6,1 km/h (2 Bft) O-NO 60 0 min 0,0 UV-I 0 W/m 4,6 C 14,0 C 9,7 km/h (2 Bft)
30.05.2020 22:00 13,9 C 11,7 C 54 % 1022,6 hPa 0,0 l/m 5,5 km/h (1 Bft) O-NO 73 0 min 0,0 UV-I 0 W/m 4,7 C 13,9 C 8,0 km/h (2 Bft)
30.05.2020 22:02 13,9 C 11,7 C 54 % 1022,7 hPa 0,0 l/m 5,4 km/h (1 Bft) NO 47 0 min 0,0 UV-I 0 W/m 4,7 C 13,9 C 8,0 km/h (2 Bft)
30.05.2020 22:04 13,8 C 11,1 C 53 % 1022,7 hPa 0,0 l/m 6,3 km/h (2 Bft) NO 40 0 min 0,0 UV-I 0 W/m 4,4 C 13,8 C 8,0 km/h (2 Bft)
30.05.2020 22:06 13,8 C 11,7 C 54 % 1022,9 hPa 0,0 l/m 6,2 km/h (2 Bft) NO 53 0 min 0,0 UV-I 0 W/m 4,7 C 13,8 C 9,7 km/h (2 Bft)
30.05.2020 22:08 13,7 C 11,1 C 54 % 1022,8 hPa 0,0 l/m 5,7 km/h (1 Bft) NO 47 0 min 0,0 UV-I 0 W/m 4,6 C 13,7 C 8,0 km/h (2 Bft)
30.05.2020 22:10 13,6 C 11,1 C 55 % 1022,8 hPa 0,0 l/m 6,3 km/h (2 Bft) NO 49 0 min 0,0 UV-I 0 W/m 4,7 C 13,6 C 8,0 km/h (2 Bft)
30.05.2020 22:12 13,4 C 10,6 C 55 % 1022,8 hPa 0,0 l/m 5,8 km/h (2 Bft) NO 48 0 min 0,0 UV-I 0 W/m 4,5 C 13,4 C 8,0 km/h (2 Bft)
30.05.2020 22:14 13,3 C 10,6 C 55 % 1022,9 hPa 0,0 l/m 5,0 km/h (1 Bft) NO 48 0 min 0,0 UV-I 0 W/m 4,5 C 13,3 C 6,4 km/h (2 Bft)
30.05.2020 22:16 13,1 C 10,0 C 56 % 1023,0 hPa 0,0 l/m 5,0 km/h (1 Bft) NO 48 0 min 0,0 UV-I 0 W/m 4,5 C 13,1 C 6,4 km/h (2 Bft)
30.05.2020 22:18 13,1 C 10,0 C 56 % 1022,9 hPa 0,0 l/m 5,3 km/h (1 Bft) NO 48 0 min 0,0 UV-I 0 W/m 4,5 C 13,1 C 6,4 km/h (2 Bft)
30.05.2020 22:20 13,0 C 10,0 C 57 % 1022,9 hPa 0,0 l/m 5,3 km/h (1 Bft) NO 48 0 min 0,0 UV-I 0 W/m 4,7 C 13,0 C 8,0 km/h (2 Bft)
30.05.2020 22:22 13,0 C 10,0 C 57 % 1022,9 hPa 0,0 l/m 4,8 km/h (1 Bft) NO 48 0 min 0,0 UV-I 0 W/m 4,7 C 13,0 C 6,4 km/h (2 Bft)
30.05.2020 22:24 12,9 C 10,0 C 57 % 1023,0 hPa 0,0 l/m 4,0 km/h (1 Bft) NO 48 0 min 0,0 UV-I 0 W/m 4,6 C 12,9 C 6,4 km/h (2 Bft)
30.05.2020 22:26 12,9 C 10,0 C 57 % 1023,1 hPa 0,0 l/m 4,4 km/h (1 Bft) NO 48 0 min 0,0 UV-I 0 W/m 4,6 C 12,9 C 6,4 km/h (2 Bft)
30.05.2020 22:28 12,9 C 10,0 C 58 % 1023,0 hPa 0,0 l/m 4,8 km/h (1 Bft) NO 48 0 min 0,0 UV-I 0 W/m 4,8 C 12,9 C 6,4 km/h (2 Bft)
30.05.2020 22:30 12,8 C 10,0 C 58 % 1023,2 hPa 0,0 l/m 5,0 km/h (1 Bft) NO 48 0 min 0,0 UV-I 0 W/m 4,7 C 12,8 C 6,4 km/h (2 Bft)
30.05.2020 22:32 12,8 C 10,0 C 58 % 1023,0 hPa 0,0 l/m 5,7 km/h (1 Bft) NO 34 0 min 0,0 UV-I 0 W/m 4,7 C 12,8 C 8,0 km/h (2 Bft)
30.05.2020 22:34 12,8 C 10,6 C 58 % 1023,0 hPa 0,0 l/m 6,6 km/h (2 Bft) N-NO 30 0 min 0,0 UV-I 0 W/m 4,7 C 12,7 C 11,3 km/h (2 Bft)
30.05.2020 22:36 12,8 C 10,6 C 58 % 1023,1 hPa 0,0 l/m 6,8 km/h (2 Bft) NO 51 0 min 0,0 UV-I 0 W/m 4,7 C 12,6 C 9,7 km/h (2 Bft)
30.05.2020 22:38 12,9 C 10,6 C 57 % 1023,1 hPa 0,0 l/m 5,2 km/h (1 Bft) NO 52 0 min 0,0 UV-I 0 W/m 4,6 C 12,9 C 8,0 km/h (2 Bft)
30.05.2020 22:40 13,0 C 10,6 C 57 % 1023,2 hPa 0,0 l/m 6,5 km/h (2 Bft) NO 50 0 min 0,0 UV-I 0 W/m 4,7 C 13,0 C 9,7 km/h (2 Bft)
30.05.2020 22:42 12,9 C 10,6 C 57 % 1023,1 hPa 0,0 l/m 5,6 km/h (1 Bft) NO 51 0 min 0,0 UV-I 0 W/m 4,6 C 12,9 C 8,0 km/h (2 Bft)
30.05.2020 22:44 12,8 C 10,0 C 57 % 1023,2 hPa 0,0 l/m 6,0 km/h (2 Bft) O-NO 57 0 min 0,0 UV-I 0 W/m 4,5 C 12,8 C 9,7 km/h (2 Bft)
30.05.2020 22:46 12,8 C 10,0 C 58 % 1023,1 hPa 0,0 l/m 5,2 km/h (1 Bft) NO 55 0 min 0,0 UV-I 0 W/m 4,7 C 12,8 C 8,0 km/h (2 Bft)
30.05.2020 22:48 12,8 C 10,0 C 58 % 1023,1 hPa 0,0 l/m 4,7 km/h (1 Bft) NO 55 0 min 0,0 UV-I 0 W/m 4,7 C 12,8 C 8,0 km/h (2 Bft)
30.05.2020 22:50 12,7 C 10,0 C 58 % 1023,2 hPa 0,0 l/m 4,2 km/h (1 Bft) NO 55 0 min 0,0 UV-I 0 W/m 4,7 C 12,7 C 6,4 km/h (2 Bft)
30.05.2020 22:52 12,7 C 10,0 C 58 % 1023,2 hPa 0,0 l/m 3,5 km/h (1 Bft) NO 55 0 min 0,0 UV-I 0 W/m 4,7 C 12,7 C 6,4 km/h (2 Bft)
30.05.2020 22:54 12,7 C 10,0 C 58 % 1023,2 hPa 0,0 l/m 5,5 km/h (1 Bft) NO 55 0 min 0,0 UV-I 0 W/m 4,7 C 12,7 C 8,0 km/h (2 Bft)
30.05.2020 22:56 12,7 C 10,0 C 59 % 1023,2 hPa 0,0 l/m 3,5 km/h (1 Bft) NO 55 0 min 0,0 UV-I 0 W/m 4,9 C 12,7 C 4,8 km/h (1 Bft)
30.05.2020 22:58 12,6 C 10,0 C 59 % 1023,2 hPa 0,0 l/m 5,4 km/h (1 Bft) NO 55 0 min 0,0 UV-I 0 W/m 4,8 C 12,6 C 8,0 km/h (2 Bft)
30.05.2020 23:00 12,4 C 10,0 C 59 % 1023,2 hPa 0,0 l/m 4,4 km/h (1 Bft) NO 55 0 min 0,0 UV-I 0 W/m 4,6 C 12,4 C 6,4 km/h (2 Bft)
30.05.2020 23:02 12,4 C 9,4 C 59 % 1023,1 hPa 0,0 l/m 5,4 km/h (1 Bft) NO 55 0 min 0,0 UV-I 0 W/m 4,6 C 12,4 C 6,4 km/h (2 Bft)
30.05.2020 23:04 12,3 C 9,4 C 59 % 1023,2 hPa 0,0 l/m 5,9 km/h (2 Bft) NO 55 0 min 0,0 UV-I 0 W/m 4,5 C 12,3 C 8,0 km/h (2 Bft)
30.05.2020 23:06 12,3 C 9,4 C 59 % 1023,2 hPa 0,0 l/m 5,2 km/h (1 Bft) NO 55 0 min 0,0 UV-I 0 W/m 4,5 C 12,3 C 8,0 km/h (2 Bft)
30.05.2020 23:08 12,3 C 8,9 C 59 % 1023,2 hPa 0,0 l/m 5,7 km/h (1 Bft) NO 55 0 min 0,0 UV-I 0 W/m 4,5 C 12,3 C 8,0 km/h (2 Bft)
30.05.2020 23:10 12,2 C 8,9 C 59 % 1023,2 hPa 0,0 l/m 4,7 km/h (1 Bft) NO 50 0 min 0,0 UV-I 0 W/m 4,4 C 12,2 C 6,4 km/h (2 Bft)
30.05.2020 23:12 12,1 C 8,3 C 59 % 1023,2 hPa 0,0 l/m 6,1 km/h (2 Bft) NO 42 0 min 0,0 UV-I 0 W/m 4,3 C 12,1 C 9,7 km/h (2 Bft)
30.05.2020 23:14 12,1 C 8,3 C 59 % 1023,2 hPa 0,0 l/m 6,2 km/h (2 Bft) NO 49 0 min 0,0 UV-I 0 W/m 4,3 C 12,1 C 8,0 km/h (2 Bft)
30.05.2020 23:16 12,0 C 8,3 C 60 % 1023,2 hPa 0,0 l/m 5,8 km/h (2 Bft) NO 49 0 min 0,0 UV-I 0 W/m 4,5 C 12,0 C 8,0 km/h (2 Bft)
30.05.2020 23:18 11,9 C 8,3 C 60 % 1023,3 hPa 0,0 l/m 6,0 km/h (2 Bft) NO 49 0 min 0,0 UV-I 0 W/m 4,4 C 11,9 C 9,7 km/h (2 Bft)
30.05.2020 23:20 11,8 C 8,3 C 60 % 1023,2 hPa 0,0 l/m 6,1 km/h (2 Bft) O-NO 57 0 min 0,0 UV-I 0 W/m 4,3 C 11,8 C 8,0 km/h (2 Bft)
30.05.2020 23:22 11,8 C 8,3 C 60 % 1023,2 hPa 0,0 l/m 5,3 km/h (1 Bft) NO 39 0 min 0,0 UV-I 0 W/m 4,3 C 11,8 C 6,4 km/h (2 Bft)
30.05.2020 23:24 11,8 C 8,3 C 60 % 1023,3 hPa 0,0 l/m 5,9 km/h (2 Bft) N-NO 28 0 min 0,0 UV-I 0 W/m 4,3 C 11,8 C 8,0 km/h (2 Bft)
30.05.2020 23:26 11,8 C 8,3 C 60 % 1023,3 hPa 0,0 l/m 6,9 km/h (2 Bft) NO 44 0 min 0,0 UV-I 0 W/m 4,3 C 11,5 C 12,9 km/h (3 Bft)
30.05.2020 23:28 11,8 C 8,9 C 60 % 1023,2 hPa 0,0 l/m 7,3 km/h (2 Bft) N-NO 16 0 min 0,0 UV-I 0 W/m 4,3 C 11,2 C 12,9 km/h (3 Bft)
30.05.2020 23:30 11,8 C 8,3 C 60 % 1023,3 hPa 0,0 l/m 7,1 km/h (2 Bft) O-NO 63 0 min 0,0 UV-I 0 W/m 4,3 C 11,3 C 12,9 km/h (3 Bft)
30.05.2020 23:32 11,8 C 8,9 C 60 % 1023,3 hPa 0,0 l/m 5,6 km/h (1 Bft) NO 42 0 min 0,0 UV-I 0 W/m 4,3 C 11,8 C 8,0 km/h (2 Bft)
30.05.2020 23:34 11,9 C 8,9 C 60 % 1023,2 hPa 0,0 l/m 6,5 km/h (2 Bft) O-NO 65 0 min 0,0 UV-I 0 W/m 4,4 C 11,9 C 12,9 km/h (3 Bft)
30.05.2020 23:36 11,9 C 8,9 C 59 % 1023,4 hPa 0,0 l/m 6,0 km/h (2 Bft) NO 54 0 min 0,0 UV-I 0 W/m 4,1 C 11,9 C 8,0 km/h (2 Bft)
30.05.2020 23:38 11,9 C 8,9 C 59 % 1023,3 hPa 0,0 l/m 4,6 km/h (1 Bft) O-NO 61 0 min 0,0 UV-I 0 W/m 4,1 C 11,9 C 6,4 km/h (2 Bft)
30.05.2020 23:40 11,8 C 8,9 C 59 % 1023,3 hPa 0,0 l/m 7,3 km/h (2 Bft) NO 51 0 min 0,0 UV-I 0 W/m 4,1 C 11,2 C 16,1 km/h (3 Bft)
30.05.2020 23:42 11,8 C 8,9 C 59 % 1023,3 hPa 0,0 l/m 6,4 km/h (2 Bft) NO 44 0 min 0,0 UV-I 0 W/m 4,1 C 11,8 C 8,0 km/h (2 Bft)
30.05.2020 23:44 11,8 C 8,9 C 59 % 1023,3 hPa 0,0 l/m 7,0 km/h (2 Bft) NO 52 0 min 0,0 UV-I 0 W/m 4,1 C 11,4 C 9,7 km/h (2 Bft)
30.05.2020 23:46 11,8 C 8,9 C 59 % 1023,3 hPa 0,0 l/m 6,6 km/h (2 Bft) NO 49 0 min 0,0 UV-I 0 W/m 4,1 C 11,7 C 11,3 km/h (2 Bft)
30.05.2020 23:48 11,7 C 8,3 C 59 % 1023,4 hPa 0,0 l/m 5,1 km/h (1 Bft) NO 51 0 min 0,0 UV-I 0 W/m 4,0 C 11,7 C 8,0 km/h (2 Bft)
30.05.2020 23:50 11,6 C 8,3 C 60 % 1023,3 hPa 0,0 l/m 6,7 km/h (2 Bft) NO 53 0 min 0,0 UV-I 0 W/m 4,1 C 11,4 C 9,7 km/h (2 Bft)
30.05.2020 23:52 11,4 C 7,8 C 61 % 1023,4 hPa 0,0 l/m 5,8 km/h (2 Bft) NO 47 0 min 0,0 UV-I 0 W/m 4,2 C 11,4 C 8,0 km/h (2 Bft)
30.05.2020 23:54 11,2 C 7,8 C 61 % 1023,3 hPa 0,0 l/m 6,0 km/h (2 Bft) NO 54 0 min 0,0 UV-I 0 W/m 4,0 C 11,2 C 8,0 km/h (2 Bft)
30.05.2020 23:56 11,1 C 7,2 C 62 % 1023,3 hPa 0,0 l/m 6,2 km/h (2 Bft) NO 54 0 min 0,0 UV-I 0 W/m 4,1 C 11,1 C 8,0 km/h (2 Bft)
30.05.2020 23:58 10,9 C 7,2 C 63 % 1023,3 hPa 0,0 l/m 5,3 km/h (1 Bft) NO 54 0 min 0,0 UV-I 0 W/m 4,1 C 10,9 C 6,4 km/h (2 Bft)
30.05.2020 23:59 10,9 C 7,2 C 63 % 1023,3 hPa 0,0 l/m 4,8 km/h (1 Bft) NO 45 0 min 0,0 UV-I 0 W/m 4,1 C 10,9 C 6,4 km/h (2 Bft)
_ Min-Zeit 05:32 05:07 16:00 18:40 - 00:00 - - - - - 05:31 05:32 00:00
Minimum _ 2,4 C -0,6 C 37 % 1021,9 hPa - 0,0 km/h (0 Bft) - - - - - 0,6 C 2,4 C 0,0 km/h (0 Bft)
_ Max-Zeit 15:46 14:38 05:58 00:45 00:00 11:04 - - 10:28 13:40 13:58 13:34 15:02 10:42
Maximum _ 20,4 C 29,4 C 90 % 1025,8 hPa 0,0 l/m 25,8 km/h
O (4 Bft)
- - 2 min 7,5 UV-I 1120 W/m 7,0 C 19,2 C 40,2 km/h
N-NO (6 Bft)
Durchschnitt _ 12,7 C 13,3 C 59 % 1024,0 hPa #0,0 l/m 8,7 km/h (2 Bft) NO - #6:06 h 3,6 UV-I 457 W/m 4,0 C 11,1 C 13,3 km/h (3 Bft)